GFSMW_sfc_dewp_000.txt.gz
Dewpoint
38 41 43 45 46 46 45 44 45 46 55 58 58 58 59 59 59 58 57 57 56 55 55 55 55 56 55 55 54 53 53 53 53 52 52 52 53 52 52 51 50 50 48
39 41 42 43 43 44 46 45 44 45 51 55 57 58 59 59 60 60 60 59 59 58 56 56 56 55 56 56 55 54 53 53 53 52 52 51 52 52 52 52 52 51 51
39 40 42 43 43 43 42 43 44 47 48 54 57 57 58 58 58 59 59 60 60 60 59 59 57 57 56 56 56 56 54 54 55 54 53 52 50 48 49 51 52 52 52
39 41 42 43 43 43 42 42 43 43 43 48 49 50 52 52 54 56 57 56 57 59 60 60 60 59 58 57 58 58 57 57 55 57 55 55 55 52 51 51 49 50 51
39 41 42 43 43 43 43 43 43 43 43 42 44 45 44 49 51 51 48 49 52 53 55 58 59 59 60 60 59 59 59 59 58 57 57 56 55 55 53 52 52 52 51
40 41 42 42 42 43 43 43 43 43 43 42 42 41 41 42 43 43 45 45 48 51 48 47 52 58 59 60 61 61 61 61 60 60 59 57 56 54 54 53 53 53 53
39 40 40 41 42 41 41 42 42 42 42 42 42 42 42 42 42 42 43 43 43 44 43 43 43 44 45 49 55 59 60 61 60 59 58 59 59 58 57 56 55 55 55
39 40 40 41 41 41 41 41 41 42 42 42 42 43 44 44 44 43 43 44 43 44 43 44 43 43 43 43 45 48 51 55 57 58 58 58 57 57 57 57 56 54 54
38 39 40 40 40 40 40 40 41 42 43 43 43 43 44 44 44 44 44 44 43 42 42 43 44 43 43 43 43 44 45 46 48 50 52 54 54 55 56 57 56 55 51
38 39 40 40 40 40 40 41 43 43 43 43 43 43 44 43 43 42 41 40 40 40 41 41 41 42 43 43 43 43 43 44 45 46 47 48 50 52 54 55 56 55 54
37 38 39 39 40 41 42 43 43 41 40 41 41 41 43 42 40 39 38 37 37 37 38 38 39 40 41 40 40 40 40 41 42 45 45 47 49 50 51 53 53 53 53
38 38 38 40 41 41 42 41 39 37 37 38 38 38 40 37 35 33 33 34 33 34 34 36 36 36 35 37 39 39 39 41 38 39 43 45 47 48 49 50 50 50 51
38 35 37 41 42 41 40 38 36 34 35 36 35 34 35 31 28 29 29 29 30 30 30 32 31 30 33 36 35 38 38 36 38 40 43 45 46 44 46 47 48 48 49
34 34 39 42 40 38 36 33 32 31 32 33 32 33 28 27 27 27 26 26 26 27 26 26 25 28 33 30 34 37 33 38 38 43 45 43 39 40 44 45 45 46 48
33 35 41 40 38 35 32 30 28 27 29 27 28 27 26 24 24 24 23 23 24 23 24 22 22 25 29 23 34 30 30 35 40 38 34 37 38 43 45 39 38 43 44
34 41 41 37 35 33 29 27 26 25 25 24 24 21 17 17 18 18 19 19 19 19 20 19 21 27 18 32 36 34 30 36 32 29 28 34 36 41 37 38 41 43 43
40 40 37 35 33 28 26 25 24 23 20 22 16 14 14 14 15 15 15 16 15 17 17 17 18 15 17 32 34 36 28 25 26 24 24 27 33 34 28 34 39 37 41
39 37 34 32 29 25 24 22 21 16 14 15 12 13 13 13 13 13 13 13 13 14 14 15 14 14 13 30 33 35 20 16 18 24 24 30 33 31 33 34 34 35 37
37 34 32 30 25 22 19 15 12 9 9 11 12 12 13 12 12 12 12 12 12 13 14 12 13 12 12 28 31 28 18 21 24 24 26 32 32 35 35 33 34 35 37
33 31 29 25 21 16 11 8 8 8 8 11 12 13 14 13 12 13 13 13 14 13 13 13 13 17 13 24 26 25 21 22 23 24 27 34 32 34 34 32 34 35 37
31 28 25 21 16 9 7 7 8 8 9 12 14 14 14 14 13 14 14 15 15 15 15 14 13 13 16 19 28 28 24 24 25 26 28 28 32 32 34 35 36 37 38
27 24 20 15 10 10 8 8 8 9 11 13 14 14 14 14 14 16 17 17 16 15 14 15 15 17 19 26 27 30 30 29 27 28 26 27 32 35 36 35 37 37 37
22 17 16 13 10 10 10 9 10 11 13 14 14 14 14 14 14 17 17 17 16 16 16 16 19 21 22 23 29 29 30 32 28 26 30 30 33 32 30 32 34 35 33
17 15 12 9 10 11 11 10 11 13 14 14 14 14 14 16 16 15 16 17 16 16 17 20 21 22 23 24 24 25 27 28 29 30 25 29 27 28 27 29 31 31 32
16 13 12 12 12 12 11 12 13 14 14 14 14 14 15 15 16 16 16 16 17 20 21 22 22 23 24 24 27 26 24 30 27 24 25 25 23 24 26 26 28 30 31
14 12 12 12 12 12 12 13 14 15 15 14 14 15 16 16 16 16 16 22 24 26 26 26 24 22 25 28 26 26 31 30 25 22 23 23 22 23 25 25 28 29 30

GFSMW_sfc_dewp_003.txt.gz
Dewpoint
39 41 42 42 42 43 45 45 46 47 54 57 57 57 58 59 58 59 58 56 56 55 54 54 54 55 55 54 55 54 53 53 53 52 53 53 53 53 52 52 52 52 51
39 40 42 42 42 41 42 42 44 47 51 56 57 58 58 58 59 60 60 60 59 58 57 56 56 56 56 55 55 55 54 54 54 53 54 52 52 53 53 53 53 52 52
39 40 41 42 42 41 42 42 42 42 46 52 57 57 56 56 55 55 56 56 56 58 59 59 59 59 57 57 57 56 55 55 56 54 54 52 50 50 51 51 52 52 53
40 41 41 42 42 42 42 42 42 42 42 44 45 48 49 48 50 52 50 48 49 51 51 53 55 57 59 58 58 58 58 57 56 57 55 55 55 53 52 53 52 51 51
39 40 41 41 42 42 42 42 42 42 42 42 42 42 42 43 45 44 43 44 44 47 44 44 45 47 50 53 57 58 59 60 59 58 58 57 56 55 54 52 53 54 53
39 40 41 41 41 41 42 42 42 42 42 42 42 42 41 42 42 42 42 43 43 44 42 42 42 43 44 45 46 48 51 55 57 58 57 56 55 54 54 54 54 54 54
39 39 40 40 40 40 40 41 42 42 42 42 42 42 42 42 42 42 42 41 41 41 41 42 41 41 42 43 44 46 47 48 49 50 51 53 53 53 53 53 52 51 53
38 39 40 40 39 39 40 41 41 42 42 42 42 41 41 42 41 41 41 40 40 40 39 40 40 40 41 42 43 44 46 46 46 46 47 48 49 50 52 52 51 48 49
38 38 39 39 38 39 40 41 41 41 41 41 41 41 39 39 39 39 38 38 37 36 36 38 37 38 39 40 41 39 41 42 43 45 46 47 45 48 50 50 51 50 47
38 38 39 38 39 41 41 41 39 38 38 39 39 39 38 37 37 35 34 33 33 33 33 33 35 36 37 35 35 38 39 39 40 40 40 41 43 46 48 49 50 50 48
38 38 38 39 40 41 39 38 36 35 35 36 36 36 35 33 31 28 28 28 29 29 29 28 30 29 29 30 35 34 35 38 36 36 38 40 43 45 45 45 45 45 47
37 38 38 40 40 39 36 34 33 32 33 33 32 32 28 25 24 24 24 23 23 24 25 24 24 22 25 28 30 29 35 32 32 37 37 39 43 42 42 40 41 44 45
37 37 40 40 39 37 34 31 29 29 30 29 29 26 23 22 21 22 21 20 20 21 21 22 21 20 22 28 25 25 31 26 27 32 35 42 36 38 35 37 42 40 35
35 36 41 40 37 34 30 27 25 26 26 25 24 20 19 20 19 19 19 19 19 18 18 19 18 19 21 21 19 25 25 25 29 34 40 31 31 33 35 37 34 31 35
32 38 41 39 35 31 27 25 24 24 22 22 19 19 18 17 17 17 16 16 17 15 16 17 16 18 17 13 21 24 25 30 23 21 24 24 29 32 35 36 34 32 34
32 40 40 35 33 29 25 24 23 22 18 19 15 16 15 15 15 14 14 15 15 14 14 14 16 18 13 25 27 28 27 24 17 15 17 24 27 26 36 36 36 35 34
37 40 36 34 31 25 24 23 20 15 12 15 13 14 15 14 15 14 14 14 13 13 13 13 14 13 13 25 28 29 25 19 19 21 23 23 24 30 32 34 35 35 35
39 36 33 31 26 24 21 17 14 10 11 12 12 14 14 14 14 14 13 13 13 13 13 14 14 14 14 25 27 28 20 21 21 22 23 24 26 29 30 29 29 30 31
36 34 31 28 22 19 15 10 8 9 10 11 12 13 14 14 13 13 13 13 14 14 14 14 14 14 14 24 26 25 22 22 23 24 24 27 26 30 31 28 28 28 29
33 30 28 24 20 13 8 7 8 8 8 11 12 14 15 14 13 13 13 14 15 15 14 15 15 19 15 23 27 27 23 24 25 27 29 30 28 30 31 27 28 32 34
31 27 25 20 14 8 8 8 8 7 10 12 13 15 15 15 14 14 15 15 16 15 16 15 15 16 18 21 28 29 24 24 27 32 26 26 30 32 29 31 31 33 32
28 24 20 13 9 10 9 8 7 10 12 13 14 15 15 14 14 17 17 17 16 15 15 15 16 19 21 26 26 28 29 29 27 25 25 27 29 27 28 27 28 29 31
22 19 16 12 9 10 10 8 9 12 13 14 14 14 15 14 14 17 17 16 15 15 16 16 18 21 21 22 28 29 30 30 25 27 30 27 26 27 25 26 28 29 28
19 15 11 7 9 11 10 10 11 13 14 13 14 14 14 16 16 16 16 16 15 16 16 19 21 22 23 23 23 25 26 26 26 34 23 22 24 25 24 24 25 26 27
16 12 10 10 10 11 11 12 13 14 13 13 14 14 14 15 16 16 16 15 16 19 20 21 21 21 22 22 25 27 22 23 32 24 19 18 21 20 20 21 23 24 25
14 11 10 11 10 12 12 12 14 14 14 14 13 14 16 17 17 16 15 20 23 25 25 25 23 20 24 26 26 26 27 30 27 20 19 19 20 20 20 21 21 23 23

GFSMW_sfc_dewp_006.txt.gz
Dewpoint
40 41 42 41 41 41 42 43 46 50 55 56 56 56 56 57 58 58 59 58 57 56 55 54 54 55 54 55 55 54 53 54 54 53 53 54 54 53 53 53 52 52 52
39 41 41 41 41 41 41 41 42 44 51 56 57 57 57 58 58 56 54 54 56 56 56 57 57 57 56 56 55 55 56 56 56 54 54 52 53 54 54 53 53 53 53
39 40 41 41 41 41 41 41 42 42 43 47 52 51 51 50 49 49 46 47 47 45 45 47 49 52 55 56 56 57 57 56 56 56 55 53 51 54 54 52 53 53 53
40 40 41 41 41 41 42 42 42 42 42 43 43 44 44 44 45 46 44 44 44 44 43 43 43 44 47 46 48 47 54 55 54 56 57 57 56 53 51 53 54 52 52
40 40 41 41 41 42 42 42 42 42 43 42 42 43 42 43 43 43 41 42 41 43 41 41 41 41 42 43 45 45 45 48 50 50 52 52 52 53 51 48 49 51 54
40 40 40 40 40 41 41 42 42 42 42 42 42 42 41 40 39 39 39 39 40 41 40 40 40 40 41 42 43 44 45 45 46 47 46 46 46 47 48 47 47 48 49
39 40 39 40 40 40 41 41 42 41 42 41 40 40 40 39 38 38 38 36 35 36 36 36 37 38 39 40 42 43 43 44 45 44 44 46 45 47 47 46 45 46 47
39 39 39 39 39 40 41 41 40 40 40 40 39 38 37 38 36 36 36 34 35 35 33 34 34 35 36 37 36 38 41 41 43 43 44 45 43 43 44 45 46 43 42
38 39 39 38 40 40 40 39 38 38 38 38 37 36 34 33 32 33 32 30 30 28 29 31 30 30 30 29 30 34 35 36 39 42 41 40 40 41 44 47 47 44 39
38 39 38 39 40 40 38 36 36 35 35 35 34 32 30 29 28 27 25 25 25 25 25 25 24 24 22 24 25 34 27 31 38 30 33 37 38 40 44 45 43 42 41
38 38 38 40 40 38 35 34 33 33 32 32 30 26 24 24 22 22 22 21 22 22 22 21 22 20 20 21 23 28 23 28 29 26 28 33 35 40 38 40 37 35 39
38 38 39 40 38 35 32 30 30 29 29 29 25 22 21 20 19 19 20 19 18 19 19 18 19 18 18 19 23 20 20 27 24 25 30 33 37 32 35 35 30 35 39
37 38 40 39 37 33 29 27 26 25 25 24 20 17 17 16 16 16 16 16 16 16 16 16 17 16 17 18 16 17 21 22 24 29 25 20 27 26 25 25 28 34 34
37 39 40 38 35 30 27 25 23 22 22 18 15 15 15 15 14 16 16 16 16 16 15 14 14 16 16 16 14 19 22 24 27 24 20 17 19 23 26 25 27 33 33
35 40 40 36 32 28 25 24 22 18 18 14 14 15 16 15 15 16 16 16 16 15 14 14 14 15 16 11 19 21 23 23 24 20 19 22 26 29 28 27 29 30 30
34 40 39 35 31 26 24 23 20 13 13 13 14 15 15 16 16 16 15 15 15 14 14 14 15 17 13 24 27 26 22 22 21 21 21 22 26 27 31 32 32 30 28
34 40 36 33 28 25 23 20 14 10 11 13 13 14 15 15 16 15 14 14 13 14 14 14 14 14 14 24 27 28 22 22 23 22 23 23 23 28 27 30 31 30 32
38 37 34 29 25 23 20 15 10 9 11 11 12 14 15 15 15 15 14 14 14 14 14 14 14 14 15 25 27 28 23 23 23 23 24 25 29 29 27 26 29 32 27
37 34 31 27 23 18 12 8 8 8 9 10 11 13 14 14 14 14 14 14 14 14 14 14 14 15 15 24 27 26 22 22 23 24 25 30 28 29 30 30 29 25 29
33 30 27 23 17 10 7 7 7 7 8 11 12 14 15 15 14 14 14 14 15 15 15 15 15 19 16 24 27 25 22 22 23 24 31 30 26 29 31 23 24 26 23
30 27 24 18 12 8 8 8 7 7 10 13 14 14 15 15 14 14 15 15 16 16 15 15 15 16 18 21 27 27 22 22 25 30 23 23 30 33 27 26 23 23 24
28 24 18 12 9 10 9 8 7 10 12 13 14 14 14 14 14 16 17 17 16 15 15 15 16 18 20 25 26 27 27 27 26 23 21 25 32 25 25 25 26 26 26
25 21 17 11 8 10 10 7 9 12 13 13 13 13 14 14 14 16 17 16 16 15 15 15 17 20 21 22 27 28 29 29 23 22 29 29 24 23 23 24 25 24 22
21 17 11 7 8 10 10 10 11 12 13 12 13 13 14 15 16 16 17 17 15 15 16 18 19 20 21 22 22 24 25 26 24 31 29 23 22 23 22 21 21 20 21
18 14 11 10 9 10 10 11 12 13 12 13 13 13 14 15 16 16 17 16 16 19 19 19 20 21 21 21 24 25 21 23 26 23 19 18 18 18 18 18 18 19 20
16 13 10 10 9 11 11 12 13 13 13 13 13 14 15 16 16 16 16 20 22 23 23 24 22 20 24 26 26 25 27 27 23 16 16 19 19 18 18 18 18 19 20

GFSMW_sfc_dewp_009.txt.gz
Dewpoint
40 41 41 41 42 42 43 44 50 54 57 58 58 58 57 55 52 50 49 49 50 51 52 51 51 52 53 53 54 55 55 55 56 55 54 55 55 55 56 56 55 54 54
39 41 41 41 41 41 42 42 44 46 54 58 59 58 53 49 47 47 45 45 42 42 41 43 43 44 45 44 46 48 48 49 51 53 54 52 51 52 55 55 55 55 55
39 40 40 41 42 42 43 43 43 44 45 47 47 47 47 46 45 44 42 43 42 40 40 41 40 41 42 42 43 44 44 43 44 46 48 47 46 49 48 51 53 54 55
40 41 41 41 42 42 44 44 44 44 44 45 44 44 43 41 42 41 41 39 40 40 37 39 39 39 40 40 41 40 43 42 42 43 41 45 46 43 43 40 46 45 49
41 40 41 42 42 43 44 44 43 43 43 42 43 41 40 40 39 38 36 37 36 38 34 35 36 36 37 39 40 40 41 42 42 42 43 43 44 44 45 43 40 44 43
40 40 41 41 42 44 44 44 42 41 41 40 40 39 38 35 34 34 32 32 31 33 30 31 31 32 32 34 35 37 40 40 41 42 42 42 42 41 41 42 41 41 42
40 40 40 40 41 43 43 42 41 40 38 37 36 36 35 33 31 29 27 25 24 28 27 28 26 27 28 29 30 32 37 37 38 40 42 41 37 35 37 39 41 42 41
40 40 40 41 41 41 41 40 39 38 37 34 32 30 30 28 26 25 24 22 22 23 23 24 23 23 22 22 24 26 35 30 34 40 37 34 31 33 35 39 41 39 35
40 40 39 40 41 40 38 38 36 36 35 32 26 24 22 22 22 21 20 20 19 16 19 21 20 21 20 20 21 21 26 25 27 33 31 30 30 36 38 41 42 37 36
39 39 38 40 40 37 36 36 34 33 31 26 22 19 18 18 18 18 17 18 17 18 18 18 18 18 17 17 18 20 22 21 21 25 25 29 31 35 38 35 34 37 33
39 39 39 40 38 35 34 32 30 29 27 22 18 16 16 15 14 14 15 16 16 16 16 15 15 15 14 14 16 16 17 18 23 24 26 29 28 24 26 32 31 29 28
39 38 40 38 35 32 30 29 27 26 24 19 14 14 14 13 12 12 14 14 14 14 14 13 13 12 13 14 14 14 16 19 21 23 27 25 19 23 23 25 26 28 29
38 38 39 37 33 29 27 25 23 23 19 14 12 12 12 12 12 13 13 13 13 13 13 13 12 12 14 14 14 15 19 21 22 23 25 22 21 23 23 25 26 29 28
38 39 39 37 32 28 25 23 20 20 16 13 12 12 12 13 13 14 14 14 14 13 13 13 12 13 14 14 13 19 21 21 22 22 22 21 22 22 26 27 29 27 30
37 39 39 35 30 26 24 22 18 14 13 11 12 13 14 15 15 15 15 14 15 14 13 13 13 14 14 10 20 22 22 22 22 22 22 23 26 29 28 26 29 29 29
37 40 38 34 29 26 24 22 15 10 12 11 12 14 14 15 15 15 14 14 14 13 13 13 14 16 12 23 27 26 24 23 22 23 23 23 26 27 31 32 31 29 29
36 40 38 33 28 26 24 18 9 9 10 10 11 13 14 14 15 14 14 14 13 14 13 12 13 13 14 24 27 28 24 23 22 22 23 23 23 28 30 31 30 34 32
35 39 35 30 26 24 20 12 9 8 9 10 11 13 14 14 14 14 13 13 13 13 13 13 13 14 14 24 27 28 23 22 21 22 23 24 26 30 26 26 34 26 24
38 37 32 26 24 19 13 8 8 7 8 10 11 12 13 13 13 12 13 13 14 14 13 13 14 14 15 24 27 26 22 21 21 22 23 27 27 27 29 33 25 23 24
34 31 26 22 17 10 8 7 6 6 7 10 12 13 14 13 12 13 13 14 15 14 14 14 14 18 15 23 27 25 21 21 22 24 27 28 24 28 34 24 22 24 23
29 26 23 19 12 8 7 7 6 5 9 12 13 13 13 13 13 14 14 15 15 15 15 14 14 15 18 20 26 27 21 22 27 28 23 21 27 35 29 25 21 23 23
28 24 18 12 9 10 8 7 5 9 12 13 13 13 12 12 13 15 16 16 16 15 15 14 15 18 19 24 25 26 26 27 23 22 21 25 35 26 24 22 24 25 24
26 22 17 11 9 10 8 6 8 11 12 13 12 12 12 12 14 16 16 16 15 15 14 15 17 19 20 21 26 27 29 28 23 23 29 25 22 23 21 23 23 23 21
23 19 14 9 9 10 9 9 11 12 12 11 11 12 12 15 14 15 16 16 16 16 16 17 18 20 21 22 22 24 24 25 28 29 20 20 21 23 22 19 19 20 21
22 17 13 11 10 10 10 11 12 13 11 11 11 12 13 14 15 16 16 16 17 19 18 18 19 21 22 21 25 24 20 24 25 19 16 16 19 18 17 17 18 20 20
17 14 12 10 9 10 11 12 13 13 12 11 11 12 15 16 16 15 16 21 22 23 23 24 22 20 24 26 25 24 27 26 23 17 15 18 19 18 17 17 18 19 20

GFSMW_sfc_dewp_012.txt.gz
Dewpoint
40 41 42 42 43 45 48 52 55 56 56 57 57 55 52 49 46 45 43 42 41 41 42 42 41 41 42 41 41 41 41 41 42 40 41 42 45 48 46 53 52 50 51
38 40 41 41 41 42 43 47 52 56 57 58 55 50 47 45 44 44 42 41 39 39 38 39 39 40 40 40 40 41 41 39 39 39 40 37 38 39 41 41 39 42 43
37 38 40 41 42 43 44 44 47 48 48 47 46 46 46 45 43 41 40 39 38 36 36 37 37 37 38 37 38 37 38 37 36 37 36 35 36 38 37 37 37 38 41
38 39 40 42 43 45 47 45 45 45 45 46 45 43 42 40 39 38 38 36 35 33 29 31 31 32 31 32 32 30 34 35 33 34 33 36 35 36 35 35 37 36 37
39 40 41 43 44 46 46 45 43 42 42 42 41 39 38 38 36 34 33 32 30 29 25 25 26 26 26 28 29 29 30 32 30 31 34 34 35 34 35 34 30 32 31
39 40 42 43 44 46 45 44 41 40 40 39 38 38 36 33 31 30 26 24 22 24 22 22 22 22 24 24 25 26 29 31 28 28 31 34 33 30 27 24 27 28 29
40 40 41 42 43 44 44 41 39 37 36 35 33 32 32 29 26 23 20 18 16 19 19 20 18 18 21 21 22 23 26 28 26 29 31 31 25 24 21 23 29 29 32
39 40 41 42 43 42 41 39 37 36 33 31 28 26 25 23 19 18 16 14 14 14 17 17 16 16 16 17 18 19 21 23 24 24 24 28 22 23 25 30 33 34 33
40 40 41 42 41 40 39 38 37 34 30 26 23 20 17 18 17 15 14 14 13 11 13 15 14 15 15 15 16 14 16 17 20 21 24 22 22 26 28 29 30 30 29
39 40 40 41 39 38 37 36 34 30 26 22 19 16 13 12 13 12 13 13 11 12 13 12 12 12 12 12 13 14 14 15 17 18 20 22 22 26 24 22 21 24 25
39 39 40 40 38 36 35 32 31 28 23 19 15 14 12 11 9 9 10 11 11 11 11 10 10 9 9 10 10 11 12 14 17 19 19 21 23 23 20 21 21 21 22
40 39 40 39 36 34 32 30 29 25 21 16 12 11 11 10 8 8 10 9 9 10 10 10 9 8 9 10 10 11 12 15 16 18 19 19 17 22 21 21 21 23 24
39 39 40 37 35 32 30 27 26 22 17 13 10 10 10 9 9 10 10 9 10 10 9 10 9 9 11 11 10 10 14 16 18 19 19 19 20 21 21 21 22 24 23
39 39 39 37 34 31 28 25 23 20 14 11 10 11 10 11 11 12 11 11 11 11 11 10 10 11 11 11 9 15 18 18 19 20 21 20 20 20 24 23 24 25 27
38 39 39 37 34 30 27 24 20 16 11 9 10 12 12 12 12 12 12 12 12 12 12 11 11 11 12 6 17 20 21 21 20 21 19 20 23 27 26 24 26 28 27
37 38 39 38 34 29 26 25 18 12 10 9 10 12 11 12 13 13 12 12 13 12 12 11 12 15 8 20 25 26 22 21 20 19 19 18 23 23 29 30 31 28 28
37 38 39 38 33 29 27 23 14 9 8 8 9 10 11 11 12 12 11 12 12 12 12 10 10 10 11 21 26 28 23 21 19 18 18 18 17 25 25 28 28 30 33
37 39 39 36 31 28 24 16 11 9 7 8 8 10 11 11 11 10 10 11 11 11 10 10 10 11 11 22 25 27 22 19 18 18 19 19 23 25 24 24 29 29 24
36 39 38 33 28 25 20 14 9 7 6 7 7 9 9 9 8 9 10 10 11 11 11 10 11 11 11 22 25 25 20 18 18 18 19 23 23 25 26 31 31 24 23
37 36 32 28 25 19 13 11 7 4 4 7 9 10 10 10 8 10 11 11 11 10 10 10 10 15 13 22 25 24 19 18 19 21 23 25 23 27 30 26 21 26 21
33 29 27 25 21 13 11 8 5 3 7 10 10 10 10 9 9 11 12 13 11 10 10 9 10 13 16 18 25 26 20 21 24 27 22 21 27 28 25 25 21 22 22
30 27 25 20 15 12 9 6 4 7 10 11 10 9 9 9 10 15 15 14 10 9 9 10 12 15 16 22 23 26 26 26 25 22 22 24 26 23 23 23 25 24 23
28 25 23 18 14 10 7 5 7 10 10 10 9 8 9 9 12 13 14 12 10 9 10 12 14 15 16 17 24 25 27 27 22 22 28 26 22 22 21 23 22 22 21
29 25 22 19 14 10 10 8 9 10 10 9 8 8 9 12 12 11 11 11 10 11 12 14 15 17 17 18 20 23 25 25 24 29 24 20 20 20 20 18 18 19 20
28 24 22 19 15 10 8 9 11 11 9 8 8 9 10 11 11 10 11 12 14 17 18 19 19 20 19 20 24 24 20 23 26 23 17 15 14 17 16 17 18 20 20
26 22 20 16 10 8 9 10 11 11 10 8 9 10 12 12 10 10 11 18 20 22 23 24 22 20 23 25 25 24 25 28 24 17 14 15 18 18 17 17 18 19 21

GFSMW_sfc_dewp_015.txt.gz
Dewpoint
39 41 42 43 45 49 52 54 54 56 56 57 56 53 50 47 45 44 42 41 40 40 41 40 39 40 40 40 39 39 40 41 40 39 40 40 39 38 40 38 38 39 41
37 40 41 41 41 44 49 53 55 57 56 53 52 49 47 45 44 43 41 38 36 36 36 37 37 37 38 37 36 37 36 36 36 34 35 33 33 35 35 34 36 36 39
36 38 40 41 42 43 46 47 48 48 49 49 48 47 47 46 42 40 39 37 34 30 30 31 30 32 33 34 34 33 35 33 34 34 29 30 28 33 34 34 34 33 32
36 38 40 42 44 46 47 46 46 46 46 46 45 44 41 38 38 37 36 34 33 28 25 25 26 27 28 29 30 26 30 33 32 32 26 30 30 31 30 30 31 29 26
38 39 41 43 45 47 46 44 43 42 42 42 41 39 37 36 35 34 31 29 27 26 23 22 23 23 24 26 26 28 27 31 29 28 29 28 31 30 26 24 25 24 24
38 40 42 44 45 46 45 44 40 39 39 39 37 37 36 34 32 30 26 24 22 23 21 20 20 20 22 23 25 27 29 28 29 27 26 25 26 25 22 20 22 23 27
39 40 41 42 44 44 43 40 38 36 35 35 34 33 33 30 27 24 22 19 18 18 18 19 17 17 21 22 23 24 26 24 26 27 25 22 23 25 21 21 24 26 29
39 40 41 43 43 43 40 38 36 34 32 31 29 27 27 25 22 20 18 16 15 14 15 16 15 14 15 16 18 21 22 22 24 26 25 22 24 23 22 25 27 27 25
39 40 41 42 42 41 39 38 35 32 30 28 25 23 21 20 19 17 16 16 13 9 12 14 13 13 13 13 15 15 17 18 20 22 24 22 22 24 25 27 28 24 21
39 40 41 41 40 39 38 37 33 30 27 25 22 20 17 15 15 15 13 12 11 11 12 11 10 11 10 11 13 15 16 15 17 17 20 21 21 22 24 25 25 24 22
39 39 40 40 39 38 37 34 31 28 25 23 20 18 15 14 12 11 10 9 9 9 9 9 9 9 9 10 11 12 13 13 16 18 19 20 21 21 21 23 24 24 23
39 39 40 40 38 37 35 33 31 27 25 21 17 16 15 14 12 10 9 8 8 8 9 9 9 9 10 11 10 11 11 12 15 18 19 19 17 23 23 22 23 23 23
39 38 39 38 37 36 33 31 29 25 21 18 16 15 15 13 11 10 9 9 9 9 9 10 11 10 12 11 11 10 11 15 17 19 20 20 21 22 22 22 22 23 23
39 38 39 38 36 35 32 29 27 24 19 16 15 15 14 12 11 11 11 10 10 11 12 12 11 13 11 12 12 12 16 18 19 21 21 21 20 20 23 22 24 25 27
38 38 39 38 36 34 31 27 26 21 16 14 14 14 13 12 12 12 12 11 12 13 13 13 13 13 13 9 15 18 20 21 21 21 20 20 24 26 25 21 25 27 28
37 38 39 39 36 33 30 27 24 18 15 13 12 12 10 11 12 12 11 12 13 13 13 14 15 19 10 21 23 23 22 22 21 20 19 19 24 22 26 28 29 27 24
36 38 39 39 37 33 30 26 21 15 13 11 9 9 10 10 11 11 10 12 12 13 14 13 12 11 11 21 23 25 22 22 20 19 18 18 16 24 24 28 29 28 31
36 38 39 40 36 32 29 24 17 14 11 9 7 8 9 9 9 9 10 11 11 12 12 12 11 11 11 21 23 25 22 20 20 18 18 19 22 25 24 24 30 30 28
38 39 40 37 33 29 25 19 15 11 9 7 7 7 7 8 8 9 10 11 12 13 11 10 11 10 10 21 23 24 21 20 19 19 20 22 23 26 29 28 27 21 21
39 39 37 32 29 26 21 19 14 9 5 6 7 8 9 9 8 9 11 12 12 11 10 10 9 14 10 20 24 23 20 20 20 21 25 27 23 27 31 23 19 21 22
35 33 31 29 25 20 19 16 10 5 7 8 8 8 9 8 8 11 13 14 12 11 10 9 8 10 14 17 24 25 20 21 22 26 22 22 26 29 27 24 18 22 23
32 30 28 24 20 18 16 11 7 7 8 9 9 9 8 8 11 18 19 16 12 10 8 9 10 14 14 21 23 25 25 25 23 23 21 22 31 24 23 21 23 24 23
30 28 26 21 19 15 13 8 8 8 8 9 8 8 8 10 12 16 16 14 10 9 9 9 12 16 17 18 24 25 26 27 22 21 25 31 23 22 20 21 23 22 19
29 28 24 21 18 13 10 8 9 9 9 8 7 8 10 12 12 12 12 12 9 11 11 14 17 19 19 19 20 20 23 25 24 28 29 21 20 20 19 18 18 18 19
30 28 26 24 19 14 9 9 10 9 9 7 7 9 10 11 12 11 10 9 11 15 17 19 20 20 19 19 23 24 20 23 26 23 18 15 15 16 16 16 17 18 19
30 28 26 23 16 10 8 9 10 10 9 8 10 11 12 13 11 10 11 17 20 21 21 22 21 19 23 24 25 24 25 27 24 18 15 15 17 17 16 16 17 18 21

GFSMW_sfc_dewp_018.txt.gz
Dewpoint
40 41 43 45 49 53 53 55 55 56 57 58 54 50 48 46 44 43 40 38 38 39 39 40 39 39 39 38 35 36 35 35 36 36 33 33 35 31 31 29 32 35 33
39 41 42 43 47 51 53 55 55 53 52 52 50 49 46 45 44 42 39 35 33 32 31 33 33 32 35 33 32 32 34 34 34 33 31 31 30 30 29 33 34 31 33
38 39 41 42 44 47 48 48 49 49 49 48 46 45 46 45 42 41 38 35 30 28 28 28 28 29 31 32 30 30 30 32 32 31 29 30 29 27 30 29 31 24 24
38 39 41 43 45 46 47 47 47 47 48 47 46 44 41 39 39 37 36 33 29 25 25 25 25 26 29 27 27 26 28 30 31 32 27 27 27 26 26 30 25 25 21
38 40 43 45 46 46 45 44 43 42 42 41 40 40 38 37 36 34 30 27 27 24 23 23 23 23 27 25 25 25 26 29 28 29 29 26 28 25 24 22 23 21 22
38 41 44 45 46 46 44 41 39 39 39 38 37 36 34 33 31 27 26 25 25 26 22 21 20 21 22 23 25 23 24 25 25 27 26 25 22 20 20 23 20 19 21
39 42 43 44 44 43 42 39 38 36 35 34 33 32 30 27 24 23 22 20 20 21 18 19 17 19 19 21 21 22 22 23 23 24 22 25 23 21 22 21 20 21 22
40 41 42 44 44 42 39 37 35 33 31 29 27 26 26 25 23 20 20 17 17 16 16 16 16 15 16 17 17 20 21 18 22 19 23 22 22 22 22 22 24 20 21
40 40 42 43 43 40 38 36 33 31 29 27 23 21 20 19 19 17 17 17 14 11 13 14 13 13 14 14 15 16 16 16 17 20 21 20 20 22 23 24 23 23 20
39 40 42 42 41 40 38 35 31 29 26 24 21 18 16 15 15 14 12 12 11 12 12 12 12 12 12 13 13 16 17 14 16 16 16 17 19 21 21 23 23 23 22
39 40 41 41 39 38 37 32 29 26 25 23 20 17 15 15 13 11 10 9 10 10 10 11 11 11 12 12 12 13 13 12 14 15 16 19 19 20 21 22 24 23 22
39 40 40 39 38 37 35 31 29 26 24 20 17 17 16 14 11 10 10 10 9 10 10 12 12 12 13 13 12 12 13 13 15 17 19 19 19 21 21 23 21 22 22
39 39 40 38 37 36 33 31 28 24 21 18 17 16 16 13 11 11 11 11 11 11 12 13 14 14 16 14 13 13 13 16 18 20 21 21 21 21 21 21 20 21 21
39 39 39 38 37 35 32 30 26 22 19 17 17 16 14 12 12 13 13 13 12 13 14 15 14 16 15 15 14 14 17 18 20 22 22 21 21 20 21 20 21 22 25
38 38 39 38 36 34 31 28 25 20 17 16 17 16 14 13 13 14 14 14 15 14 15 15 16 16 15 12 14 17 19 20 21 22 21 22 24 27 24 20 23 24 23
38 39 39 38 35 33 29 27 23 18 16 15 15 14 13 12 13 14 14 14 15 15 14 15 16 19 12 22 24 22 19 20 21 21 21 20 22 22 27 28 28 27 28
38 38 39 38 36 32 28 25 20 16 14 14 12 12 12 12 13 12 12 13 13 13 14 13 13 12 12 22 24 24 19 21 21 20 20 18 18 23 22 27 30 34 32
38 39 40 39 35 31 28 22 17 15 15 12 10 11 11 10 11 11 11 11 12 13 13 13 12 11 11 21 23 24 19 20 21 20 20 20 20 23 24 25 30 31 23
38 39 40 35 31 29 20 17 15 13 12 10 9 9 8 9 10 10 10 11 13 13 13 11 11 10 9 21 22 22 19 19 20 20 21 23 23 27 28 27 29 21 22
40 37 34 31 28 21 19 16 13 11 8 8 9 9 10 10 9 9 11 13 15 13 12 11 10 15 9 20 23 22 19 18 20 22 25 28 25 27 30 25 20 22 18
34 32 30 28 23 21 20 14 10 7 9 9 9 10 10 9 9 11 13 15 15 13 12 10 9 9 13 16 24 26 20 20 21 26 25 24 26 31 29 25 18 19 22
32 30 26 21 20 20 15 10 8 9 10 10 10 10 9 9 11 16 18 17 14 11 10 9 10 13 16 23 24 26 26 25 23 23 22 21 29 25 24 22 23 24 22
29 26 21 20 18 16 12 9 9 9 10 9 9 9 9 10 13 15 15 15 12 10 10 11 13 17 19 20 25 26 26 27 22 22 25 31 25 22 19 21 23 22 17
29 25 22 19 15 11 10 10 10 10 9 8 8 8 10 13 13 13 14 13 10 10 11 13 16 18 18 19 19 20 22 24 23 27 28 22 20 20 20 18 17 17 18
29 26 24 21 16 13 10 11 11 10 9 8 8 11 12 13 13 13 13 11 12 15 15 17 17 17 17 18 23 22 19 21 25 23 19 14 14 16 15 16 16 17 19
29 28 25 21 15 11 10 11 11 11 10 10 12 13 14 15 14 12 12 18 20 21 22 22 20 17 22 23 24 23 25 26 24 17 14 15 16 16 16 16 18 19 21

GFSMW_sfc_dewp_021.txt.gz
Dewpoint
41 42 44 48 51 53 54 55 56 56 56 51 47 44 44 41 39 37 34 33 34 33 33 35 33 34 35 31 30 33 32 33 33 34 28 32 33 29 24 21 32 33 32
40 42 44 48 51 52 52 53 52 52 52 50 48 47 43 42 40 38 32 29 28 29 27 29 30 29 32 28 28 29 30 32 32 32 31 29 30 27 22 28 25 29 25
40 40 43 46 47 47 48 49 49 48 47 45 44 43 44 42 40 37 34 28 25 26 26 25 26 27 30 28 26 27 27 29 31 30 27 26 26 23 29 23 28 19 21
40 41 43 45 45 46 47 47 48 47 46 45 44 42 40 38 37 37 33 28 23 23 24 24 24 25 27 24 25 24 26 27 27 30 29 26 26 26 24 26 19 22 23
39 41 44 45 46 44 42 41 41 42 42 41 40 39 37 36 35 31 27 25 23 22 22 21 21 21 25 22 22 22 23 26 25 26 28 24 25 26 22 19 19 21 22
40 43 45 45 44 42 40 39 38 37 37 37 37 35 32 29 26 24 24 24 24 23 20 19 19 19 20 21 22 21 20 21 23 23 24 22 20 22 18 17 18 20 19
42 44 44 43 43 40 39 37 36 34 33 31 30 27 24 22 21 22 20 18 18 19 16 17 16 17 17 19 19 19 19 19 19 20 20 20 24 21 19 20 19 18 20
43 44 44 43 41 39 37 34 32 31 28 27 26 24 23 23 21 19 18 16 16 15 14 14 14 13 14 15 16 19 19 16 19 17 18 21 21 21 22 20 21 20 18
42 43 43 43 41 38 35 33 31 29 26 24 21 19 19 18 17 15 15 16 13 11 12 12 12 12 13 14 14 16 15 16 17 19 20 19 17 21 23 24 23 22 20
41 43 43 42 40 37 34 32 29 27 24 21 17 16 15 15 14 13 10 10 11 11 11 11 11 12 13 13 13 15 17 15 16 17 17 17 19 20 21 23 24 23 22
40 42 42 41 39 36 33 30 27 24 22 20 16 15 15 13 11 10 9 9 10 10 11 11 12 13 13 13 13 13 13 14 16 18 18 20 20 21 22 22 23 24 23
40 42 41 39 37 35 31 27 26 24 21 18 17 16 15 12 10 10 10 11 10 11 12 13 14 14 15 15 14 13 14 15 17 19 20 20 21 22 22 22 22 22 21
40 41 39 37 36 33 30 27 25 22 19 18 17 16 14 12 11 11 11 12 11 12 14 14 15 15 17 17 15 14 14 16 18 20 21 21 21 22 22 22 21 21 21
40 39 38 37 36 33 31 27 23 20 19 18 17 15 13 12 12 13 13 14 13 13 14 15 16 17 17 17 16 14 17 18 19 22 22 22 22 22 22 21 22 22 23
39 39 37 37 36 33 30 25 21 18 18 18 17 15 14 13 13 14 14 14 15 15 16 15 16 17 16 11 16 17 19 19 20 21 21 22 24 26 24 20 21 22 23
39 39 37 36 35 32 28 23 20 18 17 17 16 15 14 12 14 13 13 13 14 14 14 14 16 18 12 22 24 22 18 19 20 21 20 21 24 23 27 28 28 27 25
38 39 37 36 34 30 25 21 17 16 15 14 14 13 13 12 13 12 11 12 12 13 13 13 14 13 13 22 24 24 18 20 21 20 21 20 20 24 23 28 29 29 32
39 39 38 36 32 27 24 17 16 15 15 13 12 12 12 11 11 11 11 10 11 13 13 14 13 12 11 22 23 24 18 19 20 21 21 21 22 25 25 23 25 30 28
39 40 38 33 28 24 18 16 14 15 13 11 10 9 9 9 10 10 10 10 12 15 14 13 12 12 10 22 24 23 19 19 19 21 22 24 24 27 26 25 30 26 24
36 32 30 26 20 17 15 13 12 11 10 9 10 9 10 10 9 9 9 12 15 15 14 13 12 16 10 22 25 24 20 20 20 22 26 27 24 26 30 27 22 21 17
30 29 25 21 19 17 14 13 10 9 10 10 10 10 10 9 9 10 13 15 15 14 13 11 10 10 14 19 25 26 20 20 24 26 23 22 26 33 26 25 17 18 21
29 25 22 20 20 16 12 9 8 10 11 11 10 10 9 8 11 15 16 15 15 13 11 10 11 14 17 23 24 25 26 26 23 22 21 21 32 24 23 21 23 24 23
24 22 20 18 17 12 10 8 9 11 11 9 9 8 8 10 13 14 15 15 13 11 11 11 12 16 18 19 24 26 26 26 21 22 27 28 23 21 19 22 23 22 17
23 21 17 14 12 11 10 10 11 11 9 8 7 8 11 15 13 14 14 14 12 12 12 14 16 17 17 18 18 19 20 23 26 28 23 20 19 20 20 18 17 17 19
24 21 18 16 12 10 10 10 11 10 9 8 9 12 13 14 14 14 13 14 14 17 16 17 17 17 17 17 22 22 19 22 25 21 16 13 15 16 15 16 16 18 19
26 25 21 17 13 10 11 11 12 11 10 10 12 13 15 15 15 13 14 19 20 21 21 21 20 17 22 23 23 24 26 25 23 17 13 15 17 16 15 16 18 18 20

GFSMW_sfc_dewp_024.txt.gz
Dewpoint
40 41 44 48 52 53 54 55 56 51 48 47 44 43 41 37 34 32 31 31 30 30 31 32 31 33 30 28 27 29 30 30 31 32 29 31 32 25 20 25 27 27 23
40 43 47 51 53 54 54 55 56 52 50 47 45 42 40 38 35 31 27 27 27 27 26 28 28 29 28 25 25 27 28 30 31 28 31 27 28 27 16 26 23 20 18
40 43 48 49 50 51 51 51 50 48 46 43 41 40 38 38 35 31 28 25 24 26 25 25 25 26 27 26 25 25 25 27 28 27 25 22 23 22 25 19 24 18 22
41 43 47 47 48 48 48 48 47 45 44 43 40 37 36 35 36 33 27 23 22 23 23 23 23 23 25 22 23 23 24 24 23 27 26 26 24 22 22 24 20 22 17
41 44 46 46 46 45 45 45 45 45 44 43 40 39 36 36 34 29 24 20 20 21 21 20 20 20 23 21 20 20 19 23 23 23 26 23 23 23 25 17 16 17 19
41 44 45 44 42 41 40 41 41 40 40 39 37 35 32 29 27 25 25 23 22 22 18 18 17 17 18 19 20 19 18 19 19 20 20 20 18 21 18 13 14 16 17
42 44 43 41 39 38 37 37 37 35 34 33 31 28 25 22 21 21 20 18 17 18 15 16 14 15 16 18 18 18 17 18 17 17 18 19 22 22 17 16 17 17 18
43 43 42 41 38 36 35 34 32 30 29 27 24 22 22 23 21 18 17 16 15 15 14 13 12 12 14 15 15 18 18 16 18 15 17 20 20 20 20 20 20 19 18
43 43 42 40 37 35 33 31 29 27 25 23 21 20 19 19 17 15 15 15 13 11 11 11 12 12 13 14 14 15 15 15 16 18 18 18 20 21 21 22 23 22 19
43 42 41 39 37 34 32 29 27 24 22 19 18 17 16 14 13 12 10 10 10 11 11 12 12 13 14 14 14 16 16 15 16 17 18 19 21 21 23 23 23 23 22
43 42 41 39 36 33 30 28 25 22 18 17 15 15 14 12 11 10 9 9 10 11 11 13 13 14 14 14 14 14 14 14 15 18 19 21 22 21 22 23 24 23 23
43 42 41 38 34 31 29 26 24 21 18 16 15 15 13 11 10 10 10 11 10 11 12 14 14 15 16 16 15 15 15 14 16 18 20 21 20 22 23 23 23 23 22
42 42 40 37 34 31 27 25 23 20 18 17 16 14 13 11 11 11 11 12 12 12 14 14 15 16 18 17 16 16 15 15 17 19 21 22 21 21 22 22 22 22 22
41 40 39 36 33 29 26 24 21 18 18 17 16 14 12 12 12 13 13 13 13 13 14 15 16 17 17 17 16 16 17 18 18 21 23 22 22 22 23 22 22 22 22
40 39 38 36 32 29 26 23 19 18 18 17 16 15 14 13 14 14 13 14 14 14 15 14 16 16 16 11 19 19 20 19 19 20 21 22 23 27 25 21 22 22 25
40 39 38 36 32 29 25 21 18 18 18 17 17 16 14 13 14 13 13 12 14 13 14 14 16 18 12 23 25 23 19 18 18 19 20 21 24 24 28 28 29 27 24
39 38 37 36 33 29 23 19 17 18 17 16 15 14 13 12 13 11 11 12 11 13 14 14 14 14 13 23 25 26 20 19 19 20 20 20 20 25 25 28 28 27 29
39 38 37 36 32 26 21 17 16 16 16 15 13 13 13 11 11 10 10 10 11 13 14 14 14 13 12 23 25 27 21 21 20 20 20 21 23 25 23 21 26 30 25
40 38 37 32 27 22 17 15 15 15 14 12 11 10 9 9 9 9 9 9 12 14 15 14 13 12 12 22 25 25 21 20 20 21 21 25 23 26 27 30 26 22 20
37 34 30 26 21 17 15 14 13 12 11 11 11 10 10 9 8 9 9 12 14 14 14 13 12 16 12 20 25 24 20 20 21 22 26 27 23 27 31 20 19 18 16
28 26 24 20 17 15 14 13 11 10 11 11 10 10 10 9 8 10 13 14 14 14 12 11 11 11 13 17 25 25 21 21 25 26 22 21 28 28 25 24 17 18 22
24 22 20 17 15 14 12 10 9 10 11 11 11 10 9 8 12 14 15 15 13 12 11 11 12 14 15 23 23 25 25 26 20 21 22 25 27 23 23 21 24 25 23
22 21 19 15 13 11 9 9 9 11 11 9 9 8 9 12 13 14 15 14 13 12 13 13 14 16 17 18 24 25 26 24 22 24 25 25 22 21 20 22 23 22 17
20 19 16 13 11 10 10 10 11 11 9 8 7 10 12 16 14 14 14 14 14 14 14 16 16 17 17 18 18 19 20 24 25 25 22 19 19 20 20 18 17 17 18
20 17 14 12 11 11 10 11 11 10 8 8 10 12 14 15 14 14 14 16 16 18 17 17 18 17 17 18 22 21 20 22 22 20 15 13 14 16 15 15 16 17 18
20 18 16 12 11 11 11 11 12 10 9 10 12 14 16 15 14 14 14 20 20 21 21 21 20 18 22 23 23 24 25 24 23 16 13 15 16 16 15 16 17 18 19

GFSMW_sfc_dewp_027.txt.gz
Dewpoint
37 41 42 45 50 51 51 49 54 49 48 46 44 42 39 35 33 31 30 29 29 29 29 31 30 29 26 25 25 27 27 28 30 27 27 30 30 27 21 25 23 21 20
39 41 43 49 52 52 54 55 51 49 48 46 43 40 37 33 30 29 26 26 26 26 26 28 27 26 25 24 24 25 25 26 29 27 29 25 24 25 17 22 24 20 22
38 41 45 50 51 52 53 53 50 48 45 42 38 35 32 30 28 26 25 24 24 25 25 24 25 24 25 24 23 24 22 23 24 27 19 15 19 24 23 18 23 17 22
38 41 48 49 51 51 51 49 48 44 42 41 38 36 33 30 32 28 24 22 22 22 23 22 22 23 24 21 21 21 22 22 22 25 22 24 23 19 18 23 19 20 13
40 43 48 49 50 49 48 47 45 44 42 40 38 36 35 33 30 24 20 19 20 20 20 20 19 20 22 19 18 18 18 22 21 22 24 22 22 21 22 16 17 14 13
40 44 47 46 45 45 45 45 44 43 41 39 37 35 32 28 25 24 23 21 20 21 18 17 17 16 18 18 19 17 16 17 17 18 18 18 17 19 18 14 13 13 14
42 45 45 44 43 43 42 42 42 39 37 36 34 32 29 26 24 23 22 18 17 17 15 14 13 15 15 17 17 17 16 17 16 16 16 19 20 21 19 16 16 15 17
43 45 45 43 42 40 40 40 38 34 32 30 27 24 23 24 22 20 18 16 15 15 13 13 12 12 14 15 15 18 17 16 17 15 17 19 19 20 20 20 20 19 17
43 45 43 40 39 37 36 36 33 29 27 24 22 21 20 19 18 15 15 15 14 12 11 11 12 13 14 14 14 15 15 15 16 17 18 18 20 22 23 23 23 22 19
43 43 41 38 36 34 31 30 29 26 23 20 19 18 16 15 14 13 11 11 10 11 11 12 13 14 14 15 15 16 17 15 16 17 18 19 21 22 23 24 24 23 22
42 41 39 37 34 31 29 26 24 21 19 18 16 15 14 12 10 10 10 10 11 11 12 13 14 14 15 15 15 15 15 15 16 16 18 20 22 22 22 23 24 24 23
42 40 38 35 32 30 27 24 21 19 17 16 14 14 13 11 10 10 10 11 10 12 13 14 15 15 16 16 15 15 15 15 15 17 19 20 19 22 22 23 23 23 23
41 39 36 34 31 28 25 22 19 17 16 16 14 13 12 11 11 11 12 12 12 13 14 15 15 16 17 17 16 15 15 16 17 18 19 20 21 22 22 22 22 23 22
41 39 36 34 30 27 24 21 19 17 17 16 14 13 12 12 12 13 13 13 13 14 14 15 15 16 16 16 15 17 18 19 19 20 21 21 22 22 22 22 22 24 23
41 39 36 33 29 26 23 20 18 18 17 16 16 15 14 14 14 14 14 14 14 13 14 15 16 16 15 11 20 21 20 20 19 19 20 21 24 26 25 21 22 21 24
40 39 37 33 29 26 23 19 18 18 17 17 17 16 15 14 14 13 13 13 12 13 14 15 16 16 12 22 26 24 22 20 19 20 20 20 24 24 28 28 28 26 23
40 39 36 33 29 26 21 18 17 18 17 17 16 15 14 13 13 12 11 11 11 13 14 14 14 13 13 22 26 26 23 21 21 20 20 20 20 25 24 28 28 29 32
40 38 37 34 29 24 20 18 18 17 17 16 14 14 14 12 12 10 9 9 11 13 14 14 14 13 12 24 25 26 22 21 21 21 21 21 21 25 24 23 30 24 21
39 38 37 32 25 21 18 17 16 16 15 13 13 11 10 10 9 9 8 10 12 14 14 14 13 12 12 23 25 24 21 20 20 21 22 24 25 26 28 27 22 19 18
38 35 30 26 22 18 16 15 14 14 12 12 11 11 11 9 8 8 10 12 14 14 13 12 12 16 13 22 25 24 20 20 20 25 26 27 23 27 30 21 19 18 16
31 28 26 23 18 16 15 14 12 12 12 12 11 11 10 9 9 12 14 14 13 13 12 12 13 13 15 19 25 25 21 20 22 20 21 22 28 28 25 24 18 19 24
24 22 19 16 15 15 14 12 11 11 12 12 11 10 9 11 14 15 15 14 13 12 13 13 14 16 16 23 23 25 25 25 19 23 22 23 27 24 23 22 24 25 23
21 19 17 14 13 13 12 10 10 12 11 10 9 9 12 13 14 14 14 14 14 14 14 15 15 17 17 18 24 25 25 24 24 22 23 25 23 22 20 22 24 22 17
19 17 15 13 11 11 11 10 11 11 9 7 10 12 15 15 14 14 14 15 15 15 16 16 17 17 17 18 18 20 20 25 22 23 21 20 19 20 20 18 17 16 17
18 16 14 12 11 10 11 11 11 9 7 10 11 14 15 15 14 13 14 17 17 18 18 18 18 17 17 18 23 22 20 21 21 21 16 14 14 15 15 15 16 16 17
17 15 13 12 11 10 11 11 11 9 10 11 12 16 16 15 14 14 15 19 20 21 21 21 20 18 22 23 24 24 24 24 23 17 14 15 15 15 15 15 16 17 18

GFSMW_sfc_dewp_030.txt.gz
Dewpoint
41 39 39 42 45 48 49 53 56 52 50 47 45 44 40 36 34 32 31 30 29 29 29 29 26 26 24 23 23 24 23 27 28 25 25 28 27 29 24 23 23 21 20
39 39 41 45 49 50 50 53 51 50 50 48 43 41 37 33 30 29 27 27 26 26 26 26 25 24 24 22 22 22 22 23 27 23 26 20 19 23 17 20 23 18 22
40 39 41 46 50 51 52 52 50 48 46 41 37 32 30 28 27 25 26 25 24 25 24 23 23 23 24 24 23 21 20 20 22 26 18 13 14 23 21 19 24 18 20
39 39 41 47 50 51 52 51 48 45 42 40 38 35 34 29 28 25 23 22 22 22 23 22 22 22 23 20 21 19 21 20 21 22 22 22 22 16 16 20 17 18 14
40 39 42 46 50 51 50 48 45 43 41 40 38 36 33 29 25 22 19 19 19 20 20 19 19 19 22 19 17 17 17 20 18 20 22 19 20 20 21 15 17 14 14
39 39 43 49 49 49 47 45 44 42 40 39 37 35 28 23 21 21 20 20 20 20 17 17 17 17 18 18 18 17 15 17 16 17 17 17 16 18 17 15 14 15 14
39 44 46 48 47 47 46 45 43 40 39 37 35 30 26 25 20 20 19 17 17 17 14 13 14 15 17 17 17 16 16 16 15 15 16 18 19 20 19 18 17 16 17
40 44 46 48 47 47 45 44 42 38 36 34 30 27 25 25 23 21 18 17 16 15 13 13 13 13 15 15 15 18 17 16 16 14 16 18 19 20 20 20 20 17 16
41 44 47 47 46 45 44 42 38 34 31 28 25 23 22 21 19 16 16 16 14 12 12 12 13 14 15 15 15 16 15 15 16 17 17 18 20 21 22 23 23 21 17
42 45 46 44 43 41 38 36 34 30 25 23 21 19 17 15 14 14 13 11 11 12 13 14 14 14 15 15 15 16 17 15 16 17 17 18 20 21 23 23 24 23 22
43 44 42 39 36 34 34 30 26 24 21 19 17 15 14 12 11 10 11 11 12 12 14 14 14 15 15 15 15 15 15 15 16 17 17 19 20 21 22 23 23 23 23
43 41 37 35 33 30 29 26 23 20 18 16 14 13 12 10 10 10 11 11 12 13 14 14 14 15 16 16 14 14 15 16 17 17 18 19 18 21 22 22 22 22 22
39 36 35 33 30 27 24 22 19 17 16 15 13 12 12 11 11 11 12 12 13 14 14 15 15 15 17 15 14 14 16 18 18 19 19 20 20 21 22 22 22 22 23
39 37 34 31 28 25 22 19 17 16 15 14 13 12 12 12 12 13 13 14 14 13 14 15 15 16 15 14 14 18 20 20 20 20 21 20 21 21 22 22 22 22 21
39 36 33 30 26 23 20 17 16 16 15 14 14 14 14 15 15 14 14 14 14 14 15 15 15 16 14 11 20 22 22 21 20 20 20 21 23 27 25 22 22 22 22
39 36 32 29 25 22 19 17 17 16 16 16 16 16 16 15 15 14 13 13 14 14 15 14 15 16 12 22 25 25 23 22 21 20 21 21 24 24 28 28 28 27 27
39 36 32 29 25 22 19 17 17 17 17 16 16 16 15 14 14 12 12 12 12 13 14 14 14 13 13 23 26 26 23 22 21 21 21 21 21 25 23 28 29 30 30
39 36 33 29 25 21 19 18 17 17 17 16 15 15 15 13 12 10 10 10 12 13 14 14 13 12 12 25 25 26 22 21 21 21 21 21 21 24 25 23 31 24 21
39 37 33 28 23 20 18 17 17 17 16 14 14 12 12 11 10 10 10 11 13 14 13 13 12 12 14 24 25 25 22 21 20 21 21 23 24 26 27 28 24 19 19
38 34 29 25 21 18 18 17 16 15 13 13 12 11 12 10 9 10 12 13 14 13 12 12 13 18 14 23 25 24 21 20 20 21 23 25 24 27 31 21 19 19 17
32 29 26 23 19 17 17 15 14 13 13 12 12 12 10 9 11 13 14 13 12 12 13 13 15 15 17 20 25 25 21 21 21 20 21 23 26 28 25 25 18 19 24
27 24 20 17 17 17 15 14 13 13 12 12 11 9 11 13 14 15 14 13 13 13 14 15 16 17 17 23 24 25 26 25 20 21 23 21 26 25 24 22 24 26 23
21 19 17 15 15 15 14 12 11 12 11 9 9 12 13 13 14 14 14 14 14 15 15 16 16 17 18 18 24 25 26 25 23 22 23 25 24 22 20 22 24 23 17
18 17 16 14 12 12 11 11 11 10 9 9 12 15 16 14 14 13 14 16 16 16 16 17 17 18 18 18 19 20 21 25 24 24 21 21 20 20 20 17 16 16 16
18 17 14 13 11 11 11 10 10 9 9 11 13 14 15 14 14 14 14 17 18 18 18 18 18 18 17 18 22 22 20 21 22 21 17 14 14 15 14 14 15 16 16
16 14 13 11 11 10 10 10 10 11 11 12 15 18 14 14 14 15 15 19 20 21 21 21 19 18 21 23 24 24 25 24 24 18 14 14 15 15 14 15 15 16 18

GFSMW_sfc_dewp_033.txt.gz
Dewpoint
41 42 43 42 42 45 48 51 58 60 57 54 52 50 49 47 39 37 33 32 31 30 29 27 25 26 24 22 20 24 22 24 24 21 23 26 26 29 30 19 23 23 23
40 42 42 42 43 46 49 53 58 56 55 55 51 49 49 42 38 33 30 29 29 28 26 26 25 25 24 23 21 22 22 22 25 20 24 18 16 21 18 24 22 21 21
38 40 41 42 46 48 51 53 54 53 52 45 42 39 39 37 35 29 28 27 26 25 25 25 24 25 25 23 23 24 23 20 24 23 14 15 14 18 19 18 21 17 17
35 38 41 42 46 50 53 53 52 49 46 44 43 42 45 41 37 27 25 24 23 24 23 24 22 22 23 22 21 20 22 22 20 22 18 18 17 13 10 17 17 18 13
35 38 41 43 46 51 53 52 50 47 44 44 44 45 45 37 27 23 21 20 21 22 22 21 22 21 21 20 20 20 20 20 17 20 19 18 18 19 18 11 13 15 16
36 39 42 44 48 52 52 50 48 44 43 43 41 40 39 24 22 21 20 19 20 20 19 20 20 20 20 20 21 20 21 19 18 18 17 15 13 13 13 13 14 15 14
37 40 43 46 49 51 50 48 46 43 41 40 38 33 29 23 21 20 19 18 16 17 17 17 17 18 20 20 21 20 19 19 18 18 16 17 18 17 17 17 17 16 17
38 40 43 47 49 51 49 47 44 41 40 38 33 29 25 25 22 20 19 17 16 15 16 16 16 16 17 18 18 20 20 19 19 18 18 17 18 19 19 19 19 18 14
33 40 44 47 49 49 48 46 43 40 38 33 28 26 24 23 21 19 18 17 15 13 15 16 16 17 17 17 17 17 17 17 18 19 20 18 18 20 21 22 21 20 16
33 40 45 47 48 49 46 43 40 36 33 29 26 23 21 20 18 16 15 15 13 14 16 16 16 16 16 16 17 16 17 17 18 18 18 19 19 20 21 22 22 22 20
33 41 46 46 45 42 41 37 33 30 27 24 20 19 17 15 14 12 13 13 13 15 15 15 15 16 15 15 15 14 16 16 18 19 19 20 20 20 21 22 22 22 21
41 44 42 39 39 37 35 33 29 25 22 19 17 15 14 13 11 11 12 12 14 15 15 15 15 15 15 14 13 14 17 18 19 20 20 20 19 22 21 21 21 22 22
38 37 37 37 36 33 30 27 23 20 17 16 14 13 12 12 11 11 12 13 14 15 15 15 15 14 15 14 13 16 19 20 21 21 21 21 20 20 20 21 22 23 22
37 36 35 33 31 28 25 21 18 17 15 14 14 13 12 12 12 13 14 14 14 14 15 15 15 15 14 13 15 20 22 22 22 22 22 21 20 21 23 23 24 24 24
37 35 32 29 26 23 21 19 17 15 14 14 15 14 14 14 14 15 15 14 15 15 15 15 15 15 13 11 21 23 24 23 23 22 21 21 24 27 27 23 24 23 24
37 33 30 27 24 21 19 18 16 16 16 16 16 16 15 15 15 15 14 15 16 15 14 14 15 16 11 22 26 26 23 23 22 21 20 21 24 25 28 28 28 27 25
36 32 29 26 22 20 18 17 16 16 16 16 15 15 14 14 14 13 13 15 14 14 14 13 13 12 13 23 26 26 23 22 22 21 21 20 20 25 24 27 29 29 33
36 32 29 25 22 19 18 17 17 17 17 16 15 15 14 13 12 11 12 13 13 14 13 13 12 13 14 25 25 26 23 22 22 21 21 21 22 24 25 23 30 30 23
36 32 29 24 21 18 17 17 17 17 16 14 14 12 12 10 10 12 12 13 13 13 13 12 12 14 17 24 25 25 22 21 21 21 21 22 22 26 27 28 28 20 19
34 30 26 22 20 18 18 17 17 15 14 13 12 12 11 10 11 13 13 14 13 12 12 12 14 18 16 22 25 24 21 20 20 21 21 24 25 26 29 24 21 21 17
31 27 25 22 19 18 17 16 15 14 13 12 11 11 11 11 13 14 13 13 12 12 13 14 16 16 18 19 25 25 21 21 22 20 19 22 26 28 26 25 19 19 24
27 23 21 19 18 18 16 15 13 12 12 12 11 12 14 13 15 15 14 13 13 13 14 16 17 17 18 22 23 25 25 25 21 21 22 21 27 25 24 22 24 25 24
22 20 18 17 16 16 15 12 12 12 10 10 13 13 13 14 14 14 14 14 15 15 15 16 17 17 17 18 24 25 26 25 23 23 24 26 24 22 20 21 24 23 16
19 18 16 14 13 12 12 11 11 10 10 13 15 14 14 14 13 13 14 16 16 16 17 17 17 18 17 18 18 20 21 23 24 24 24 21 20 20 20 17 16 15 16
18 17 15 13 12 11 10 10 10 11 11 13 14 15 14 14 14 14 15 17 18 19 18 18 17 17 17 17 23 22 20 23 22 22 17 13 13 14 13 14 15 15 15
15 14 13 11 10 9 9 10 12 12 13 15 16 15 14 14 14 15 15 19 19 21 21 20 19 17 21 23 24 24 26 24 24 17 13 13 14 14 13 14 15 16 18

GFSMW_sfc_dewp_036.txt.gz
Dewpoint
36 38 41 42 44 44 44 44 47 51 56 58 60 62 61 60 57 53 49 43 39 35 36 32 29 29 27 25 23 23 24 24 23 23 23 25 25 27 29 26 20 24 22
29 32 37 40 42 43 44 46 49 53 57 59 58 58 57 55 51 46 41 40 36 30 31 31 28 28 26 24 23 24 24 23 24 21 25 20 18 23 24 19 21 16 19
25 26 30 38 41 43 45 47 51 56 58 57 57 53 47 43 40 36 36 34 30 28 29 29 26 27 26 26 25 25 23 23 24 22 15 17 18 16 18 19 16 17 15
29 29 30 33 38 43 48 50 53 56 57 56 52 50 51 48 46 39 37 34 32 30 25 25 25 25 24 24 23 21 23 23 22 24 15 16 14 14 12 16 16 16 14
28 29 32 34 37 44 50 52 54 55 54 53 53 53 52 47 42 37 30 27 25 25 24 23 23 22 22 22 22 23 21 21 18 20 19 17 17 15 16 14 14 14 16
27 30 32 35 37 44 52 53 53 53 52 53 52 54 50 43 36 27 26 26 26 24 22 21 22 22 22 23 23 23 22 21 19 17 17 14 12 11 12 11 13 15 16
25 29 35 38 41 44 52 53 52 51 51 51 52 51 45 42 36 27 24 21 21 21 21 21 19 21 23 23 22 22 22 21 19 20 15 15 15 15 15 15 16 15 16
29 29 35 41 43 46 51 52 51 49 49 50 49 45 40 32 26 25 22 23 20 19 20 19 18 18 19 20 20 21 21 21 20 20 19 17 16 17 17 18 18 16 14
29 32 32 39 44 47 50 51 50 48 48 47 41 33 30 26 27 22 25 20 19 16 17 18 18 18 18 18 18 17 17 17 19 19 21 19 18 19 20 20 20 19 16
31 35 34 37 43 47 50 51 48 46 45 42 37 30 26 25 23 23 20 18 16 16 17 17 17 17 17 17 17 17 17 16 17 17 19 20 19 20 20 21 20 20 19
36 38 37 40 46 48 50 48 46 43 40 37 33 27 22 21 25 20 19 17 15 16 16 16 15 16 15 15 14 14 15 15 18 20 20 20 20 20 19 20 20 19 19
40 42 41 44 47 48 47 45 42 39 36 31 27 22 19 18 18 18 16 14 14 15 14 14 14 14 14 13 11 12 15 17 19 19 20 20 18 21 19 18 19 19 20
41 41 41 42 44 44 43 41 36 31 28 26 20 18 17 18 16 15 14 14 14 14 14 15 15 13 14 12 11 14 17 19 20 21 21 20 19 19 19 19 20 21 20
40 40 40 41 42 42 39 33 26 22 21 18 17 17 18 17 15 14 14 14 14 14 15 15 14 14 12 12 13 18 20 21 20 21 22 21 19 19 21 22 22 20 22
39 39 38 39 38 34 27 23 20 18 17 17 18 18 17 16 15 15 15 14 15 15 15 14 14 14 13 9 20 21 22 22 21 20 20 20 22 26 27 23 22 22 22
40 37 36 36 31 26 22 19 17 16 17 19 19 18 16 15 16 15 15 16 17 16 15 14 17 18 10 19 25 26 22 21 20 19 18 18 22 22 27 27 28 27 27
39 36 34 31 27 22 20 18 16 18 18 18 17 16 15 15 15 14 15 17 16 16 15 14 13 12 13 21 26 26 22 21 19 19 19 18 17 23 21 25 27 29 30
38 35 31 26 23 21 19 17 18 19 18 17 16 15 14 14 13 13 15 15 15 15 13 13 12 13 13 23 25 26 22 20 20 19 20 19 20 21 23 23 29 30 24
36 33 28 25 23 20 18 19 18 18 17 16 14 13 12 11 11 13 14 14 14 14 13 12 12 13 13 19 25 25 20 18 18 19 19 20 20 24 27 27 31 20 18
33 30 26 24 22 20 19 19 18 17 15 14 13 11 11 10 12 15 15 14 13 12 11 12 12 15 14 18 24 24 19 17 18 18 19 23 22 26 28 25 20 21 16
30 27 25 22 20 19 18 17 17 15 14 13 11 11 11 12 14 15 14 14 13 12 11 11 12 13 15 16 23 25 21 19 19 19 17 18 24 27 27 26 19 18 21
27 23 21 19 18 18 18 17 15 13 12 11 11 12 13 13 16 18 17 15 14 12 10 12 11 12 13 17 20 24 25 25 20 18 20 21 26 26 25 22 23 25 25
25 23 21 19 19 18 16 14 12 12 11 12 13 14 14 15 16 17 17 14 13 11 11 11 12 12 13 14 20 23 24 24 21 23 24 26 25 23 20 21 23 23 17
22 21 19 18 16 15 14 12 12 11 12 12 13 14 14 14 14 14 15 14 12 11 12 12 12 13 13 13 15 18 19 22 24 25 24 21 21 19 19 16 16 16 16
21 19 17 16 14 12 11 10 11 12 13 14 15 15 15 14 13 13 14 13 14 17 15 14 14 14 14 15 23 23 20 23 23 23 17 14 11 13 13 13 15 16 16
18 17 15 14 12 10 10 11 12 13 13 13 13 14 14 14 13 12 11 17 18 19 19 19 18 17 20 23 24 24 26 24 24 17 13 12 14 14 13 14 16 17 20

GFSMW_sfc_dewp_039.txt.gz
Dewpoint
35 36 38 39 39 40 42 43 44 46 47 52 55 59 60 66 65 64 62 57 52 46 43 40 38 36 34 32 28 28 28 28 27 30 32 32 28 29 32 32 28 28 26
29 31 34 37 39 40 42 43 44 46 49 53 57 59 61 61 60 59 56 52 48 42 37 36 35 33 32 29 28 29 30 28 28 24 31 29 26 27 29 29 23 21 24
25 25 26 31 38 39 42 44 45 48 52 55 58 60 54 50 47 48 49 47 43 37 35 35 33 34 33 33 32 31 30 29 29 25 18 27 27 21 26 24 23 20 23
25 26 26 27 30 39 46 47 47 50 54 58 58 58 53 50 47 46 46 43 38 35 32 30 30 31 31 31 30 26 28 27 28 29 17 19 16 18 17 24 22 22 16
25 25 28 32 33 37 46 50 49 51 56 57 58 56 52 52 45 41 39 37 35 34 32 30 31 28 29 26 26 27 25 24 20 23 22 18 21 18 19 19 20 19 19
23 24 28 30 33 39 46 52 51 53 56 58 55 54 55 47 41 37 35 35 36 34 28 27 28 27 27 27 27 27 26 23 21 19 18 16 14 13 14 14 16 16 19
23 23 24 29 33 39 43 50 51 53 55 54 54 53 54 46 42 37 36 34 29 31 30 26 25 26 28 27 26 26 26 23 22 22 18 16 16 16 15 16 18 18 19
23 28 30 32 37 40 42 48 51 52 52 53 53 55 49 46 43 38 35 29 29 26 25 25 23 22 22 23 23 25 24 23 23 24 23 20 19 18 18 20 21 19 19
26 28 30 33 32 40 43 49 51 51 51 52 53 51 46 44 40 37 28 26 26 22 23 23 21 20 20 20 20 18 19 19 20 23 25 22 21 22 23 23 22 22 18
27 31 34 37 32 39 44 49 49 49 50 51 50 46 39 33 28 26 25 26 21 21 21 21 19 19 19 18 18 18 18 16 18 19 19 21 21 22 22 23 22 22 21
31 34 37 40 36 40 46 48 49 48 49 46 39 35 31 27 24 24 23 21 22 19 19 18 18 17 17 16 15 14 15 16 18 20 21 21 22 21 21 22 22 21 21
28 38 40 41 40 45 49 49 48 47 46 40 34 30 26 24 23 21 21 24 19 20 17 16 15 14 15 13 12 12 14 16 18 19 21 20 18 23 22 20 21 21 21
30 40 40 42 44 48 48 47 45 43 39 35 29 26 25 24 22 22 24 20 17 15 15 15 15 14 15 13 11 13 15 17 19 20 21 21 21 22 21 20 21 22 21
36 40 41 41 43 45 45 43 40 36 34 30 25 23 21 20 19 18 20 18 16 16 16 15 14 14 13 13 13 17 19 21 21 21 22 21 21 20 22 22 24 22 22
37 40 40 41 42 42 41 35 32 32 28 25 22 21 19 19 19 19 18 17 17 16 16 15 15 15 13 10 19 21 22 22 21 21 20 20 24 25 25 23 24 24 24
41 40 39 40 40 34 31 27 25 21 21 21 21 20 20 19 21 18 17 18 19 16 16 16 19 21 12 21 24 26 23 21 20 20 19 19 23 22 25 27 27 26 24
41 38 38 37 30 25 23 20 19 20 20 20 20 18 19 20 19 18 18 20 17 17 17 15 14 13 14 19 25 26 23 21 20 19 19 18 17 23 21 24 26 27 29
38 37 34 29 24 22 19 19 22 23 20 19 18 18 18 16 17 17 17 16 16 17 15 14 13 13 14 20 24 26 22 19 20 19 19 20 20 21 22 22 27 28 28
36 32 27 23 21 20 22 21 21 21 21 19 20 18 15 15 15 16 15 16 16 15 14 13 13 13 12 18 22 24 20 18 17 18 19 20 21 23 26 25 27 26 21
29 27 25 23 25 28 25 27 28 27 25 21 16 14 14 14 15 17 17 15 14 13 12 13 12 14 13 16 20 23 20 16 18 18 19 23 21 25 27 24 25 21 19
34 33 32 31 32 31 30 25 22 17 16 14 13 13 14 15 16 16 15 15 13 13 13 13 12 11 13 15 20 23 21 20 21 21 19 19 25 26 28 27 21 20 21
27 25 23 22 21 20 19 17 15 14 13 13 13 14 15 15 18 22 20 17 14 13 12 11 11 13 12 16 18 22 24 24 21 20 19 22 27 27 26 24 23 24 25
24 22 21 21 21 20 18 15 14 13 14 14 14 15 16 17 20 21 21 17 13 11 10 10 12 13 14 13 19 21 23 24 21 21 24 26 25 24 21 20 23 22 17
24 22 20 17 15 14 14 12 13 14 14 14 14 15 15 14 14 15 17 15 11 9 10 10 12 13 13 14 16 19 21 23 23 25 25 23 21 19 18 16 16 16 17
23 22 19 16 14 12 12 12 14 14 14 14 15 16 15 14 14 14 13 11 12 16 15 14 14 14 15 16 23 23 21 22 24 23 19 15 13 14 14 14 16 17 18
21 19 17 14 12 11 12 14 16 16 15 14 14 15 14 14 13 11 10 20 17 17 19 19 18 17 21 23 24 24 25 25 24 19 14 13 15 15 15 15 16 18 21

GFSMW_sfc_dewp_042.txt.gz
Dewpoint
35 35 37 38 38 37 39 44 46 45 45 48 55 59 60 63 64 64 62 61 54 52 46 43 41 38 35 33 29 30 29 29 28 29 29 29 25 29 29 29 28 25 24
32 32 34 37 38 39 39 40 44 46 46 47 52 57 61 60 62 63 61 56 54 49 43 40 37 34 32 28 27 29 29 29 27 24 27 26 25 26 25 30 23 20 21
27 29 29 31 36 37 39 40 42 44 47 50 57 56 53 51 50 52 52 50 48 47 39 38 34 33 34 33 30 29 29 29 27 22 20 22 24 20 24 22 24 18 21
26 26 26 27 29 33 38 40 43 45 48 52 57 56 57 55 50 50 50 47 46 45 39 40 40 33 33 31 29 29 27 27 27 26 20 18 17 18 17 22 21 20 15
26 26 27 28 30 31 39 42 43 46 49 53 57 57 54 49 48 44 41 43 43 41 36 34 31 30 32 27 26 26 24 24 24 24 23 18 20 18 18 18 20 19 20
23 24 25 28 32 34 36 44 47 47 54 56 58 55 51 46 44 41 40 40 39 39 35 32 32 29 29 29 28 27 24 23 22 21 19 18 16 15 15 16 15 16 18
21 25 25 28 32 32 38 40 49 48 55 57 56 53 51 45 42 40 39 36 36 35 34 32 29 29 29 29 28 27 24 23 23 21 21 19 18 18 17 17 19 19 20
23 24 29 31 34 36 38 39 49 51 55 56 53 53 45 43 40 39 37 36 33 33 33 32 28 26 26 26 26 27 25 23 24 21 22 22 21 21 19 21 21 19 20
23 27 30 33 36 36 40 40 50 51 54 54 53 49 45 41 39 37 37 36 34 29 29 29 23 23 23 23 23 23 21 19 21 21 22 22 23 22 23 23 23 21 18
26 29 35 38 40 40 40 42 49 51 52 53 51 46 44 40 38 35 32 28 25 24 24 21 21 21 21 20 20 20 18 17 19 20 18 20 22 22 23 23 23 23 21
27 30 38 39 42 41 42 45 50 51 51 51 46 35 30 30 31 28 25 22 25 22 21 20 20 20 19 18 17 16 16 16 18 19 21 22 21 22 22 22 23 22 21
27 30 40 40 42 41 45 47 49 49 43 39 33 31 27 24 24 25 24 23 23 26 20 20 18 17 17 14 13 13 14 16 18 20 20 21 20 22 22 22 21 21 21
30 37 40 40 42 45 49 49 48 40 35 31 28 26 26 27 28 22 24 22 21 19 21 20 19 17 17 14 13 14 16 18 19 21 21 21 21 21 22 21 21 23 22
34 38 40 41 41 48 48 44 38 34 30 27 26 25 26 26 22 21 22 20 18 18 18 17 17 18 16 15 15 19 20 21 22 23 23 22 21 21 21 21 23 23 23
35 39 40 41 43 45 40 36 34 29 26 25 25 24 23 21 21 21 20 22 20 17 17 17 18 17 16 16 23 24 24 23 22 21 21 21 24 26 25 21 23 24 24
41 40 40 41 40 34 31 30 29 27 24 22 22 21 20 19 19 19 19 20 19 17 18 19 23 23 12 24 25 26 25 24 21 20 20 20 24 23 25 26 27 26 23
41 39 39 31 27 26 25 22 21 22 22 22 22 22 23 22 23 23 24 24 18 18 17 16 15 15 20 23 23 25 24 23 22 21 20 19 18 23 22 25 26 26 27
39 37 31 26 23 22 20 20 21 21 21 22 21 20 20 20 20 20 19 18 18 17 16 15 14 14 17 21 22 25 23 21 20 20 19 19 19 21 23 22 24 26 26
32 28 24 22 20 20 22 21 21 20 22 21 23 22 20 20 20 21 17 17 16 15 14 14 14 13 13 21 20 22 22 20 18 18 19 21 21 25 26 25 25 25 26
23 22 21 23 23 23 24 25 26 27 29 29 31 31 32 31 24 17 16 16 15 13 14 13 12 14 13 17 20 21 21 20 20 20 21 26 22 26 27 24 25 26 20
29 29 31 33 34 35 35 33 33 33 33 33 32 27 20 17 16 17 17 15 14 13 13 12 12 11 13 14 19 21 20 21 22 23 21 20 25 27 28 28 22 21 21
37 37 36 37 38 38 35 32 32 32 27 18 16 16 17 17 20 21 18 15 14 13 11 10 11 14 12 19 19 20 22 24 21 20 20 22 27 27 26 24 24 24 24
22 25 27 26 22 19 16 13 13 15 16 15 17 18 19 20 22 21 19 15 13 11 10 10 12 14 15 14 21 24 24 25 22 21 24 27 26 25 21 21 22 22 17
29 25 22 19 16 15 14 14 15 16 15 15 15 16 16 15 15 16 18 14 13 12 11 13 14 15 15 16 18 21 22 24 23 25 24 23 22 20 19 17 17 17 17
21 18 15 14 13 13 13 14 15 15 15 16 16 16 16 15 15 14 14 12 18 17 17 18 17 16 17 18 23 23 21 22 23 23 19 16 14 16 15 16 16 17 18
18 16 14 13 13 14 15 17 17 16 15 15 15 16 15 14 13 11 12 19 16 16 17 17 16 18 20 23 23 24 25 24 24 18 14 14 16 16 16 16 16 18 20

GFSMW_sfc_dewp_045.txt.gz
Dewpoint
35 36 36 36 34 35 38 43 46 57 60 61 62 62 61 62 62 62 59 61 57 53 51 48 42 38 34 33 29 29 27 27 27 28 27 30 27 28 28 29 26 26 25
32 33 34 35 37 38 38 38 45 47 53 56 60 62 62 61 62 63 62 59 54 52 47 42 39 36 34 30 28 28 29 28 26 23 29 24 24 26 26 30 27 23 24
30 31 31 32 33 36 38 39 40 45 46 47 56 55 56 56 56 58 57 53 51 49 47 40 36 33 32 31 29 30 29 29 26 22 22 23 23 20 23 24 24 18 21
27 28 28 29 30 31 37 39 41 43 47 52 55 57 58 59 55 54 50 49 48 48 47 43 42 37 35 31 30 29 29 30 27 26 21 18 17 16 12 20 21 18 17
26 26 27 27 28 28 31 37 40 42 46 49 54 56 58 53 51 50 47 48 47 45 43 41 42 35 36 32 28 26 25 27 26 27 23 18 21 18 18 16 19 19 19
24 26 27 29 30 31 32 37 41 42 44 49 56 56 53 50 48 46 45 45 45 43 40 38 39 40 38 36 31 25 23 23 22 21 19 18 16 16 16 16 16 16 18
22 22 23 28 31 32 32 35 39 43 47 52 57 55 52 51 49 46 46 42 40 40 36 34 35 36 34 34 31 26 24 23 23 21 20 19 18 19 18 17 18 18 20
22 24 26 31 35 37 37 36 37 43 51 56 55 52 49 49 48 46 44 43 40 39 36 34 34 32 33 34 29 27 26 24 24 22 22 22 22 21 20 20 20 19 20
22 24 35 37 38 39 40 40 39 48 55 55 52 47 47 47 45 44 42 42 38 36 30 31 31 31 31 29 25 23 20 21 23 23 23 23 23 23 23 24 23 21 18
26 32 37 38 39 40 42 42 41 49 54 53 48 45 45 44 41 40 38 33 31 29 29 31 30 31 28 24 22 21 19 19 21 22 19 20 22 22 23 23 23 23 22
25 28 38 40 40 41 42 41 44 51 53 49 45 43 42 39 38 37 33 30 27 26 26 25 25 23 21 20 19 20 18 17 18 20 20 22 22 22 22 22 23 22 21
29 37 40 40 40 41 43 45 49 50 45 40 37 36 35 33 31 31 28 25 24 24 23 22 21 20 18 18 17 13 14 17 18 19 20 21 20 21 22 22 21 21 21
31 37 40 40 41 42 48 48 41 36 36 33 31 29 28 27 26 23 24 24 24 24 24 27 30 28 28 20 14 15 17 19 20 21 21 21 21 21 22 21 21 22 22
35 36 40 41 41 46 42 37 34 31 30 30 28 28 27 25 25 24 24 24 23 23 25 20 19 19 17 16 19 21 22 23 22 24 23 22 21 21 21 21 22 22 23
40 37 40 42 43 40 36 31 31 31 31 31 28 28 28 28 25 23 23 23 25 26 28 28 27 23 18 18 24 25 25 24 23 22 21 21 24 26 24 22 23 23 23
41 40 40 38 34 33 30 27 31 30 28 29 26 25 24 23 23 22 22 22 22 21 22 24 25 24 23 27 28 27 26 24 22 22 21 21 24 23 25 25 26 25 23
42 40 30 27 26 25 25 27 23 24 24 22 21 21 21 23 25 26 25 28 29 30 30 30 24 17 22 26 26 26 24 23 22 20 20 19 18 24 21 25 27 27 28
37 29 25 23 21 21 22 22 22 22 22 23 23 24 25 27 27 28 28 28 27 25 23 18 15 17 22 24 23 26 22 21 20 19 19 20 20 22 23 23 24 26 26
22 21 20 21 22 22 22 22 22 24 26 26 29 30 30 30 30 31 32 32 31 25 15 15 14 14 20 23 20 23 22 20 20 20 21 23 22 26 27 25 24 24 26
23 23 22 23 22 24 26 27 28 29 29 30 32 31 32 32 31 30 24 19 17 15 16 14 13 19 12 17 19 20 21 20 21 21 22 27 23 26 27 25 25 23 22
31 30 32 31 31 32 32 32 33 33 34 34 35 35 34 33 31 26 19 17 16 14 13 12 11 11 14 14 19 20 20 20 21 22 22 21 26 27 28 27 21 21 22
34 34 34 34 35 36 35 34 33 34 34 34 32 30 27 23 21 21 19 15 14 11 11 11 13 15 14 22 21 24 25 25 22 21 21 22 27 26 26 23 23 24 23
35 35 34 34 34 35 35 33 33 32 27 22 20 20 20 20 20 19 17 14 12 12 11 11 14 14 16 16 23 24 26 25 22 22 24 27 25 23 20 22 23 22 17
25 25 23 23 19 15 15 18 18 19 18 17 17 17 17 16 16 16 16 14 13 12 13 15 15 16 17 18 19 22 22 24 23 25 24 22 20 20 20 18 18 17 17
21 18 15 14 14 15 15 16 16 16 16 16 17 16 16 15 14 13 14 17 17 16 16 18 17 17 17 19 23 22 21 22 23 22 17 15 15 16 16 16 16 17 17
17 16 15 15 14 15 16 17 18 17 15 15 15 16 14 13 11 10 10 19 19 18 17 15 15 17 19 22 23 24 24 24 23 15 14 15 16 16 16 16 16 18 20

GFSMW_sfc_dewp_048.txt.gz
Dewpoint
34 36 35 35 35 35 35 40 53 59 62 64 63 63 62 62 62 60 58 59 57 55 53 51 45 40 36 34 28 28 25 25 26 27 27 30 27 27 28 28 26 27 25
31 33 35 36 36 36 36 35 43 53 60 62 63 64 63 62 62 62 60 60 57 55 53 49 44 37 35 31 29 30 29 27 25 24 29 25 24 26 26 29 28 25 25
30 30 31 33 34 34 36 38 39 46 57 60 61 58 58 58 58 60 60 60 57 56 54 47 42 37 38 33 30 29 29 27 25 22 25 25 24 20 22 24 24 19 21
28 29 30 31 31 32 34 36 39 41 47 51 58 60 59 59 59 61 57 54 53 55 51 46 42 42 39 32 31 30 30 28 25 25 20 18 19 16 13 19 22 18 17
27 28 28 29 30 30 31 33 37 40 43 48 54 58 59 60 56 53 52 52 52 52 49 46 45 41 38 35 38 38 33 28 27 28 24 19 21 18 18 14 18 20 19
25 26 27 28 28 30 31 31 33 36 42 46 52 56 57 53 53 51 50 49 49 49 48 45 43 42 41 40 39 32 32 28 26 23 20 19 17 17 17 16 16 17 18
22 22 24 27 30 33 35 34 35 36 39 44 51 53 56 54 53 51 50 47 46 44 46 46 42 42 41 38 33 29 30 29 26 21 20 20 19 19 18 18 18 18 20
23 22 26 31 36 38 38 38 39 38 39 43 53 55 55 54 53 51 49 48 46 44 44 40 40 38 33 32 31 31 31 27 26 22 22 22 22 21 19 20 19 18 20
28 27 33 36 37 37 38 39 41 41 41 47 54 51 52 51 49 47 46 45 45 42 39 38 36 33 32 32 32 30 28 24 24 24 23 23 23 23 23 24 23 21 18
32 30 33 38 38 38 39 41 42 41 42 52 49 49 49 48 47 46 46 44 43 37 36 33 31 30 29 28 28 27 23 22 23 23 20 21 22 22 23 23 23 24 21
35 33 29 38 40 40 41 43 44 43 51 48 46 45 45 45 45 45 43 41 36 32 32 29 28 27 26 26 24 22 19 19 20 20 20 21 22 22 22 23 23 22 22
36 33 36 40 40 40 42 47 47 49 48 46 44 43 42 43 43 40 39 34 32 33 30 25 23 22 22 20 20 20 20 20 19 20 20 21 20 22 22 22 22 21 21
38 36 36 40 40 41 47 44 42 41 40 39 39 40 39 40 39 37 31 29 27 25 23 23 25 27 30 31 29 26 22 21 20 22 22 22 22 22 22 22 22 22 21
41 40 39 38 40 44 39 36 36 40 35 38 38 36 33 30 28 27 26 25 24 26 28 29 30 30 28 25 23 23 24 26 26 26 25 23 22 22 22 22 22 21 22
41 40 40 39 41 36 34 33 36 38 39 36 34 30 27 26 26 26 25 26 27 27 28 29 31 32 32 27 29 29 28 26 24 23 21 22 24 28 26 22 23 23 23
42 42 33 32 31 29 30 31 34 35 36 34 32 31 27 24 25 26 29 29 29 29 30 29 29 32 32 35 34 30 26 23 22 21 21 20 23 23 27 27 26 25 24
40 32 26 23 24 27 28 29 31 29 30 29 29 26 25 25 27 28 29 30 31 32 33 33 32 31 32 33 31 29 23 21 20 19 19 19 19 24 22 26 27 27 29
24 22 21 22 23 25 26 28 31 31 31 30 30 30 31 32 32 33 33 33 33 33 33 31 29 28 28 28 26 26 22 21 20 20 20 21 22 23 25 24 25 26 26
22 22 23 23 22 22 23 25 26 28 30 30 31 32 33 32 32 33 33 33 32 31 29 26 24 27 27 25 23 24 21 20 20 21 21 23 24 26 27 25 25 25 25
24 24 23 24 24 25 27 27 29 30 31 33 34 34 34 34 33 33 32 32 30 26 20 17 14 17 12 21 18 22 20 19 20 20 22 26 24 26 27 25 24 22 20
32 31 31 31 31 31 31 32 33 33 34 34 34 35 34 33 33 32 30 27 23 16 13 12 12 13 15 15 20 22 20 20 22 22 21 21 26 28 27 26 20 20 22
33 34 33 34 35 36 34 33 32 34 34 34 34 33 33 33 31 27 22 16 13 11 11 13 14 15 15 23 24 24 25 25 22 21 21 22 28 26 24 22 24 25 24
35 35 34 33 34 36 35 33 33 34 33 32 32 30 26 22 19 18 16 12 12 12 11 12 13 14 16 17 24 25 25 25 23 23 24 26 24 22 20 22 23 23 17
35 35 34 29 29 30 33 32 32 31 27 20 19 18 17 17 15 15 16 13 11 11 12 14 14 16 17 18 20 22 22 25 23 25 21 20 19 20 20 18 18 17 17
22 19 16 16 16 18 18 18 18 17 16 17 17 17 15 13 13 14 16 15 15 14 14 16 16 16 16 18 22 22 21 23 22 19 15 15 15 16 16 16 17 17 18
17 17 16 16 16 16 17 18 18 17 16 15 15 15 13 12 11 11 13 21 19 17 17 17 18 17 19 22 23 23 23 24 22 15 14 15 16 16 16 16 17 18 19

GFSMW_sfc_dewp_051.txt.gz
Dewpoint
34 34 35 36 36 36 36 38 49 59 62 64 65 64 64 64 63 63 61 59 57 56 56 53 47 44 41 37 32 29 26 26 26 28 28 30 28 26 28 28 27 28 26
31 32 34 35 36 36 35 35 40 54 61 63 63 63 63 64 63 63 61 59 58 57 56 53 48 43 39 33 30 29 28 26 27 26 28 26 25 26 26 29 27 26 26
29 29 30 32 33 35 36 37 37 42 57 62 63 59 59 58 59 59 60 59 59 58 57 54 49 41 40 38 32 33 29 27 25 23 28 26 25 23 22 25 24 21 22
29 29 30 31 32 33 34 35 37 39 45 56 61 61 60 60 60 61 61 58 57 58 57 54 49 47 45 45 44 42 39 31 25 25 20 19 23 20 14 19 22 19 18
26 28 29 30 31 32 32 33 34 36 40 48 59 61 61 59 59 60 60 53 54 56 54 52 50 48 47 46 43 43 40 33 27 27 24 20 21 18 17 14 17 20 20
25 25 25 27 28 29 30 30 30 31 37 43 51 58 60 55 55 54 57 53 52 53 52 51 50 49 46 43 43 44 40 34 34 29 24 24 19 18 17 15 16 16 18
30 30 25 25 30 31 32 33 34 33 35 39 46 53 56 55 56 56 56 53 51 50 49 47 46 47 46 44 40 37 32 32 31 28 23 21 19 19 18 17 17 16 19
33 32 30 33 35 37 37 38 37 38 38 38 42 49 54 56 56 55 54 53 53 53 49 47 46 45 43 38 35 32 31 28 28 23 23 23 22 21 20 21 19 17 19
35 35 32 34 37 37 37 37 39 39 40 40 43 49 53 53 54 53 51 50 48 47 46 45 43 39 34 31 30 28 27 27 30 29 27 25 24 24 23 23 23 20 16
38 38 35 32 35 38 39 40 41 42 42 42 47 50 50 50 49 47 46 46 45 44 44 41 40 34 30 29 28 27 26 26 29 31 26 24 24 23 24 24 24 23 21
39 39 38 36 36 40 40 40 44 45 45 47 47 46 45 45 45 45 45 44 42 42 41 39 33 30 27 27 26 25 25 24 23 23 22 23 23 24 23 23 24 24 22
39 38 38 36 38 40 40 45 46 47 47 45 43 43 43 43 43 43 42 42 40 39 35 31 27 26 25 23 21 22 25 25 24 22 22 22 20 23 23 24 23 22 22
41 42 40 40 40 39 43 40 37 37 38 41 41 41 41 42 43 41 37 37 33 30 28 26 25 25 27 27 29 28 29 30 30 30 27 27 28 26 24 23 22 22 21
41 41 41 41 40 38 36 35 37 38 39 39 40 40 40 40 37 36 35 32 26 25 26 28 29 31 31 31 31 29 29 28 30 31 31 27 25 25 23 21 22 21 21
34 36 40 38 35 32 33 36 38 38 36 34 34 34 30 30 27 26 26 27 28 28 29 29 30 31 31 31 33 33 32 31 29 25 22 23 25 27 26 24 23 23 23
32 37 29 28 28 28 29 31 33 33 33 32 30 29 28 28 29 29 30 31 31 31 31 31 32 34 34 37 36 33 31 28 24 23 22 20 21 25 27 27 27 26 24
25 22 22 24 26 29 31 30 29 31 31 32 29 30 32 31 31 32 32 33 33 33 33 34 34 35 35 37 36 34 29 26 20 19 20 19 20 25 23 26 28 27 28
21 21 23 23 26 29 32 34 34 34 34 33 34 35 33 33 33 33 33 34 34 33 33 33 33 32 35 36 33 28 21 21 20 20 20 21 22 24 25 25 26 26 26
26 25 23 23 23 24 27 30 31 33 33 34 35 34 34 33 33 33 33 33 33 32 32 32 32 30 30 29 30 24 21 19 19 20 21 23 23 26 27 25 26 25 25
26 28 28 28 28 27 28 29 31 32 33 34 34 34 34 34 33 33 32 32 32 32 30 25 23 27 20 23 19 23 21 19 19 21 22 25 24 26 27 26 24 21 19
32 34 34 34 34 34 33 33 33 32 34 35 35 34 34 33 32 32 32 31 29 19 14 13 14 16 21 21 25 27 21 21 22 22 21 21 26 27 26 26 21 20 22
33 33 34 35 35 35 34 33 32 35 35 34 33 33 34 34 33 31 25 17 13 12 13 13 14 15 16 23 23 25 25 25 22 22 22 22 28 26 25 23 24 25 24
33 33 34 34 35 35 35 32 34 35 34 33 33 32 30 23 19 16 14 13 12 12 12 12 13 14 17 18 24 24 24 25 23 23 24 26 24 22 21 23 25 23 17
34 34 33 33 33 34 34 34 34 32 28 22 19 18 17 15 15 15 14 11 10 11 12 13 14 15 16 18 19 21 21 24 23 24 18 19 19 20 21 19 18 17 17
30 23 21 23 26 27 27 26 21 18 17 17 17 16 13 13 14 15 15 15 13 12 14 15 15 15 16 17 23 23 21 22 22 19 15 14 15 16 16 17 17 18 18
19 19 19 19 18 17 17 18 18 17 16 14 14 14 13 13 14 15 17 22 22 21 20 20 18 17 20 22 23 23 23 23 22 16 14 15 16 16 16 17 17 18 19

GFSMW_sfc_dewp_054.txt.gz
Dewpoint
35 35 35 36 37 37 36 37 40 57 64 66 65 65 64 65 65 63 63 61 59 57 58 57 55 52 50 46 37 31 28 27 28 29 29 29 29 26 29 31 28 30 28
30 32 33 34 35 35 35 36 38 44 58 64 65 64 65 64 64 63 63 62 59 57 57 57 54 50 48 41 34 31 29 27 29 27 28 26 26 27 27 28 27 27 26
28 29 30 31 32 34 35 36 36 40 53 61 63 59 59 59 63 61 61 61 59 58 58 56 54 49 46 43 40 36 34 29 29 26 29 27 27 25 23 26 28 25 24
25 27 28 29 30 31 33 35 37 38 43 58 61 61 61 61 61 62 62 61 59 58 58 56 53 50 47 46 44 44 45 43 37 30 22 19 25 24 18 20 22 20 19
28 30 25 27 29 30 32 33 34 36 40 44 59 61 61 61 58 59 60 60 58 59 58 56 53 50 48 48 46 44 43 43 38 33 30 22 21 17 20 16 19 20 20
34 35 33 30 31 33 32 31 30 31 34 39 49 59 61 59 56 56 58 54 55 56 57 55 52 50 48 47 47 44 43 40 37 34 29 28 25 21 18 16 17 18 17
36 36 35 34 35 36 37 38 37 35 34 35 40 50 57 57 57 57 58 57 55 56 55 54 53 50 48 48 46 44 43 40 35 31 28 25 23 24 21 19 20 16 19
37 38 37 35 35 35 37 37 37 37 38 38 38 42 48 54 56 56 57 57 55 55 55 54 51 49 47 46 45 43 38 32 29 24 24 24 25 25 22 23 22 17 19
38 39 38 36 35 35 36 38 39 40 40 41 41 42 45 49 53 53 54 54 52 51 51 49 49 49 46 44 40 32 28 27 28 30 30 29 27 26 25 25 23 21 15
39 39 39 38 36 36 38 40 40 42 44 45 44 45 46 49 50 49 48 47 46 47 47 47 46 44 40 36 33 29 27 27 29 28 25 26 26 27 27 26 25 24 21
39 39 39 40 38 39 40 40 44 45 46 47 46 45 44 45 45 45 44 44 44 44 44 43 41 38 36 33 29 26 26 26 26 26 25 25 25 27 27 28 27 27 26
40 41 42 41 41 41 40 42 38 39 41 43 43 42 45 45 44 43 43 42 43 42 41 38 35 31 29 27 23 23 24 24 24 25 25 26 27 29 28 30 30 26 25
39 39 40 41 40 38 37 36 37 38 39 41 41 41 43 44 43 43 41 40 38 35 33 31 28 25 27 26 26 27 29 30 32 33 33 33 33 33 32 29 27 27 23
33 34 38 36 34 33 36 37 37 37 37 38 40 41 42 41 38 37 36 35 31 29 27 27 28 29 30 31 32 32 32 32 33 33 33 32 31 30 29 27 23 22 23
28 29 28 29 29 31 33 34 35 35 34 32 32 31 32 33 30 29 29 29 30 29 30 30 31 32 32 32 33 34 34 33 32 31 30 30 30 31 29 27 25 23 23
25 23 24 26 28 29 29 30 32 31 31 31 30 30 31 33 32 33 32 31 31 31 32 33 34 35 36 38 37 35 33 33 32 30 29 26 25 26 26 26 27 26 25
23 22 23 25 28 32 33 32 32 32 32 32 32 33 33 33 33 33 34 33 34 34 34 35 36 36 38 39 39 36 32 30 25 19 20 20 21 25 23 26 27 27 29
26 23 23 24 26 31 32 34 35 35 35 34 35 35 35 35 34 34 34 34 34 34 34 33 33 33 35 38 35 32 28 21 20 20 21 21 22 24 25 24 25 26 26
25 25 26 25 27 28 30 31 32 33 34 34 35 35 35 34 34 33 33 33 33 32 32 32 33 33 34 35 32 24 20 19 19 20 21 23 23 25 27 25 26 26 24
28 29 30 31 31 32 33 33 33 34 34 35 34 35 34 34 33 33 32 33 32 32 32 31 31 31 20 24 24 25 20 19 20 22 22 25 24 26 27 26 23 20 19
33 34 34 34 33 34 34 33 33 34 35 35 35 34 34 33 33 32 32 32 30 24 17 16 16 18 22 24 28 27 22 23 23 22 21 22 27 27 28 25 20 21 23
33 34 35 35 35 35 35 34 33 35 35 34 33 33 33 35 34 31 25 15 13 14 14 13 14 15 16 24 25 25 24 24 22 22 22 23 26 25 23 22 24 25 24
33 32 35 35 35 36 35 33 34 36 34 34 33 32 23 18 16 15 14 12 12 12 12 11 12 15 17 19 25 25 24 24 23 23 24 23 22 21 21 23 24 22 18
32 33 34 34 34 35 35 35 34 33 28 21 18 16 15 14 13 12 11 10 10 11 11 12 14 15 16 17 19 21 21 23 22 20 17 18 19 20 20 19 18 18 18
33 27 30 32 32 33 32 29 21 19 18 18 16 13 14 14 15 16 16 15 11 13 13 14 15 15 16 18 22 22 21 22 21 18 14 14 15 16 16 17 17 18 18
21 23 25 24 23 23 20 18 19 18 16 14 13 14 14 15 17 18 18 23 22 22 23 22 19 18 20 22 23 23 22 22 22 15 14 15 16 16 16 17 17 17 18

GFSMW_sfc_dewp_057.txt.gz
Dewpoint
32 36 37 37 38 38 38 38 41 52 65 66 65 65 65 65 65 65 64 63 61 61 61 61 60 60 59 58 54 46 39 34 31 31 32 32 32 30 37 39 36 37 34
26 27 31 34 35 36 37 38 39 41 53 63 64 65 64 65 65 64 64 64 62 61 61 60 59 58 58 56 50 44 37 34 32 33 34 31 30 30 30 32 32 32 31
28 29 27 30 33 33 36 37 38 40 44 58 64 64 64 63 64 64 64 63 63 61 61 60 59 57 57 54 49 45 42 37 32 33 34 32 34 29 28 30 30 29 29
33 34 32 30 31 34 37 37 38 40 41 50 60 62 61 61 62 63 64 63 63 61 60 60 59 58 57 55 51 46 46 43 38 31 26 26 31 33 26 24 28 26 26
36 36 36 34 35 39 39 36 35 37 41 43 56 62 61 62 63 63 63 63 62 62 60 60 59 57 55 55 51 48 46 46 43 39 30 25 25 21 27 25 24 23 23
38 38 38 37 38 40 41 42 39 35 35 38 44 58 61 61 61 61 62 62 61 61 60 60 59 57 55 53 51 50 47 46 45 41 33 30 26 24 24 22 22 24 22
39 40 39 38 39 40 40 40 40 39 40 39 38 42 52 59 60 60 60 61 58 58 59 59 58 57 54 53 52 50 49 46 43 40 31 30 27 28 26 24 23 21 20
38 40 40 39 40 40 40 39 40 41 41 42 41 40 43 49 56 59 60 60 60 59 59 58 58 56 53 52 50 49 48 46 43 36 33 30 26 26 26 28 26 24 23
38 40 40 40 41 40 40 40 41 42 45 46 46 45 44 45 49 53 57 59 58 57 57 56 55 53 52 50 49 48 45 43 37 31 30 29 28 29 30 29 30 32 26
41 41 41 41 41 41 41 42 43 44 44 46 47 47 48 49 49 51 52 54 53 53 52 52 50 50 49 47 46 42 38 31 30 29 27 26 27 28 28 29 28 29 26
41 40 41 42 42 41 41 41 39 39 40 43 45 46 46 47 48 49 49 50 49 49 49 48 46 44 41 39 36 33 32 31 28 26 26 26 27 27 29 31 31 31 32
38 36 36 39 36 36 37 37 38 39 40 42 43 44 45 46 47 46 46 46 46 46 45 43 40 36 34 32 29 28 28 28 27 28 28 29 30 31 32 33 33 33 33
32 34 35 32 32 35 36 37 37 36 37 40 42 43 44 44 43 43 42 42 42 40 37 34 31 29 29 28 28 27 28 30 31 32 32 33 34 34 34 34 32 30 29
29 28 27 28 29 31 33 33 33 33 33 32 35 36 38 38 36 36 35 32 31 29 29 29 29 29 30 30 31 32 33 34 34 34 34 34 33 32 32 32 31 31 29
26 24 25 28 29 30 30 32 32 31 32 31 32 33 33 34 34 34 35 34 35 35 33 32 33 33 33 33 34 35 34 34 33 33 33 33 33 33 33 32 32 30 27
25 23 24 27 30 32 31 32 32 33 32 33 32 33 33 34 35 36 35 35 35 36 36 36 36 37 37 39 38 36 34 33 32 31 30 30 32 31 28 25 25 26 26
25 23 23 25 30 33 34 34 34 34 34 35 34 34 34 33 33 34 35 35 35 36 37 37 37 38 39 40 39 36 32 29 28 27 25 28 27 26 23 25 26 27 28
26 23 23 25 27 32 33 34 35 35 35 36 36 36 35 35 34 34 34 34 35 34 34 34 34 35 37 36 33 31 30 28 26 22 22 22 23 23 24 25 28 27 27
25 26 27 27 29 29 32 33 34 36 36 35 36 36 35 35 34 33 33 33 33 32 32 33 33 34 35 34 33 26 20 19 20 21 22 24 23 25 26 27 28 26 23
30 30 31 31 32 33 33 33 35 35 34 34 35 35 35 34 33 33 32 32 32 32 32 31 33 32 28 30 31 23 19 20 22 22 22 24 24 26 27 27 23 21 19
33 34 34 33 33 34 34 34 35 34 35 35 35 35 34 33 33 33 32 31 25 23 22 21 19 21 24 28 29 27 23 23 22 22 21 22 26 25 25 24 20 20 23
33 34 34 34 35 36 36 34 33 35 36 35 34 34 34 34 31 24 17 15 14 13 13 12 13 16 19 26 26 26 25 24 22 22 22 23 24 23 22 22 24 25 24
32 32 35 35 36 36 34 34 35 35 35 33 28 19 16 14 15 14 14 13 13 12 10 10 13 15 18 20 25 25 24 24 22 22 23 23 21 21 21 23 23 22 18
32 32 32 34 34 35 35 35 35 32 24 18 15 14 13 11 10 10 10 10 10 10 10 12 14 16 17 19 21 21 21 23 21 20 18 18 19 20 20 19 18 18 18
33 34 34 34 34 35 34 28 24 20 17 16 14 14 13 15 16 16 14 11 11 12 13 15 15 16 18 19 22 22 20 21 21 19 14 15 15 17 17 17 18 18 18
26 30 32 32 31 30 25 21 20 18 15 12 13 15 16 18 19 19 20 24 24 24 23 22 19 18 20 22 23 22 21 20 21 14 14 15 16 17 17 17 17 18 19

GFSMW_sfc_dewp_060.txt.gz
Dewpoint
33 33 33 34 35 37 38 39 40 42 49 58 65 66 65 66 66 65 66 64 63 62 62 61 60 59 59 60 61 59 54 49 48 40 39 36 35 32 35 39 38 38 38
28 28 28 30 31 33 35 37 39 41 42 49 59 63 63 64 65 65 65 65 64 64 63 62 61 61 59 59 60 59 53 51 45 46 46 42 36 32 32 35 36 35 35
31 32 31 32 34 33 35 36 38 40 41 44 50 59 62 64 64 65 65 64 64 65 64 63 62 62 61 59 60 59 54 50 44 45 46 45 45 36 33 32 34 33 33
36 36 36 37 37 41 41 37 37 38 40 43 45 53 57 58 60 60 62 63 64 64 64 63 63 63 62 60 60 58 56 54 46 41 37 36 37 38 32 30 31 31 30
39 38 39 39 40 43 44 43 39 35 38 40 44 48 55 55 57 59 61 61 64 63 63 63 62 62 62 61 59 57 55 55 50 46 40 36 33 30 33 34 28 29 29
41 41 41 41 42 45 44 43 41 40 40 37 41 45 50 54 57 59 61 62 63 63 62 62 62 62 61 60 60 58 56 54 54 48 42 38 38 34 34 33 29 28 27
41 42 41 41 43 44 44 42 42 41 42 42 40 39 43 49 56 58 59 59 61 61 61 61 61 61 61 60 59 57 56 55 53 50 45 40 34 33 33 34 28 25 22
41 42 42 43 44 44 44 43 42 42 44 45 45 44 43 42 44 48 53 55 56 59 60 60 60 60 59 58 57 56 55 54 53 51 47 39 34 33 34 36 29 24 23
42 42 42 42 43 43 43 44 42 43 43 44 46 46 47 48 47 47 48 51 54 57 58 59 58 59 57 56 54 54 53 52 51 47 42 38 32 31 32 31 34 37 30
40 39 39 42 42 41 42 42 41 41 42 44 45 46 48 49 50 51 51 50 51 53 55 56 57 55 54 52 51 51 50 49 44 40 36 36 34 32 29 30 31 31 31
38 38 39 39 38 39 40 39 40 41 42 43 45 47 48 48 49 49 49 50 51 51 52 53 52 51 50 49 47 43 41 38 37 37 35 33 33 31 32 33 33 33 33
35 38 36 35 36 37 38 38 38 38 39 42 44 45 46 47 48 48 47 47 48 48 49 48 47 45 42 39 36 34 32 30 30 31 30 31 32 34 35 35 34 35 34
34 33 32 32 33 34 35 36 35 34 35 37 39 40 41 42 41 40 40 41 42 42 41 40 38 35 34 31 31 29 29 30 31 33 33 33 34 34 35 34 34 33 33
31 31 31 31 32 33 34 34 33 33 34 35 36 36 36 35 34 36 35 33 32 31 30 30 30 30 30 31 31 32 32 34 35 35 35 35 35 34 33 34 34 34 31
29 28 29 31 32 33 34 34 34 33 34 34 35 35 35 35 35 35 35 35 36 35 35 33 33 33 33 34 35 35 35 34 34 34 34 34 35 36 34 32 32 31 30
27 26 27 29 33 34 35 35 35 34 34 34 33 33 34 34 35 37 37 36 37 38 37 38 38 37 38 39 38 36 34 34 33 31 32 33 33 32 32 31 31 29 27
28 27 26 28 32 34 35 35 35 35 35 35 34 34 34 34 35 35 35 36 36 37 37 37 37 37 39 40 38 35 32 31 30 27 28 27 29 28 24 26 26 26 27
28 26 26 28 30 32 33 34 36 36 37 36 36 36 35 34 35 35 35 35 35 34 34 33 33 33 36 37 36 32 30 29 25 23 23 22 22 22 24 23 27 27 26
26 27 27 29 30 31 32 34 35 34 36 36 36 36 36 35 35 34 33 32 32 32 32 33 34 34 34 32 30 23 22 24 24 23 23 22 21 23 26 26 30 25 23
29 29 30 31 31 32 32 33 34 34 35 35 36 36 35 34 33 33 33 33 33 32 34 33 33 32 32 33 27 22 21 20 21 21 20 23 24 26 26 26 23 22 19
31 32 32 32 33 33 35 35 35 35 36 36 36 36 36 34 34 33 34 31 27 25 24 22 23 26 27 28 28 26 22 21 21 21 20 21 25 25 24 24 21 19 22
32 33 33 34 35 36 36 35 34 36 36 36 35 35 35 30 26 23 19 17 15 14 13 13 14 17 23 25 26 26 26 24 21 20 20 21 24 22 22 22 23 25 25
32 33 34 34 35 36 37 35 35 36 35 32 27 21 16 15 16 17 17 13 12 10 7 7 11 14 18 20 24 24 24 24 21 20 22 22 20 21 20 22 24 24 20
32 31 33 34 34 36 36 36 35 33 26 18 14 13 12 11 11 10 10 8 6 6 7 10 13 15 17 20 21 21 20 22 20 21 20 17 19 20 21 19 19 19 19
32 32 35 34 35 36 36 34 31 24 17 15 14 13 12 12 14 15 12 10 13 14 12 15 15 16 17 19 23 22 20 21 20 22 13 14 16 17 17 18 19 19 19
34 35 34 35 36 35 31 29 25 19 15 13 12 13 14 17 18 19 21 25 25 24 23 22 19 18 21 22 23 22 22 21 21 13 13 16 18 18 18 18 19 20 21

GFSMW_sfc_dewp_063.txt.gz
Dewpoint
29 33 34 34 35 36 38 38 39 40 41 49 55 65 66 66 65 66 65 64 63 61 63 63 61 60 59 59 61 60 59 56 54 51 45 45 42 39 41 42 42 42 43
30 29 30 30 31 32 34 37 38 39 40 43 48 62 63 64 65 66 66 66 65 64 63 63 62 61 60 60 60 59 58 56 54 49 48 46 43 39 38 39 39 39 40
30 31 32 34 35 35 37 35 37 40 42 44 44 49 61 63 63 65 65 65 64 65 65 64 63 63 62 60 60 60 59 56 53 50 50 48 48 41 39 37 38 38 38
34 35 35 37 38 42 45 40 38 38 39 43 43 45 49 56 59 59 61 63 63 64 64 65 63 64 63 62 61 60 60 58 53 49 49 50 43 45 37 38 36 37 34
38 37 39 40 42 45 46 44 41 37 38 40 41 43 45 50 56 57 57 58 61 63 64 62 64 63 63 63 62 61 60 59 55 50 50 47 43 39 39 35 34 34 34
39 40 41 41 42 46 46 45 42 40 41 40 40 42 46 47 52 54 56 58 60 62 63 62 62 63 63 62 62 62 61 59 58 52 51 47 45 41 39 42 37 35 32
39 41 41 42 44 45 46 44 43 41 42 44 43 40 41 44 48 52 55 56 58 60 62 62 62 62 62 62 61 61 60 58 57 57 51 48 48 45 43 44 35 34 30
40 42 42 43 44 44 45 44 43 43 43 43 44 44 45 43 42 43 46 50 53 54 56 61 60 60 61 61 60 60 59 57 57 56 55 51 43 41 41 42 40 38 33
41 40 40 41 43 42 42 43 43 42 42 43 44 45 46 48 49 49 48 47 47 50 53 57 58 59 60 60 59 58 57 56 56 55 50 44 41 41 40 40 41 41 33
40 39 39 41 40 40 41 41 41 41 42 43 44 45 47 48 49 49 50 50 50 51 52 54 54 57 58 57 56 55 54 53 50 45 42 39 38 37 37 37 36 37 36
38 38 39 38 39 40 40 40 39 40 41 43 44 45 46 47 48 48 48 48 49 50 50 51 51 53 53 52 51 48 49 43 40 39 41 37 37 37 36 36 36 36 36
37 37 37 36 37 37 37 38 37 37 37 40 41 42 43 43 43 42 42 43 44 45 46 47 48 47 46 44 41 41 38 37 38 35 35 35 36 37 36 37 36 36 35
35 35 34 34 35 35 36 36 35 35 36 37 38 38 38 38 38 37 36 35 34 33 33 35 35 36 36 36 35 32 33 33 34 34 34 35 36 36 36 35 34 34 34
33 34 34 34 34 34 36 36 35 35 36 36 37 37 37 36 36 36 36 35 35 33 33 33 33 32 32 33 32 33 33 34 35 35 35 36 36 35 34 34 33 34 33
31 31 32 33 34 35 36 36 36 35 35 35 35 35 36 37 37 37 37 37 36 36 36 36 36 35 35 35 35 35 35 34 34 34 35 35 36 36 35 33 32 31 30
30 29 30 31 34 35 36 36 36 36 35 34 34 34 35 35 36 36 37 37 37 36 37 37 38 38 38 39 38 35 34 34 32 32 33 33 33 33 33 33 31 30 29
30 30 29 30 33 34 35 35 35 36 36 35 34 34 34 34 35 35 36 36 35 35 35 35 34 33 35 39 38 36 33 32 31 32 32 30 30 27 25 26 26 26 27
30 28 28 30 31 32 33 34 36 35 35 35 35 35 35 35 36 35 35 35 35 35 34 33 33 34 35 37 36 35 32 31 28 25 23 22 22 23 24 24 28 28 27
29 28 29 30 31 31 32 34 34 35 34 36 35 36 36 35 35 34 34 33 33 33 33 33 34 34 30 29 26 23 24 24 23 22 23 22 20 25 27 27 30 27 25
29 30 30 30 31 31 32 33 33 35 35 35 36 36 36 35 34 33 33 34 34 33 33 34 34 33 28 29 28 22 19 18 20 20 21 24 25 26 27 25 25 23 21
32 32 31 31 32 33 34 33 35 35 36 36 36 36 36 35 35 34 34 33 28 26 24 23 24 25 26 26 28 27 23 22 21 21 20 21 25 25 25 24 22 21 22
33 32 32 33 34 35 34 33 34 36 36 36 35 36 34 31 27 26 21 19 14 13 13 13 14 18 22 27 27 27 26 25 21 19 20 22 25 22 22 23 23 25 25
33 33 34 34 35 36 36 35 35 36 35 33 30 22 16 17 18 20 19 14 11 8 6 8 12 15 18 20 23 23 24 24 21 21 23 22 20 20 22 21 24 24 21
32 32 33 34 35 36 37 35 35 34 30 22 15 14 14 13 12 10 13 10 5 5 7 10 12 15 17 20 21 22 21 20 21 22 22 17 19 21 21 21 20 20 20
32 32 33 34 35 36 35 35 33 29 20 14 14 13 12 11 13 15 14 11 18 19 13 16 16 16 17 20 23 23 21 22 22 22 16 14 16 18 18 19 20 20 20
32 32 34 34 35 36 35 33 30 24 16 13 13 13 15 15 17 18 21 26 25 24 23 23 21 19 20 23 24 24 23 23 21 18 12 16 19 19 19 19 20 22 23

GFSMW_sfc_dewp_066.txt.gz
Dewpoint
30 32 33 33 33 35 37 37 39 41 42 44 53 65 66 66 66 66 66 66 63 62 62 62 62 60 58 58 61 60 59 57 53 49 46 44 41 40 42 43 43 43 44
30 30 30 30 31 32 34 37 38 40 41 43 45 58 65 65 64 65 65 66 66 64 63 62 62 62 60 59 59 60 59 58 55 50 45 42 43 41 39 41 41 41 43
30 31 33 35 38 42 43 40 38 39 40 43 45 46 62 63 63 63 64 64 65 65 64 63 62 62 62 61 59 60 59 58 57 51 48 47 45 40 40 37 40 39 40
34 35 37 38 41 44 46 45 39 38 38 40 42 43 45 53 60 63 65 65 64 64 64 63 64 63 63 62 61 61 60 58 56 55 49 51 46 41 36 38 37 38 37
36 38 39 41 44 46 46 45 43 40 39 39 41 42 43 45 48 56 58 58 59 63 63 62 61 61 63 63 62 62 60 60 59 54 51 51 49 39 39 36 36 37 38
39 40 41 42 44 46 46 46 44 42 42 42 40 40 42 43 45 50 54 56 58 60 62 62 62 62 62 62 62 62 61 61 60 57 53 51 50 47 43 43 39 39 37
40 41 42 43 44 45 45 45 44 43 44 44 44 44 42 41 42 45 50 53 56 58 60 61 60 61 62 62 62 62 61 60 59 58 53 53 52 52 47 48 41 39 35
41 41 42 42 43 43 43 43 44 43 43 43 44 45 46 48 47 48 47 47 47 50 52 58 59 60 61 61 61 61 60 60 59 58 57 53 49 47 48 48 42 38 36
41 40 39 42 41 40 41 41 41 42 43 43 44 46 47 48 48 49 50 50 50 50 51 53 54 58 59 59 59 59 59 58 57 57 55 47 44 44 44 44 44 44 36
39 39 40 39 39 40 41 40 40 41 42 43 44 46 47 47 48 48 48 48 49 50 50 50 51 52 53 56 56 56 55 54 50 48 45 43 41 40 40 40 41 41 39
38 38 38 38 39 39 39 38 38 38 39 41 43 43 43 44 43 42 42 42 44 45 45 47 49 49 49 50 50 49 49 45 42 42 41 40 40 39 39 40 40 39 38
37 37 36 36 37 37 37 36 36 36 37 38 39 39 38 38 38 38 36 35 34 34 34 35 36 37 37 39 41 40 40 41 39 39 38 38 37 38 39 38 38 37 36
36 35 35 34 35 35 36 36 35 35 36 37 37 37 37 36 36 36 36 35 34 33 33 33 32 33 34 33 34 35 35 36 37 37 37 37 37 37 37 37 35 34 34
34 34 34 34 34 35 36 36 35 35 36 36 36 36 36 36 37 37 36 36 35 35 34 34 34 35 35 35 35 35 36 36 36 36 37 36 36 36 34 34 33 34 33
32 32 33 33 34 35 36 36 36 35 36 35 35 35 36 37 36 38 37 36 36 37 37 37 37 37 36 35 35 35 35 34 34 35 36 36 37 37 36 34 33 32 31
32 30 30 32 35 36 36 36 36 36 36 34 34 35 35 35 35 35 36 36 35 36 35 35 37 37 38 39 38 35 33 33 33 32 32 33 35 36 36 33 32 31 30
31 30 30 32 34 35 35 35 36 36 35 35 34 34 34 34 35 35 36 35 35 35 35 34 34 34 37 39 38 36 32 32 32 32 32 31 31 31 30 28 26 26 27
31 29 30 31 33 33 34 35 36 35 35 34 34 34 34 34 35 35 35 34 34 34 33 33 33 34 34 35 35 34 32 32 31 30 27 26 25 24 27 26 28 27 26
30 29 30 31 31 32 34 34 34 34 34 34 34 34 33 35 35 33 33 33 33 33 32 33 29 28 28 29 27 28 28 28 26 24 24 24 24 26 27 28 28 26 23
29 29 30 31 31 31 33 33 34 35 35 35 35 34 35 34 33 33 33 33 32 30 29 31 29 30 27 30 28 24 20 20 21 21 22 25 26 27 28 25 23 21 19
31 31 31 31 32 34 34 33 34 34 36 36 36 35 35 34 34 33 29 27 27 26 23 23 23 25 25 26 29 28 24 24 22 20 19 21 25 25 24 24 22 20 22
33 33 32 33 34 35 35 34 34 36 36 35 35 34 34 33 32 27 24 18 15 14 15 15 16 18 25 26 26 26 26 26 21 20 21 23 24 22 22 22 24 26 26
33 33 34 34 35 35 35 34 35 36 35 34 31 27 22 21 21 19 16 12 9 7 7 10 14 16 18 21 23 23 22 23 22 22 22 21 19 21 22 21 24 24 21
33 33 33 32 34 36 36 36 35 35 33 27 17 15 15 15 13 12 12 9 8 7 9 11 13 15 17 21 23 23 22 25 23 24 23 18 18 19 21 21 20 20 20
33 33 33 33 34 36 35 34 35 33 25 15 14 14 13 10 16 22 21 16 22 22 15 17 16 16 18 22 24 24 22 22 23 22 18 13 16 18 19 19 19 20 20
33 32 33 33 33 34 34 34 33 28 16 14 14 14 14 15 18 21 23 26 25 24 23 22 20 21 20 23 24 24 23 24 22 19 14 15 19 20 20 20 21 22 23

GFSMW_sfc_dewp_072.txt.gz
Dewpoint
30 32 31 31 32 38 37 37 37 38 56 63 63 62 63 63 63 64 65 66 65 64 62 61 60 60 58 59 60 59 58 58 55 52 50 47 46 43 44 43 46 56 56
29 30 34 40 41 42 42 39 37 37 39 43 47 63 63 63 64 64 64 64 64 64 64 62 61 61 60 59 59 59 57 58 56 54 49 49 46 44 42 43 43 45 54
30 35 39 41 42 43 43 43 42 37 38 39 42 44 60 61 62 61 62 64 64 64 63 63 62 61 60 59 58 59 58 58 56 55 53 46 46 44 43 41 41 42 45
34 37 39 41 42 44 44 43 42 39 38 39 39 40 42 48 56 58 60 62 62 63 62 62 62 62 60 60 60 59 59 58 58 56 56 53 50 46 45 42 46 46 47
37 38 41 43 45 45 45 44 43 43 44 44 40 40 40 43 45 45 47 52 58 61 62 62 61 60 60 59 59 59 58 58 59 56 54 55 54 50 46 47 45 47 48
38 39 43 45 45 45 44 44 44 44 44 45 46 45 42 41 43 44 45 46 51 54 54 58 60 60 59 59 59 61 59 58 59 59 58 55 52 52 51 46 44 44 45
39 41 43 44 43 42 43 43 42 43 44 45 46 47 47 47 47 48 48 48 49 50 51 54 56 57 58 59 59 60 59 59 59 59 59 57 56 55 53 51 47 44 42
41 42 42 42 41 41 41 41 42 43 43 44 46 47 47 48 48 47 48 47 48 49 49 50 52 52 53 54 55 56 56 57 55 56 55 55 56 55 54 52 49 42 40
41 40 41 39 40 40 40 41 41 41 43 45 45 44 45 44 43 42 43 44 44 45 47 48 48 49 49 50 51 51 51 51 54 52 52 51 47 47 48 48 48 48 43
39 40 39 39 40 40 38 38 38 39 40 40 40 40 39 38 37 36 35 35 35 36 40 42 41 41 42 45 46 46 48 49 46 46 44 44 42 43 43 44 45 44 43
39 39 38 39 39 38 36 36 36 38 39 38 37 37 37 37 36 36 35 34 34 34 34 35 35 35 36 38 40 41 42 43 42 42 41 40 40 40 41 41 41 41 40
39 38 37 38 37 36 35 35 36 37 37 37 36 36 36 36 36 35 35 34 34 34 34 34 34 34 35 36 37 37 38 39 39 39 39 39 39 39 39 38 38 37 38
38 37 36 36 36 36 35 35 35 36 37 37 36 37 37 37 36 36 36 36 36 35 35 35 35 35 36 36 36 36 36 37 37 38 37 37 37 37 36 36 35 35 35
37 36 35 35 35 36 35 35 35 35 36 36 36 36 36 37 37 36 36 37 36 36 36 36 36 35 35 35 35 35 35 36 36 36 36 36 36 35 34 34 35 34 33
35 35 34 34 35 35 36 35 35 35 35 35 35 35 36 36 36 36 36 36 36 36 37 37 35 35 35 34 33 34 34 34 34 34 36 37 38 38 36 34 33 33 32
34 34 34 34 35 36 36 36 36 35 35 34 34 35 35 35 36 36 37 36 35 35 36 36 37 36 36 37 37 33 31 31 31 32 33 33 33 33 36 35 35 33 32
33 32 33 34 36 36 36 35 35 35 34 34 34 35 36 35 36 36 35 35 34 34 34 35 36 36 35 37 36 34 29 28 26 26 27 29 29 29 28 28 28 29 29
34 30 31 35 36 35 35 35 35 35 35 35 35 36 35 36 36 35 34 33 32 32 31 29 26 26 31 32 31 32 22 23 24 24 23 23 24 26 27 27 27 26 25
33 31 32 34 34 35 35 35 35 35 34 34 35 34 35 35 34 33 33 33 32 25 24 22 23 25 26 29 29 27 24 22 22 23 24 24 25 28 29 25 23 22 20
30 30 32 32 33 35 35 34 34 34 34 34 34 34 35 35 34 33 33 32 31 28 26 25 24 29 26 30 28 24 21 21 20 20 20 27 26 27 26 23 22 20 20
30 31 31 31 32 34 34 33 33 35 35 35 35 35 35 34 33 32 26 22 23 25 23 24 23 24 25 25 27 27 24 21 21 20 20 22 27 24 23 23 21 21 22
32 32 31 32 34 34 33 33 34 36 36 36 35 35 35 34 32 28 28 25 21 20 18 18 18 21 22 25 25 25 24 24 20 20 21 22 23 21 22 22 24 25 25
32 32 32 32 33 34 34 34 36 36 36 35 34 32 32 31 29 26 24 18 15 13 12 12 14 16 18 21 27 26 26 26 21 22 24 25 21 21 21 23 24 24 20
32 33 33 32 32 33 35 36 36 35 34 34 31 30 28 24 21 17 16 11 8 8 8 11 13 15 18 21 22 23 22 24 23 23 22 20 19 20 21 20 20 20 20
33 33 33 32 33 34 34 36 36 35 33 32 29 22 19 20 13 11 11 12 15 10 10 13 14 16 17 20 25 24 23 23 24 22 18 13 17 19 19 20 20 21 22
33 33 33 33 33 34 34 35 35 35 32 28 20 16 15 14 19 24 23 24 26 26 24 24 20 19 21 23 24 24 24 24 24 19 15 14 19 19 19 20 20 21 22

GFSMW_sfc_dewp_075.txt.gz
Dewpoint
31 32 32 32 38 37 36 37 42 43 59 63 62 62 62 63 63 64 65 65 64 61 60 60 60 59 58 58 59 58 58 57 56 54 53 50 50 48 47 46 44 51 56
29 30 36 39 40 41 40 37 37 37 39 49 57 63 63 63 63 63 63 64 64 63 63 62 61 60 60 59 58 58 57 57 56 55 50 53 51 46 47 45 44 44 54
29 34 38 40 42 42 42 42 40 37 38 38 42 45 59 61 62 62 62 62 63 63 63 63 63 62 60 59 58 57 57 58 55 55 55 47 48 46 46 43 43 43 47
31 36 39 41 42 43 43 43 41 40 40 39 39 40 43 56 56 54 55 53 59 61 62 62 62 61 60 59 59 58 58 56 57 54 55 54 50 49 48 44 45 46 45
34 37 40 43 45 45 44 43 44 44 45 44 40 40 40 43 44 44 45 48 53 55 57 60 60 60 59 59 59 58 57 58 58 57 56 56 54 50 50 51 50 46 47
36 39 43 45 44 44 44 43 43 44 45 47 47 44 42 43 45 47 46 47 50 51 52 55 57 58 58 58 58 58 57 57 58 59 58 56 54 53 50 49 51 47 46
38 41 44 44 43 42 42 42 43 43 44 46 47 47 47 46 46 47 47 48 49 49 49 51 53 54 56 57 57 57 57 57 57 58 58 57 56 56 54 52 51 46 44
40 42 44 43 41 41 41 41 42 43 44 46 46 46 47 46 46 45 46 45 46 47 47 49 49 50 50 52 53 53 54 52 54 54 55 56 55 54 54 52 50 45 42
41 42 42 40 40 40 40 41 41 43 44 43 42 40 40 39 38 37 38 38 37 40 43 44 44 44 45 47 48 49 49 51 50 49 49 49 46 46 47 48 49 48 45
41 41 40 39 40 39 39 38 39 40 40 39 39 38 37 37 36 35 34 34 34 35 37 38 37 38 39 42 43 43 47 47 45 45 44 43 42 41 43 44 44 44 44
40 40 39 39 39 37 36 36 38 39 38 37 37 36 36 36 36 35 34 34 34 34 34 35 35 36 36 38 39 39 42 42 41 41 40 40 40 41 41 41 41 40 40
39 39 38 39 37 36 35 35 37 37 37 37 36 36 37 36 35 35 35 35 34 35 35 35 35 35 36 36 36 36 38 38 39 39 39 39 39 39 39 38 38 37 37
39 37 38 37 36 36 35 35 36 37 37 37 36 37 36 36 35 35 36 36 35 35 35 35 35 35 35 35 35 35 36 37 37 37 37 37 37 36 35 35 33 34 35
38 37 36 36 36 36 35 35 35 36 36 36 36 36 37 36 36 37 36 36 36 36 35 35 35 34 34 34 35 35 35 35 35 37 36 36 35 34 32 33 34 34 34
37 36 35 35 35 35 35 35 35 35 36 35 35 35 36 36 36 36 36 35 36 36 37 35 35 35 35 34 33 34 34 34 34 34 35 36 37 37 35 32 32 31 30
37 36 35 34 35 35 35 35 35 35 35 35 35 35 36 36 36 36 36 35 35 36 36 37 37 37 37 37 36 32 30 30 32 30 29 30 30 31 34 33 32 33 31
37 35 34 34 35 36 36 36 35 34 34 34 34 35 36 35 36 35 35 35 34 35 34 34 34 34 36 37 36 33 26 25 22 22 24 26 27 28 27 29 31 31 31
36 34 34 35 36 36 36 35 35 34 34 34 35 36 35 36 35 34 34 33 33 31 29 26 25 25 30 31 31 30 19 20 23 23 23 24 25 28 26 25 25 25 21
37 33 32 35 36 35 35 35 35 35 35 35 36 35 36 35 34 33 33 32 27 23 21 20 23 24 27 29 29 24 21 21 22 21 24 24 25 28 28 24 23 21 20
33 32 33 34 35 35 35 34 34 34 34 34 35 35 36 35 34 33 32 31 25 21 23 24 23 29 25 29 28 24 21 21 20 20 20 28 26 26 25 22 21 20 20
31 32 33 33 34 35 34 33 33 33 35 35 35 36 35 35 33 32 30 30 29 29 23 23 22 23 24 24 27 27 22 21 20 20 21 22 25 23 23 24 21 21 23
32 32 32 32 33 34 34 32 32 35 36 35 35 35 34 34 32 31 27 25 24 22 20 20 20 20 21 26 26 25 25 24 20 19 21 22 25 21 23 23 24 26 23
32 32 32 32 33 34 34 33 35 36 36 35 35 34 33 32 31 27 26 23 20 18 15 13 14 15 18 20 28 26 25 26 21 21 24 25 23 21 21 22 24 24 20
32 32 32 32 32 33 34 34 36 36 35 34 33 32 32 29 27 25 22 19 15 13 9 10 13 14 16 20 22 23 22 24 23 24 22 21 20 20 21 20 20 20 20
32 32 32 32 32 33 33 34 36 35 34 33 32 30 29 28 21 17 14 12 9 10 8 11 13 14 15 19 23 25 23 23 24 23 17 13 16 19 19 20 20 21 21
33 33 33 33 33 34 33 35 36 35 33 32 31 27 22 20 16 15 20 22 21 26 25 22 18 17 20 21 25 26 25 25 24 20 17 14 18 19 19 20 20 20 21

GFSMW_sfc_dewp_078.txt.gz
Dewpoint
32 32 34 34 37 37 39 44 60 60 63 62 62 62 62 62 63 64 64 64 61 60 61 61 60 58 58 58 57 57 56 56 55 54 55 53 53 52 52 53 48 46 50
30 30 33 34 38 39 38 37 38 39 44 57 61 62 62 62 62 62 63 63 64 63 62 60 60 59 59 58 58 57 56 57 55 57 54 54 54 50 49 49 47 46 49
31 30 36 38 40 41 41 40 38 37 38 39 42 46 57 60 60 62 61 61 62 63 63 63 62 61 60 59 58 57 57 57 54 55 57 52 51 48 49 45 45 44 45
30 32 37 40 41 42 42 41 41 41 40 39 39 39 44 53 55 52 50 50 55 58 60 61 61 61 60 59 59 58 57 57 58 56 56 56 53 52 51 48 46 46 45
31 34 39 41 43 43 43 43 44 45 45 44 40 40 40 42 43 43 44 46 52 53 54 56 59 60 59 59 59 58 57 56 58 57 56 56 55 52 51 52 52 48 47
32 36 41 45 44 44 43 43 44 45 47 47 47 43 41 44 45 47 47 48 49 50 50 52 54 58 59 58 58 57 57 57 58 58 57 55 55 53 51 50 50 50 50
34 39 44 44 43 43 42 42 43 44 46 46 47 47 46 46 46 47 47 47 47 47 47 49 49 52 54 56 58 58 58 57 58 58 57 56 56 56 54 53 51 49 46
37 42 44 43 42 41 41 42 43 43 45 45 45 45 45 45 44 43 44 42 44 44 45 46 46 46 48 51 53 54 53 52 54 53 51 53 51 51 52 52 50 46 44
39 42 43 41 40 40 41 42 42 43 43 42 40 38 38 37 36 36 36 36 36 38 39 40 40 41 43 45 47 49 50 50 49 48 48 48 46 46 46 47 48 48 44
41 42 41 40 40 40 40 40 41 41 39 39 38 37 37 36 35 35 35 34 34 35 36 36 37 38 39 42 42 43 47 46 45 45 44 44 43 40 40 43 44 44 44
41 41 39 40 39 38 37 38 39 38 37 37 37 36 36 36 35 35 35 35 35 35 35 35 36 36 37 38 39 41 43 42 42 41 41 40 41 41 40 41 41 40 41
40 40 39 39 37 36 36 36 38 38 37 36 36 36 36 36 35 35 35 35 35 35 35 35 35 35 36 35 36 37 39 39 39 39 39 39 39 38 38 38 37 37 37
40 38 39 38 37 36 35 36 37 37 36 36 36 36 35 35 34 35 35 35 35 34 34 34 34 34 35 34 35 36 37 37 37 37 36 36 36 36 36 35 34 34 34
39 38 38 37 37 35 35 35 36 36 36 36 35 35 35 36 36 36 35 36 36 35 34 34 34 34 33 35 35 35 35 36 36 37 36 36 35 34 33 31 30 32 31
38 37 37 37 36 35 35 35 36 36 36 36 35 35 36 37 36 36 36 36 36 37 36 35 35 35 35 34 34 34 35 34 34 33 33 35 37 36 35 31 30 29 28
38 37 36 36 36 35 35 35 35 35 36 35 35 36 36 36 36 36 36 35 36 36 37 36 37 37 36 37 36 33 32 31 28 26 26 28 29 30 32 33 33 31 27
38 37 36 35 35 35 35 35 35 35 35 34 35 35 36 36 36 35 35 34 35 35 33 33 34 35 36 36 33 31 25 23 20 20 23 27 28 28 26 29 30 29 31
39 37 36 35 35 36 36 35 35 34 34 34 35 36 36 36 35 34 34 33 32 31 29 26 25 26 30 31 30 29 19 20 22 23 23 24 25 27 25 24 24 22 22
37 37 35 35 36 36 36 35 34 34 34 34 35 36 36 35 35 34 33 32 30 22 22 22 23 24 27 30 28 24 21 21 20 20 24 24 25 27 28 23 23 21 20
37 33 34 35 36 35 35 35 34 34 34 35 36 35 36 35 34 33 32 31 25 23 23 25 23 29 24 29 28 23 21 20 20 20 20 28 26 26 25 22 20 20 20
33 33 34 35 35 35 35 34 33 33 35 35 36 36 36 35 34 33 31 25 26 26 23 22 21 22 24 24 28 27 21 20 20 20 20 21 25 23 23 25 21 23 24
33 33 33 33 34 35 34 33 33 34 35 35 35 35 35 34 33 31 29 28 27 23 21 20 20 21 21 26 27 26 26 25 20 19 21 22 27 22 22 24 24 26 23
32 33 33 32 32 33 33 32 32 34 34 35 35 34 34 33 32 29 27 23 22 21 18 16 14 15 18 19 28 27 25 26 22 21 23 25 23 21 21 22 24 24 20
32 32 32 32 32 32 33 33 34 35 35 34 34 34 33 32 30 28 27 23 20 17 14 12 12 14 15 18 21 22 22 23 23 23 22 21 19 20 22 20 20 20 20
32 32 31 32 32 33 33 34 35 36 35 34 33 33 33 33 27 26 23 21 17 16 11 10 11 13 14 16 22 23 23 23 24 24 18 13 15 18 19 19 20 21 21
33 32 32 32 32 33 33 34 35 35 35 33 32 32 31 28 24 20 16 23 22 22 23 20 16 15 19 20 24 27 28 25 26 21 18 15 16 18 18 19 19 20 21

GFSMW_sfc_dewp_081.txt.gz
Dewpoint
38 33 34 38 42 45 54 61 63 64 65 64 64 64 64 65 65 66 65 64 62 62 63 63 62 61 60 60 60 59 59 59 59 57 58 58 57 57 57 59 57 55 54
34 33 33 35 38 39 42 45 58 57 62 63 64 64 64 64 64 65 65 65 65 65 63 62 62 62 61 60 60 59 59 59 60 59 57 56 55 55 55 54 53 52 51
34 33 32 36 40 40 40 39 40 42 43 48 50 51 60 62 64 64 64 63 63 64 65 65 63 62 62 61 61 60 60 60 59 59 58 54 52 51 54 50 48 47 48
34 34 34 38 40 42 44 41 41 41 41 41 42 44 49 55 58 55 51 51 55 57 59 62 63 64 64 63 63 62 61 60 59 58 58 59 56 55 53 53 50 48 48
35 33 35 40 42 44 44 45 46 46 46 43 42 42 42 44 45 45 45 47 52 52 53 56 58 61 62 62 62 62 61 60 60 59 58 57 57 56 55 52 55 52 51
35 34 38 43 44 45 45 46 46 47 48 48 47 44 44 45 46 48 48 49 50 50 50 51 54 57 59 60 61 61 61 60 60 59 59 57 56 54 54 52 53 53 53
34 34 40 44 44 44 44 45 45 46 47 47 47 48 48 48 48 48 47 47 48 48 48 49 50 51 52 55 58 60 60 59 59 59 59 58 57 56 55 54 53 52 49
33 37 42 44 44 43 43 44 44 45 46 46 46 46 46 45 44 44 43 41 42 43 43 44 45 45 47 50 54 55 54 55 54 53 53 54 51 51 52 53 51 49 47
35 39 43 43 42 42 43 43 44 45 44 43 41 39 39 39 38 37 37 37 37 37 39 40 40 42 44 46 49 51 51 51 51 50 49 49 46 46 47 48 49 49 46
38 42 42 41 41 41 42 43 44 43 41 40 39 38 37 37 36 36 36 36 35 36 37 38 38 39 41 43 45 48 47 47 47 46 46 45 43 44 44 46 46 47 47
41 42 41 40 40 40 40 41 41 40 39 39 38 37 37 36 36 36 35 36 36 36 36 37 37 38 38 40 43 44 44 43 43 43 42 42 42 42 42 42 42 42 43
42 41 40 39 38 38 38 39 39 38 38 37 37 37 36 36 36 36 36 36 36 36 36 36 36 36 37 37 39 40 40 40 39 39 39 39 39 38 38 38 38 38 39
41 40 39 39 37 37 36 37 38 37 37 37 37 36 36 36 36 36 36 35 35 35 35 35 35 36 36 37 37 37 37 37 37 37 37 37 37 37 37 36 37 37 36
40 39 39 38 37 36 36 36 37 37 37 37 37 36 36 36 36 36 36 36 36 35 35 34 34 35 36 36 36 36 36 37 37 37 36 35 35 35 35 34 34 34 35
39 39 39 38 37 36 35 36 37 37 37 37 36 37 37 37 37 36 36 37 37 36 35 35 35 35 35 35 35 36 35 35 34 34 34 37 37 37 35 33 32 31 30
39 39 38 38 37 36 35 35 36 36 37 36 36 36 37 37 37 36 36 36 37 37 36 37 37 37 36 38 37 35 33 32 32 31 32 32 31 33 35 34 33 31 27
39 39 38 38 37 36 36 35 35 36 35 35 36 36 36 36 36 35 35 35 35 35 34 35 36 36 36 36 34 31 28 27 28 29 30 29 28 27 27 29 29 31 31
39 39 39 37 37 36 36 35 35 35 35 35 35 36 36 36 35 35 34 34 33 32 31 31 32 34 32 31 30 29 27 27 26 25 26 28 28 28 24 24 25 25 27
38 39 38 37 36 36 36 35 34 34 34 35 35 36 36 35 35 35 34 33 32 30 28 29 30 31 30 30 28 24 23 22 22 24 25 25 26 27 27 23 24 21 21
37 37 36 36 36 36 36 35 34 34 34 35 36 36 36 35 35 34 33 32 29 28 29 29 28 30 27 29 27 23 20 19 19 19 22 28 25 25 28 20 20 20 21
36 35 35 36 36 36 36 35 35 35 35 36 37 36 36 35 35 33 32 29 28 27 26 25 24 24 25 27 29 26 20 19 18 18 19 20 24 23 25 24 24 25 25
35 34 35 35 36 36 36 35 35 36 36 36 36 36 36 35 34 32 30 28 28 26 23 22 22 22 22 27 28 29 26 24 19 18 21 23 27 22 23 24 25 28 24
33 34 34 34 35 35 35 34 34 35 35 35 35 35 35 34 33 31 30 28 27 25 23 19 18 17 18 20 28 28 27 29 21 21 23 25 22 22 22 23 25 26 20
32 32 33 33 33 34 34 34 34 35 35 34 35 34 34 32 32 30 30 27 25 23 19 15 13 14 14 17 20 23 24 25 24 24 24 22 20 22 22 22 22 20 20
33 32 32 32 33 33 34 33 35 35 35 34 34 34 33 33 31 30 28 26 23 21 17 15 13 12 13 14 21 22 22 22 23 24 21 15 13 16 18 19 20 21 21
33 32 32 32 32 33 33 34 35 35 35 34 34 33 33 33 31 30 27 30 28 27 27 24 16 12 18 20 24 27 27 29 28 23 20 18 16 15 16 17 18 20 22

GFSMW_sfc_dewp_084.txt.gz
Dewpoint
42 43 37 37 53 61 64 65 65 65 65 65 65 66 65 66 66 66 66 65 65 64 63 63 63 63 62 61 61 61 61 61 61 59 59 59 59 58 57 57 57 57 58
42 42 36 35 42 54 57 62 64 65 65 65 65 65 65 65 65 66 66 66 66 66 65 65 64 64 63 62 62 62 61 61 61 60 60 56 51 52 56 56 55 55 55
41 41 38 35 39 43 48 51 57 62 64 64 64 63 64 65 65 65 65 65 65 66 66 66 65 65 64 64 63 62 62 61 62 61 59 56 50 53 54 54 53 52 51
42 42 37 35 37 41 45 44 44 48 49 50 56 60 61 62 62 62 60 58 57 58 60 62 63 64 65 64 64 65 64 63 62 61 60 60 58 55 52 54 54 52 52
41 38 37 38 40 44 46 44 43 44 43 42 43 44 44 46 47 47 48 49 53 53 54 56 58 60 62 63 63 64 63 62 61 60 59 59 59 58 56 53 54 55 53
40 38 39 39 41 46 46 47 46 46 47 46 43 43 44 43 44 46 47 48 50 51 51 52 55 57 58 59 61 62 62 62 61 61 59 58 57 56 55 53 53 53 54
38 37 37 39 42 45 46 46 46 46 47 48 48 48 48 48 47 48 48 48 48 49 49 50 51 53 54 55 58 60 61 61 60 60 59 59 58 57 56 54 53 52 52
34 37 37 39 42 44 45 45 45 46 46 47 47 47 48 47 47 47 46 44 45 45 45 46 47 47 49 52 55 57 57 58 58 56 55 54 52 52 52 53 52 50 50
32 34 36 40 42 44 44 44 45 46 46 45 44 43 43 43 42 41 42 41 40 39 41 42 43 44 45 47 51 54 54 53 53 52 52 50 49 48 48 49 50 50 47
32 34 38 42 43 43 44 45 45 45 44 43 42 41 41 40 40 40 40 39 38 39 39 40 41 41 43 45 48 50 50 50 48 49 48 48 47 47 48 49 49 48 47
35 36 40 42 42 43 44 44 44 43 42 42 41 40 40 39 39 38 38 38 38 38 38 38 39 39 40 42 45 46 45 45 45 45 45 44 45 45 46 46 45 45 46
38 40 41 42 41 41 41 42 42 41 41 41 40 39 39 39 38 38 38 37 37 37 37 38 38 38 39 40 42 42 42 42 42 42 42 41 41 41 41 41 41 42 42
40 41 41 41 40 40 40 40 40 40 39 39 39 38 38 38 38 38 37 37 36 36 36 37 37 38 39 39 39 40 39 39 39 40 40 39 39 40 39 40 40 40 39
39 41 41 41 40 39 38 38 39 38 38 38 38 38 38 38 38 38 38 37 36 36 36 36 36 37 37 37 38 38 38 37 38 38 38 37 37 37 38 38 37 37 38
39 40 41 40 40 38 38 38 38 38 38 38 38 38 38 38 38 38 38 38 37 36 36 36 36 36 36 36 37 37 37 37 37 37 37 38 37 36 35 35 34 34 33
38 40 41 41 40 39 38 37 38 38 38 38 38 38 38 38 38 38 38 37 37 37 37 36 36 36 36 39 38 37 36 35 35 35 35 34 35 35 35 34 33 30 27
34 39 40 41 40 39 39 37 37 37 37 37 37 37 37 37 37 37 36 37 37 36 37 38 37 37 37 37 37 35 34 33 33 34 32 27 26 27 27 29 30 31 31
33 37 40 41 41 40 38 37 37 37 38 37 37 37 37 37 37 36 36 36 35 35 35 35 36 37 34 33 31 30 33 32 28 27 27 27 27 26 23 23 27 27 27
33 37 40 41 41 39 38 37 36 36 36 36 37 37 37 37 36 36 36 35 33 33 34 35 34 33 29 30 29 24 23 22 22 23 24 25 25 29 23 23 25 21 23
34 38 41 40 39 38 38 37 36 35 35 36 36 37 37 37 37 37 35 34 33 33 33 32 31 31 28 29 28 22 18 17 19 23 26 28 25 25 26 19 19 20 20
35 38 39 38 38 38 37 37 37 36 36 37 37 37 37 38 37 35 34 32 30 29 29 28 27 26 26 27 28 26 18 17 17 17 16 19 24 24 27 22 23 23 24
36 37 38 38 38 38 38 37 38 38 37 37 37 37 37 36 35 34 32 29 27 26 25 24 23 24 25 28 30 28 23 21 18 16 18 20 27 23 25 26 25 29 26
36 36 38 38 38 38 38 38 38 37 37 36 36 36 36 35 34 33 31 29 28 25 22 20 18 19 20 23 30 30 30 29 21 19 20 25 25 25 23 24 27 28 24
34 35 35 35 36 36 37 37 36 36 36 35 35 35 35 34 33 32 30 30 28 26 22 20 17 16 15 17 21 28 27 28 27 25 25 24 20 22 20 21 24 25 21
33 33 34 34 35 35 35 35 35 35 35 35 35 35 34 34 32 31 30 30 28 26 22 20 15 14 13 14 19 21 22 21 21 22 22 20 13 14 16 18 18 20 20
33 34 36 34 35 35 35 34 35 35 35 34 34 34 34 34 32 31 30 34 30 29 28 24 19 15 18 17 23 25 26 25 25 25 21 19 17 14 12 14 16 18 21

GFSMW_sfc_dewp_087.txt.gz
Dewpoint
41 43 41 37 51 62 63 64 64 65 65 66 65 66 66 67 66 65 65 64 64 64 64 64 63 63 63 62 62 62 62 62 62 61 60 60 60 59 58 57 56 58 58
38 43 40 36 37 55 61 63 64 65 65 66 65 66 68 68 67 68 67 67 66 66 65 64 64 64 64 63 63 63 62 62 62 60 61 57 54 52 54 57 56 55 57
36 41 41 40 38 46 54 59 63 64 65 66 66 66 66 67 65 65 65 65 65 66 66 66 65 65 65 64 63 63 62 61 63 62 60 56 52 54 56 56 55 54 54
40 40 42 41 39 43 51 50 56 62 64 62 64 63 63 63 64 64 64 63 59 60 61 62 63 64 65 65 64 65 64 63 61 62 61 61 58 55 53 54 56 54 54
42 41 43 42 42 47 49 47 47 50 51 53 56 59 60 58 56 52 53 52 54 54 54 56 57 59 61 63 63 63 63 64 62 61 61 60 59 58 56 53 54 55 54
39 42 42 41 40 47 48 49 46 45 45 45 45 46 47 45 46 47 46 47 49 51 51 52 54 56 57 58 59 60 62 62 62 62 61 59 57 57 56 54 54 54 55
36 39 40 40 41 46 47 48 47 46 47 46 45 45 47 47 47 48 48 47 47 49 49 50 51 52 54 56 57 58 57 60 61 61 60 60 59 58 57 56 54 53 54
36 39 42 41 41 46 47 46 45 45 46 47 47 48 48 48 47 47 46 45 46 46 46 46 47 47 48 50 54 57 58 58 58 58 57 55 53 54 54 53 53 51 52
31 35 39 39 40 44 45 44 45 46 46 46 46 45 45 45 44 44 43 43 42 40 41 43 43 44 45 47 49 53 54 54 53 53 53 51 50 50 51 52 52 51 47
30 32 35 40 40 43 44 45 45 45 45 45 43 43 42 42 42 42 41 41 40 40 40 41 41 42 42 44 46 50 51 51 50 51 50 49 48 49 50 50 50 50 49
31 32 34 40 43 43 44 44 44 44 44 43 42 42 41 41 40 40 39 39 39 39 39 39 39 40 40 41 44 46 46 47 47 47 47 46 47 47 47 47 47 47 47
36 36 37 41 42 43 44 44 44 43 43 42 41 41 41 40 40 39 39 38 38 38 38 38 38 39 39 40 42 43 43 43 43 43 44 43 43 44 43 44 43 44 44
38 38 39 40 41 42 42 43 42 42 41 41 40 40 40 39 39 39 38 37 37 37 37 37 38 38 39 40 40 41 41 41 41 41 42 41 41 41 41 42 42 42 41
37 38 40 40 40 41 41 41 40 40 40 39 39 39 39 39 39 39 38 38 37 36 36 36 37 38 38 38 38 39 39 39 39 40 39 39 39 39 40 39 39 39 40
35 38 40 40 40 40 40 40 40 39 39 39 39 39 39 39 39 39 38 38 38 37 37 36 36 37 37 37 38 38 38 38 39 39 38 38 37 37 36 37 36 36 36
32 37 40 40 40 40 39 39 39 39 39 39 39 39 39 39 39 39 38 38 38 37 37 37 37 37 36 39 39 38 37 37 37 36 37 37 37 36 35 35 34 32 31
33 33 38 40 41 40 40 38 38 38 38 38 38 38 38 38 38 38 38 38 38 37 38 38 37 37 37 38 38 37 36 36 35 35 33 28 28 28 30 30 32 31 30
32 34 35 39 41 41 40 39 39 38 39 38 38 38 38 38 38 37 37 37 37 37 37 38 37 37 35 35 35 34 35 34 31 29 28 27 26 25 24 25 29 29 29
32 33 34 37 41 41 40 39 38 38 38 38 38 38 38 38 37 37 38 37 34 34 34 36 36 35 31 31 30 26 25 23 23 24 26 26 27 29 23 27 27 24 27
34 34 36 37 40 41 40 39 37 37 37 37 38 38 38 38 37 37 37 36 35 33 34 35 33 31 28 30 28 23 20 20 23 25 26 28 26 28 25 23 22 22 22
34 35 39 40 41 41 40 39 39 39 38 38 39 38 38 39 39 37 36 34 32 32 32 30 28 27 27 27 29 26 19 19 19 20 20 23 25 24 27 23 23 25 25
36 38 40 41 41 41 40 40 40 41 39 38 38 38 38 37 37 36 34 31 30 29 28 26 25 25 25 29 30 28 25 19 19 18 18 20 27 24 25 27 25 29 26
37 38 40 40 40 40 39 40 40 39 38 37 37 37 37 37 36 34 32 29 28 28 27 23 22 22 23 25 31 32 30 26 24 20 20 22 26 27 25 26 25 28 28
36 37 37 38 38 38 38 38 38 37 37 36 36 36 36 35 35 33 32 30 29 28 25 21 19 19 19 20 23 29 30 30 29 24 26 26 25 23 24 21 24 27 25
35 35 35 35 36 36 36 36 37 36 36 36 35 35 35 35 33 32 31 31 31 30 27 23 21 19 17 18 21 24 27 26 27 25 23 24 21 19 20 21 21 24 23
34 34 34 34 35 35 35 36 36 36 35 35 35 35 34 34 33 32 31 34 34 34 32 30 24 19 20 18 22 24 25 26 24 23 20 20 20 17 15 16 18 20 22

GFSMW_sfc_dewp_090.txt.gz
Dewpoint
43 44 40 39 51 61 63 64 64 65 65 66 65 65 64 65 65 65 64 63 64 64 64 64 64 63 63 63 62 62 61 61 62 61 60 60 60 60 60 60 57 56 57
39 42 39 37 51 60 62 64 64 65 65 66 66 66 66 65 66 66 66 66 66 66 65 64 64 64 64 63 63 62 62 61 62 60 58 57 55 54 55 56 55 53 55
37 42 38 37 38 52 59 61 64 64 65 65 65 64 65 66 65 65 65 66 65 66 65 65 65 65 65 64 63 63 62 61 61 62 59 54 52 53 54 54 54 53 51
38 41 41 39 38 41 56 58 61 64 64 65 64 63 63 62 63 64 65 61 60 60 60 62 63 63 64 64 64 64 63 63 61 62 62 60 58 55 51 53 54 52 53
38 41 41 41 42 48 50 50 52 58 60 59 62 63 62 61 58 58 57 56 55 54 54 55 56 58 60 62 62 62 62 63 62 60 58 59 59 58 55 51 52 53 52
38 42 43 42 43 49 49 49 49 50 48 53 53 56 58 48 47 49 49 49 52 52 52 52 53 55 56 56 57 57 59 60 60 60 60 59 57 57 55 54 53 51 52
38 40 42 41 43 47 48 48 46 47 47 45 44 45 45 44 45 47 47 47 48 50 49 49 50 51 51 53 55 56 57 57 58 58 59 59 58 56 55 55 52 50 51
33 39 42 41 43 47 47 46 47 47 47 47 47 48 48 48 48 47 47 45 46 46 45 45 46 47 47 49 50 54 56 55 56 57 57 56 54 54 54 54 53 50 50
31 42 40 42 44 46 46 46 46 46 47 47 47 46 46 46 45 44 43 43 42 39 41 42 43 44 44 46 47 49 54 53 53 52 52 51 50 51 51 51 52 49 44
29 33 36 41 42 45 47 46 46 47 46 45 44 43 43 43 42 42 41 40 40 40 40 40 41 41 42 43 45 48 51 51 50 51 50 49 49 49 49 49 48 48 46
31 32 35 38 42 44 45 45 46 46 44 43 42 42 41 41 41 40 40 39 39 39 39 39 39 39 40 40 42 45 45 46 48 47 48 47 47 47 47 47 47 47 46
37 35 38 41 42 44 45 46 47 45 44 42 42 41 41 40 40 39 39 39 38 38 38 38 38 39 39 40 41 42 42 43 43 43 43 43 44 42 42 42 40 41 40
37 38 39 41 42 43 43 44 44 43 42 42 41 41 40 40 39 39 38 38 37 37 37 37 38 38 39 39 40 40 40 40 41 41 42 42 41 39 39 39 38 38 41
37 38 39 40 41 42 43 43 42 42 41 40 40 40 39 39 39 38 38 37 37 36 36 36 37 37 38 38 39 39 39 39 39 39 39 38 39 38 36 36 36 38 38
32 38 39 40 40 41 41 41 40 40 40 39 39 39 40 39 39 39 39 38 38 37 37 36 37 37 37 37 38 39 39 39 39 39 38 37 37 38 37 36 34 34 35
31 32 39 40 40 40 40 40 40 39 39 39 39 39 39 39 39 39 38 38 38 37 37 36 38 38 36 39 39 38 38 37 36 36 36 37 37 36 36 35 35 33 31
31 32 36 40 40 40 40 39 39 39 39 39 39 39 39 39 39 38 38 38 36 36 36 37 37 37 38 39 39 38 36 35 35 34 32 31 29 31 29 32 32 30 31
32 32 35 39 41 41 40 39 39 39 39 39 39 39 39 38 38 37 37 38 36 36 37 37 36 36 37 38 38 36 34 33 31 30 28 25 25 25 24 27 28 29 30
32 33 34 35 41 41 40 39 39 38 39 39 39 39 39 38 37 36 38 36 34 34 34 35 36 35 33 34 35 30 28 25 24 26 25 26 28 25 26 27 26 27 28
36 34 36 36 41 41 40 39 38 38 38 38 38 38 39 38 37 37 37 35 34 33 34 34 35 34 29 32 29 24 21 20 23 23 26 29 29 30 24 24 23 22 22
37 37 38 39 40 41 40 39 38 38 38 39 39 38 38 37 36 36 35 34 33 33 33 33 31 29 29 29 31 27 19 19 20 23 25 27 27 27 27 23 22 22 26
37 39 40 41 41 41 40 39 38 39 39 39 38 38 38 38 38 36 35 33 31 31 30 29 27 26 26 30 31 30 25 21 19 19 17 20 27 25 26 24 27 28 26
37 40 39 39 39 40 40 39 39 38 38 38 37 37 37 37 36 35 33 31 30 30 29 27 25 24 25 26 32 31 28 25 22 20 21 26 27 28 25 27 25 29 27
36 38 38 38 38 38 39 39 39 38 37 37 37 36 36 36 35 34 33 31 29 29 28 24 22 22 23 23 27 30 31 31 28 23 23 24 28 27 27 25 25 26 27
35 35 36 37 37 37 37 38 37 37 36 36 36 35 36 35 34 33 32 31 30 30 28 25 22 21 20 21 24 28 28 29 29 28 24 24 23 21 21 21 21 23 26
35 34 34 35 35 35 35 36 36 37 36 35 35 35 34 35 33 32 32 35 34 35 35 33 26 22 24 25 25 27 29 31 30 26 21 21 22 20 17 19 20 20 24

GFSMW_sfc_dewp_093.txt.gz
Dewpoint
45 45 44 46 57 62 65 66 65 65 66 65 65 65 65 66 65 65 64 63 63 63 63 63 63 63 63 62 62 62 61 61 61 61 60 59 60 60 60 60 59 57 56
42 43 40 40 51 60 64 65 65 66 66 66 65 65 65 64 64 65 66 66 66 66 65 64 64 64 64 63 63 62 62 61 62 60 59 57 55 54 55 56 54 54 53
38 42 38 38 48 60 62 63 64 65 65 65 65 64 63 64 64 65 65 65 65 65 65 65 65 65 65 64 64 63 63 61 62 61 59 56 52 53 54 54 53 51 51
39 42 37 36 39 57 60 62 64 64 64 65 64 62 62 62 63 64 64 63 62 61 61 61 62 63 63 63 64 64 63 62 61 61 61 59 58 55 52 53 53 52 51
37 42 39 37 38 44 55 57 60 62 62 64 64 63 61 62 60 61 61 58 57 56 56 56 56 58 58 60 60 61 61 62 61 61 59 59 58 56 54 53 52 52 51
37 38 42 40 40 48 49 49 53 55 57 59 60 62 61 57 56 56 55 54 53 52 52 53 53 54 55 55 56 56 56 56 58 59 58 57 55 55 56 53 51 51 50
36 40 41 40 43 46 47 47 49 49 49 53 55 54 55 52 51 51 50 49 51 50 49 50 50 50 50 52 54 54 54 55 55 55 56 57 57 56 55 54 52 51 50
33 40 41 40 43 45 46 46 46 45 45 45 46 51 49 49 49 50 47 47 48 46 45 46 46 47 47 48 49 51 54 55 54 55 55 56 54 53 55 54 53 49 51
33 39 41 40 43 45 46 45 46 46 47 47 48 48 48 47 47 44 43 43 42 41 42 43 43 44 44 45 46 48 51 52 52 53 53 53 51 51 52 52 52 51 47
30 36 39 41 44 46 46 46 46 47 47 46 45 45 44 43 43 42 41 40 40 40 41 41 41 41 41 42 43 45 49 50 50 51 50 49 49 48 50 50 50 50 47
33 33 35 40 43 45 46 45 46 47 45 44 43 42 42 41 41 40 40 39 39 40 39 39 39 39 40 40 41 43 45 46 48 48 49 48 48 48 47 47 47 47 47
36 35 37 41 43 44 45 45 46 46 45 44 43 43 41 40 40 39 39 39 38 38 38 38 38 39 40 40 40 41 42 42 43 42 44 44 44 43 44 44 43 44 44
37 37 40 41 42 43 44 45 45 44 43 43 42 42 42 41 39 39 39 38 38 37 37 38 38 39 39 39 39 40 40 40 40 40 41 41 40 39 38 38 38 38 40
37 38 38 40 42 43 43 44 44 43 42 42 41 41 40 39 39 38 38 37 37 37 36 37 38 37 38 38 38 39 38 39 39 40 39 40 41 38 36 36 36 37 38
37 38 39 40 40 42 43 43 42 41 41 40 40 40 40 39 39 38 38 38 38 37 37 37 37 37 37 37 38 39 39 39 39 38 37 38 39 38 38 36 34 36 36
30 37 39 40 40 41 42 41 40 40 40 40 39 40 39 39 39 39 38 38 37 37 36 37 37 37 36 39 40 39 39 38 37 37 37 37 36 37 37 36 35 35 33
31 31 36 40 40 41 41 41 40 39 39 39 39 39 39 39 39 38 38 37 36 36 35 36 36 37 39 40 41 39 37 36 35 35 34 32 31 31 31 32 32 33 32
31 31 32 39 40 41 41 40 40 39 39 39 39 39 39 39 38 38 37 36 35 34 35 36 35 36 38 39 39 38 35 34 33 31 28 27 24 26 27 27 28 29 30
35 35 33 36 41 41 40 39 39 39 39 39 39 39 39 38 37 36 35 34 33 32 34 34 36 35 35 36 37 33 30 27 26 27 27 26 25 27 29 28 28 28 28
38 37 36 35 40 41 40 39 38 38 38 39 39 39 39 38 36 35 35 36 35 34 35 35 36 35 32 35 35 29 23 21 22 23 26 30 29 26 27 26 25 24 24
37 37 37 39 39 41 39 39 38 38 39 39 39 39 38 37 35 35 35 35 34 33 33 33 33 32 30 30 31 28 19 21 23 24 25 26 30 30 25 25 22 23 24
37 40 39 39 40 40 40 38 38 39 39 39 38 38 37 37 36 34 35 34 33 33 32 32 31 29 28 32 32 31 27 23 20 20 21 26 28 28 28 26 29 29 28
38 39 38 38 39 40 39 38 38 38 38 38 37 36 36 36 35 35 34 33 32 31 31 29 28 26 25 26 32 32 30 26 21 21 21 24 28 28 27 28 28 30 24
37 38 38 37 37 39 39 39 38 38 37 37 36 36 35 35 36 35 34 33 31 31 30 29 27 26 24 25 26 30 30 29 26 26 25 26 28 28 28 27 27 26 28
35 36 37 37 37 37 38 38 38 37 37 36 36 35 36 36 35 34 33 32 31 31 30 29 26 24 22 23 26 28 29 30 30 27 23 24 24 24 22 23 22 24 26
35 34 35 36 35 36 36 36 37 37 36 36 36 36 36 35 34 33 33 36 35 35 35 34 28 24 26 26 28 29 30 32 33 30 24 23 24 23 21 20 20 21 23

GFSMW_sfc_dewp_096.txt.gz
Dewpoint
46 47 52 60 62 64 64 64 65 65 65 66 65 65 64 66 65 64 63 63 63 62 62 63 63 63 62 61 61 61 61 61 61 61 61 60 60 60 59 59 59 57 55
40 45 45 50 59 63 64 64 64 65 65 65 65 66 65 65 66 66 66 66 65 65 64 64 64 64 64 63 63 62 62 62 62 61 60 57 54 54 55 54 55 53 52
38 43 43 42 48 60 63 64 65 65 65 65 64 63 64 64 64 64 64 65 66 66 65 65 65 65 65 64 63 63 62 61 62 62 59 55 52 52 54 53 52 51 50
38 41 43 40 40 56 61 64 65 65 65 65 64 64 63 63 63 63 63 63 64 64 64 64 64 64 63 63 63 64 63 62 61 61 60 59 56 54 52 53 52 52 49
38 40 42 41 39 45 57 59 61 62 63 64 64 63 61 61 61 62 62 60 58 59 59 59 60 60 60 61 60 59 59 60 60 59 59 59 59 58 56 52 51 51 50
37 40 42 40 38 41 52 55 58 60 61 61 61 61 61 59 58 58 58 56 55 54 54 54 54 56 56 57 56 56 55 56 56 56 57 58 57 55 53 52 50 50 49
37 37 42 41 40 45 49 50 55 56 57 58 58 59 59 57 58 58 57 55 53 53 51 52 52 52 52 53 54 55 55 55 54 53 54 55 57 57 56 54 53 52 48
35 37 41 42 41 45 48 48 49 50 49 52 53 52 55 55 55 55 54 54 53 50 50 48 47 47 47 48 49 51 53 54 53 53 54 55 55 55 55 55 53 51 50
35 35 41 41 41 44 46 46 46 46 45 45 48 50 51 52 52 50 52 51 49 46 44 44 44 44 44 45 45 47 48 52 52 51 51 52 53 52 53 53 53 53 48
33 40 41 40 42 44 45 45 46 46 46 47 47 46 46 46 45 45 43 41 40 41 42 41 41 41 42 42 43 44 46 49 49 49 49 49 50 50 50 50 50 49 49
32 33 39 41 43 45 46 45 46 47 46 45 44 43 42 42 41 41 40 40 40 40 40 40 40 40 40 40 41 41 44 46 46 47 47 47 48 48 48 48 48 48 47
34 34 37 40 43 45 45 45 46 46 45 44 43 43 42 41 40 40 39 39 39 39 39 39 39 39 40 40 40 41 42 42 43 43 43 44 44 45 45 45 44 45 44
36 37 39 40 41 43 44 44 45 46 44 43 43 43 42 41 41 41 40 39 39 38 38 38 38 39 39 39 39 40 40 40 41 40 40 41 42 41 41 41 41 41 42
36 37 38 40 41 43 44 44 44 44 43 43 42 42 42 42 42 41 40 39 38 37 37 37 38 38 37 37 38 39 39 39 39 40 40 41 42 40 37 37 36 37 37
36 37 37 39 41 42 43 44 44 43 43 42 42 42 41 40 39 38 38 37 37 37 37 37 37 37 37 37 37 38 38 38 38 38 38 39 40 40 39 36 35 36 36
33 37 38 38 40 41 43 43 43 42 42 41 41 40 40 39 38 38 38 38 37 37 36 36 37 36 36 38 40 40 39 39 38 37 38 38 38 38 38 36 36 37 35
30 31 36 39 39 40 42 42 41 41 40 40 40 39 39 38 38 38 38 37 36 36 35 35 36 35 37 40 41 40 38 37 36 36 35 33 33 33 32 34 35 35 34
30 31 32 33 40 41 42 42 41 40 40 39 39 39 39 38 38 37 36 35 35 34 34 34 34 34 37 40 40 38 35 35 35 34 32 29 26 27 28 26 28 29 27
35 36 36 35 36 41 41 41 40 39 39 39 39 39 39 38 37 36 35 33 33 32 33 34 35 35 36 39 38 36 33 31 30 29 27 26 24 27 30 28 28 28 29
38 37 37 37 36 41 41 40 39 39 39 39 39 39 39 38 36 35 34 35 35 33 34 33 36 36 34 37 36 34 27 25 25 24 26 31 27 28 30 28 27 25 26
37 38 40 40 39 41 40 40 39 39 39 39 39 39 38 37 36 35 35 32 35 34 32 34 34 34 33 32 37 34 22 21 22 23 24 27 32 31 27 29 25 24 25
37 39 38 38 39 40 40 39 39 39 39 39 39 38 38 37 36 35 33 34 35 34 33 33 33 32 30 34 33 32 28 24 22 23 25 27 31 30 29 27 26 28 28
38 38 37 37 38 39 39 38 37 39 38 38 38 37 36 35 34 33 32 34 34 33 32 32 32 30 29 28 33 34 33 30 22 21 23 27 30 29 28 29 29 30 25
37 38 37 36 37 38 38 38 38 38 38 37 36 36 35 35 34 34 35 34 33 32 32 31 30 29 27 26 27 30 31 32 27 26 28 27 28 30 28 27 27 28 25
35 37 37 37 36 37 37 37 37 38 37 36 35 35 35 35 34 35 34 34 33 33 32 31 30 28 27 26 28 28 29 29 28 29 26 25 25 26 25 26 25 25 27
35 35 35 36 35 36 36 36 37 37 36 35 35 36 36 36 35 34 34 36 36 36 36 36 32 28 31 30 30 31 30 33 34 30 24 22 23 23 24 22 23 22 25

GFSMW_sfc_dewp_099.txt.gz
Dewpoint
46 50 56 61 62 64 64 64 65 65 66 65 65 65 65 65 64 63 62 62 61 62 62 62 61 62 61 61 60 61 60 61 61 61 61 60 60 59 55 56 58 57 56
41 45 47 53 60 62 63 64 65 64 65 66 65 65 65 65 65 65 65 64 64 64 63 63 63 63 63 63 63 62 62 61 62 60 60 56 55 54 54 54 54 52 53
40 40 45 45 54 60 62 64 64 64 64 64 64 63 63 63 63 64 64 65 65 65 64 64 64 64 64 63 63 63 62 61 62 62 59 54 52 52 54 52 52 51 50
39 39 42 44 44 55 61 63 64 64 64 64 63 62 62 62 64 63 63 64 64 64 64 64 64 64 64 63 63 63 63 62 60 61 60 59 57 55 53 53 52 51 49
39 39 40 44 43 44 57 60 61 62 62 63 63 63 62 62 61 61 62 62 62 62 62 62 61 62 62 61 61 61 61 61 60 59 58 56 56 56 54 52 52 51 49
38 39 40 42 43 41 53 57 60 60 61 61 62 62 61 59 59 58 59 58 58 59 59 59 59 58 58 58 57 57 57 57 56 56 56 56 55 54 54 52 51 51 49
35 38 39 41 41 40 45 53 57 58 59 60 60 60 59 59 58 58 57 56 55 56 56 55 53 53 53 54 54 54 54 55 54 54 54 55 55 56 55 55 53 50 47
34 37 38 41 41 41 43 49 52 55 56 57 58 57 58 57 56 56 56 56 55 53 52 51 50 48 48 48 49 50 52 53 54 53 53 53 53 55 55 56 53 51 48
32 35 37 40 42 42 44 47 50 51 50 50 51 51 52 52 52 52 52 53 53 52 51 49 47 45 44 45 45 46 47 49 52 51 51 51 51 51 53 53 54 53 49
35 39 39 40 41 42 45 46 47 47 46 46 48 48 49 49 49 49 49 48 47 46 43 42 42 42 41 41 42 43 45 47 50 49 49 48 48 49 50 51 51 51 49
32 36 40 41 42 44 45 45 45 46 46 46 46 45 45 44 44 43 42 41 41 41 40 40 40 40 40 40 40 41 42 45 47 48 47 47 46 47 49 48 48 48 48
33 34 39 41 43 43 44 44 45 46 46 45 44 43 42 41 41 40 40 40 39 39 39 39 39 39 39 40 40 40 41 42 42 43 43 44 44 44 43 44 45 46 46
36 35 37 38 40 42 44 44 44 45 45 43 43 42 41 40 40 40 39 39 39 39 39 39 39 39 39 38 39 39 39 39 40 40 40 41 42 42 41 42 42 42 43
35 36 37 38 40 42 43 43 43 44 44 43 42 42 41 41 41 41 41 41 40 38 38 38 38 38 37 37 38 38 37 38 39 39 39 40 41 41 40 39 39 39 39
34 36 36 36 39 41 42 43 43 43 43 43 42 42 42 41 41 40 39 38 37 37 37 37 37 37 37 37 37 37 37 37 37 38 38 39 40 41 40 39 38 36 35
29 32 37 37 37 40 41 43 43 43 42 42 42 42 41 40 39 38 37 37 36 36 36 36 37 36 37 38 39 40 38 39 38 38 38 38 38 39 40 39 39 38 35
30 30 31 37 38 39 41 42 43 42 41 41 41 41 40 39 38 37 37 36 35 35 35 35 35 35 36 39 40 40 38 38 37 36 36 34 34 34 32 36 36 36 37
30 30 31 32 33 39 41 42 42 41 41 41 40 40 39 38 37 37 36 35 34 34 33 33 32 33 35 39 41 39 35 35 36 36 35 32 29 30 27 28 29 30 27
35 35 36 36 36 35 40 42 41 41 40 40 40 39 39 38 36 36 35 33 33 32 33 34 35 32 33 39 40 37 34 33 33 31 28 29 26 27 30 27 28 28 30
37 37 37 37 37 37 40 41 40 40 40 40 40 39 39 38 37 35 34 35 35 33 34 34 33 36 34 37 38 36 31 29 28 26 26 31 26 28 30 27 27 27 28
36 39 39 39 40 40 41 40 40 40 40 40 39 39 39 38 36 35 35 34 34 34 35 34 32 34 36 34 38 38 26 26 24 24 24 26 33 31 29 31 27 25 27
37 39 38 37 38 39 40 39 39 39 39 39 39 38 37 37 36 36 34 33 33 34 34 34 32 33 33 35 35 37 34 26 22 22 22 24 30 33 31 28 29 29 28
37 38 37 36 37 37 39 38 37 39 39 38 37 37 37 36 36 34 33 32 34 34 34 33 33 32 32 30 35 35 35 32 25 22 24 27 30 31 30 30 29 29 26
36 37 36 36 36 36 37 37 38 39 38 37 36 35 35 35 34 33 33 33 34 34 33 32 32 31 30 29 28 29 32 34 32 28 25 27 27 30 29 28 28 28 25
35 36 36 35 35 36 36 37 38 38 37 37 36 36 36 34 33 33 34 34 34 34 33 33 32 31 30 29 30 28 28 30 30 27 26 25 25 27 27 27 26 26 28
35 35 35 35 35 36 36 36 37 37 37 36 35 34 34 35 36 35 35 37 36 37 37 36 34 31 33 33 33 33 32 32 33 29 24 22 24 25 25 24 24 24 26

GFSMW_sfc_dewp_102.txt.gz
Dewpoint
48 56 61 63 63 64 65 65 66 66 67 65 64 64 64 64 63 62 62 62 61 61 61 60 60 61 60 59 59 60 60 60 61 59 59 59 59 56 55 55 56 56 56
41 43 51 59 62 63 64 64 64 65 65 66 66 65 65 65 65 64 63 63 62 62 62 61 61 61 61 61 61 61 61 61 61 59 57 53 54 54 54 54 53 52 53
39 40 43 48 58 61 62 63 64 65 65 65 65 63 64 64 64 64 64 64 63 63 63 63 63 63 63 63 63 62 62 60 61 61 58 54 51 52 53 52 51 51 51
40 40 40 44 46 55 61 63 64 64 64 64 64 62 63 62 63 63 63 64 64 63 63 63 63 63 63 63 63 63 62 61 59 60 61 59 56 54 51 52 51 50 50
39 40 40 41 45 46 55 60 62 63 63 63 63 62 62 62 61 61 62 62 62 62 63 63 63 63 62 62 61 61 61 61 61 59 58 57 56 56 53 50 50 51 49
38 39 40 40 42 43 50 58 61 61 62 62 62 62 62 61 59 59 60 60 60 60 60 61 61 61 60 59 59 58 57 57 56 56 56 56 55 54 53 52 50 49 49
34 37 39 40 41 41 43 54 57 59 60 61 62 62 61 61 59 58 58 58 57 57 57 58 58 58 58 56 55 55 54 54 54 54 53 53 54 55 56 55 53 50 48
30 32 38 39 40 41 41 45 52 56 58 60 60 61 61 60 60 58 56 58 56 55 54 53 52 52 51 50 49 50 51 52 52 52 52 52 52 54 55 55 53 51 48
33 33 36 38 40 40 41 44 48 51 54 56 58 56 57 56 56 55 54 54 53 52 51 50 49 48 46 46 45 46 46 47 48 49 49 49 50 50 51 51 52 52 48
35 39 38 37 40 41 43 46 48 50 50 50 51 51 51 51 51 51 51 51 49 49 48 48 47 43 42 42 42 42 43 44 46 48 47 47 47 48 48 49 50 51 50
33 38 40 40 41 43 44 45 47 47 46 46 47 47 48 48 48 48 48 48 47 46 46 44 41 40 40 40 40 40 41 43 44 45 45 46 46 46 47 47 47 47 49
32 35 39 41 42 43 43 44 45 46 46 46 45 44 44 44 43 42 41 41 40 40 40 40 39 39 40 40 39 39 40 40 40 41 41 42 44 42 42 44 45 44 44
34 35 36 37 40 41 42 43 44 44 45 44 43 42 42 41 41 40 39 39 39 39 39 39 39 39 39 38 38 39 38 38 38 39 39 40 40 40 41 42 40 42 43
34 35 35 37 38 40 41 42 43 44 43 43 42 42 41 40 40 40 39 39 39 38 38 38 38 38 38 38 38 38 37 37 37 38 38 38 39 39 39 40 40 40 40
32 35 35 35 37 39 40 41 42 43 42 42 42 41 41 41 40 40 40 40 38 37 37 37 37 36 37 37 37 37 37 37 37 37 37 37 40 41 41 39 39 39 38
31 30 31 36 36 38 40 42 43 42 42 42 42 41 41 41 40 39 38 37 36 36 36 36 36 36 37 38 40 39 36 37 37 37 38 38 37 38 41 40 40 39 38
32 31 31 31 35 37 39 41 42 42 41 41 41 41 40 39 38 37 37 36 35 35 34 35 35 35 35 38 40 41 36 37 37 37 37 35 35 33 34 35 36 35 37
32 31 31 33 34 35 39 40 42 42 41 41 40 40 40 38 37 36 36 35 34 34 33 33 32 33 35 38 40 40 35 36 36 36 36 33 31 31 28 28 30 30 30
34 35 37 37 37 36 36 40 40 40 40 40 40 40 39 38 36 36 35 33 33 32 33 34 34 32 33 38 39 38 35 34 34 33 30 31 29 28 31 27 28 28 30
37 37 37 37 37 37 37 39 39 39 40 40 40 39 39 38 37 35 34 35 35 34 35 35 33 35 32 37 39 38 33 32 31 28 26 32 29 28 30 27 25 25 27
36 38 37 38 39 39 39 39 38 39 40 40 39 39 38 37 36 34 36 35 35 35 35 35 33 32 34 34 37 38 31 29 28 26 25 25 31 32 30 32 26 25 27
37 38 37 37 38 39 40 39 38 39 40 40 39 39 38 37 36 36 35 35 34 33 32 33 34 32 32 36 37 37 38 30 23 22 22 23 28 32 32 28 31 30 28
37 37 36 36 36 37 39 38 38 39 39 38 38 37 37 36 36 36 34 33 32 32 32 34 33 31 31 33 36 37 37 37 26 23 24 27 28 29 31 31 29 28 26
36 36 36 36 36 36 36 36 37 38 38 38 37 36 35 34 35 34 34 33 32 32 33 34 33 31 32 32 31 31 33 35 34 32 29 26 26 29 30 29 29 28 26
36 36 36 35 35 35 35 36 37 38 37 37 37 36 36 35 35 34 34 33 34 35 34 34 32 30 32 31 32 31 28 30 31 28 26 24 25 25 28 28 27 26 28
35 35 35 35 35 35 35 35 37 38 37 36 36 36 36 35 35 34 35 37 37 37 37 37 34 33 34 35 34 35 35 33 32 29 25 24 23 25 25 26 26 26 26

GFSMW_sfc_dewp_108.txt.gz
Dewpoint
58 60 61 62 62 63 62 63 65 66 66 67 66 65 63 62 61 61 61 62 63 64 65 64 63 63 61 61 60 58 59 59 61 62 61 62 61 60 59 58 57 57 59
56 60 61 61 61 61 61 60 62 65 66 66 66 66 66 66 65 64 63 64 63 64 65 65 63 63 62 61 61 60 60 61 64 61 61 55 54 56 56 56 55 56 58
53 57 58 60 61 61 61 61 62 65 65 66 65 64 64 64 65 66 66 66 65 66 66 65 64 64 64 62 62 62 62 62 63 63 60 56 52 53 55 55 55 55 56
44 50 55 59 59 61 62 62 62 64 65 65 63 61 60 60 63 64 66 65 65 65 65 64 65 65 64 64 64 64 64 62 60 62 61 60 59 54 53 55 54 54 53
44 44 45 51 60 60 61 62 62 63 64 63 63 63 61 61 62 63 62 61 62 65 65 65 65 64 65 65 64 64 63 62 60 61 60 60 59 59 57 51 51 54 53
43 43 46 47 49 58 61 63 62 61 63 62 63 63 62 61 61 62 62 62 62 64 65 65 65 65 65 64 64 64 62 62 61 61 60 58 56 52 52 51 51 51 53
41 41 42 42 43 48 52 59 62 62 62 63 63 63 63 62 62 61 62 62 62 62 63 64 64 64 64 63 63 62 62 60 59 58 58 56 55 54 53 52 51 50 51
39 39 40 43 43 46 47 50 54 59 62 63 63 64 63 63 63 63 63 63 62 62 62 62 63 62 61 61 60 59 58 58 57 56 55 55 55 55 54 52 51 49 49
36 37 37 40 42 43 45 46 50 53 59 62 62 63 64 63 63 63 63 62 62 61 61 60 59 57 56 56 57 56 55 54 54 54 54 52 52 53 53 53 53 50 45
37 38 39 35 36 38 43 45 46 51 56 60 61 61 61 62 62 61 61 60 60 58 58 56 53 51 51 50 49 48 47 47 49 50 50 51 51 51 51 52 51 51 49
39 40 40 40 38 40 42 43 45 49 54 59 59 59 59 59 58 59 57 56 55 54 52 50 47 45 44 44 44 43 44 44 45 47 47 48 49 48 48 50 50 49 49
38 40 42 42 41 42 43 45 46 48 51 55 57 57 55 55 55 55 54 53 52 51 49 46 44 43 42 41 41 41 42 42 43 43 44 44 45 47 47 47 48 48 48
34 35 39 42 42 43 44 45 47 48 50 50 51 51 51 52 52 53 51 50 48 45 43 42 42 41 41 40 40 40 40 41 41 42 42 43 44 45 45 46 46 46 44
34 34 35 37 41 43 43 45 46 47 47 47 47 48 48 49 49 49 49 46 44 42 41 41 40 41 40 40 39 39 40 40 40 41 42 42 42 43 44 44 44 43 42
33 32 34 35 37 39 42 44 45 45 45 45 45 45 46 46 45 45 45 44 42 41 40 40 40 40 40 39 40 40 40 40 40 41 40 41 41 41 42 41 42 41 40
34 34 33 32 36 37 39 42 44 45 45 45 44 44 43 43 43 43 42 41 41 41 40 40 40 40 37 41 41 41 41 40 40 41 40 40 39 39 40 40 39 41 40
35 35 33 32 33 34 38 39 42 44 45 45 44 43 43 42 42 41 41 41 41 41 41 40 40 40 40 42 42 41 40 40 40 40 40 38 36 36 37 36 35 35 35
35 34 33 36 36 36 36 38 41 43 45 44 44 44 43 42 42 41 41 41 41 41 40 40 42 41 40 42 42 41 41 40 39 38 38 38 36 34 33 32 33 32 32
36 37 37 37 37 37 37 37 38 41 43 44 44 44 43 42 41 42 42 42 40 41 43 40 39 40 39 41 42 39 37 36 36 36 36 36 34 32 34 31 29 27 29
37 37 38 38 38 39 39 39 37 38 40 42 44 44 43 42 42 43 42 41 39 38 39 39 39 39 38 41 41 39 36 34 34 33 32 34 33 32 34 33 29 25 25
38 38 38 38 39 39 39 39 40 40 40 42 44 44 44 43 42 41 40 39 38 38 38 37 37 37 37 38 41 40 37 35 34 33 31 29 32 34 32 31 30 28 26
38 38 38 39 39 40 39 40 41 42 41 41 43 44 43 41 41 40 39 38 37 37 37 37 36 36 36 38 39 39 39 37 34 31 30 29 29 31 33 32 31 30 29
37 37 38 38 39 38 39 39 41 40 41 41 42 42 42 40 40 39 38 37 37 37 37 36 37 37 36 36 39 39 39 39 34 30 25 24 27 28 29 34 33 31 29
36 37 37 37 37 37 37 38 39 40 40 41 41 41 40 39 39 38 38 38 37 37 36 36 36 36 35 35 35 36 38 38 38 34 32 31 29 28 27 30 33 31 29
36 36 36 37 37 37 37 38 39 40 40 40 39 39 39 38 38 38 37 37 37 37 36 37 37 36 35 35 36 35 34 36 37 35 32 31 27 26 25 27 28 29 29
35 36 36 36 36 36 36 37 38 39 39 38 38 38 38 37 37 36 36 37 38 38 39 39 38 36 36 36 36 36 36 35 35 32 29 28 28 27 25 23 24 26 27

GFSMW_sfc_dewp_111.txt.gz
Dewpoint
57 58 60 61 61 62 64 66 65 64 65 65 64 62 59 60 61 63 65 64 63 62 63 64 63 62 60 60 60 60 58 59 60 63 63 60 60 59 59 59 57 57 57
56 58 60 61 61 61 62 62 64 64 65 66 66 65 64 64 63 63 62 62 63 64 63 63 64 63 62 61 61 61 60 61 65 62 60 56 56 59 57 57 56 55 58
56 57 59 61 61 61 61 61 62 63 65 66 65 65 66 66 65 66 65 65 63 65 67 65 66 65 66 65 63 63 63 63 64 63 60 57 54 55 57 56 56 55 57
55 57 58 60 60 59 60 62 61 62 65 65 64 63 62 61 64 65 66 66 65 65 66 66 65 65 65 65 64 64 64 63 61 62 62 61 59 55 54 57 56 56 54
54 55 57 59 59 58 59 62 61 62 62 63 62 63 62 62 64 64 63 63 63 65 65 65 65 65 65 65 64 64 63 63 62 61 61 60 60 59 58 54 55 55 55
47 50 55 59 58 60 62 61 61 61 62 62 62 62 62 61 62 62 62 62 62 63 64 65 65 65 64 64 64 64 64 63 62 61 60 58 57 56 56 53 52 51 54
45 46 47 49 55 59 60 59 61 60 61 61 60 61 62 61 61 60 60 60 61 61 62 64 65 64 64 64 64 64 64 63 61 60 59 59 59 57 55 53 52 51 52
42 44 45 46 49 54 57 58 59 59 60 60 60 62 62 62 60 61 60 60 61 61 63 63 64 64 64 63 63 63 62 60 59 58 58 57 55 55 55 54 52 50 49
34 42 43 44 44 47 51 55 58 59 58 60 60 61 62 61 61 61 61 61 62 62 62 62 62 61 61 61 60 59 57 58 58 58 56 54 53 54 54 54 54 52 47
36 39 38 38 42 44 47 48 50 53 58 61 62 62 62 61 62 63 62 62 62 61 61 60 58 58 56 56 55 55 53 54 53 53 52 52 52 52 53 53 52 52 50
39 40 41 39 37 40 44 45 47 50 53 59 61 61 62 62 63 62 61 61 59 58 57 54 52 51 51 50 50 49 48 48 49 48 49 50 50 50 50 51 51 50 51
38 41 42 40 40 40 41 43 45 47 52 57 59 59 60 60 59 59 58 57 56 55 54 51 48 46 46 45 44 43 44 44 45 46 46 47 46 48 48 48 49 49 48
33 37 40 41 41 42 42 43 46 48 52 56 57 57 56 56 56 56 55 54 53 51 49 48 46 44 43 42 42 42 43 43 43 44 44 44 45 46 47 47 47 47 44
33 34 35 40 42 43 44 45 47 49 50 51 52 52 53 53 53 53 53 51 49 45 43 42 42 42 42 43 44 41 41 41 42 43 43 43 43 44 46 45 45 44 43
33 33 33 34 37 41 43 45 46 47 48 48 48 49 49 50 50 51 49 47 45 43 42 41 42 42 42 42 41 41 42 42 42 43 42 43 42 42 42 42 43 42 41
35 35 33 33 35 37 40 43 45 45 45 45 45 46 46 46 47 47 47 45 43 42 42 41 42 44 39 43 44 43 42 42 42 42 41 41 40 40 41 41 40 40 41
35 35 33 33 34 35 37 39 42 44 45 45 44 44 44 44 44 44 43 43 43 42 42 42 42 41 41 43 43 43 42 42 42 42 42 40 37 38 40 38 36 36 36
35 35 36 36 37 37 36 37 40 42 45 45 45 44 44 43 43 43 43 43 42 43 43 42 42 43 41 44 42 42 42 41 41 39 39 39 37 37 35 34 35 34 33
36 36 37 37 37 38 38 38 37 39 42 44 45 45 44 43 43 43 43 44 42 42 43 42 42 42 41 44 42 40 38 37 37 37 38 38 37 36 36 33 33 30 30
38 38 38 37 37 38 39 39 38 37 38 40 44 45 45 44 43 44 44 43 41 40 42 41 41 41 39 43 42 40 37 35 36 36 35 35 35 35 36 34 33 29 27
40 40 38 38 39 39 40 39 40 40 40 41 43 45 45 45 45 44 43 42 39 39 39 38 38 38 39 40 42 41 38 36 35 34 33 32 36 37 34 33 32 30 28
38 39 39 39 40 40 40 40 41 43 42 42 42 44 45 44 44 43 41 40 38 38 37 37 37 37 37 40 41 41 40 38 35 34 33 33 34 34 35 34 32 31 29
37 38 38 39 40 39 39 39 40 40 41 41 41 43 44 43 42 42 40 39 38 37 37 37 37 37 37 38 40 40 40 40 37 35 30 30 30 29 31 33 34 33 31
36 37 37 37 38 38 38 38 39 40 40 40 41 42 42 41 41 40 39 39 38 37 37 37 37 37 37 37 38 38 39 40 39 37 32 30 29 28 28 29 34 32 30
36 37 36 36 37 37 37 37 38 39 40 41 41 41 41 40 40 39 39 38 38 38 37 37 37 37 36 36 37 37 37 38 38 36 34 32 30 29 27 28 28 31 31
36 36 36 36 36 36 36 36 37 38 39 39 40 39 39 38 38 37 37 38 39 40 40 40 38 37 38 38 39 39 38 37 38 34 32 31 30 30 28 25 26 28 29

GFSMW_sfc_dewp_114.txt.gz
Dewpoint
56 56 58 58 59 60 60 60 61 63 60 62 62 63 63 64 64 65 64 62 61 60 61 63 62 61 61 60 59 59 57 58 60 61 60 60 60 59 59 60 56 56 57
56 57 58 59 60 61 60 63 63 62 61 61 61 61 61 63 65 65 65 65 63 63 63 64 63 63 62 61 61 60 59 59 62 59 58 54 55 58 58 56 55 55 57
56 57 58 59 60 60 60 62 62 63 63 64 64 64 64 64 63 62 62 63 63 64 64 64 65 64 64 63 63 62 61 61 62 61 57 54 53 54 57 55 55 54 56
56 57 57 59 60 60 60 61 61 62 63 64 63 63 62 62 63 64 64 64 64 64 65 64 65 64 64 63 62 63 62 62 60 60 61 60 58 54 53 55 55 55 54
56 55 56 59 59 60 59 60 61 61 62 62 62 61 61 61 64 64 63 62 62 64 64 64 64 64 64 64 62 62 62 61 61 60 60 59 59 58 55 53 54 54 54
55 55 55 59 58 58 57 60 59 59 62 62 62 61 60 61 61 61 61 61 61 62 64 64 64 64 63 63 62 63 62 62 62 61 60 58 57 56 55 54 53 51 53
50 52 55 59 58 56 57 59 59 59 61 61 61 61 60 61 60 60 60 60 60 60 61 63 63 63 63 63 63 63 63 62 62 61 60 59 58 57 54 52 51 49 51
47 49 50 54 57 57 58 60 59 57 58 60 61 61 61 61 60 60 60 59 59 59 60 61 62 62 63 63 63 63 63 63 62 60 59 58 56 55 54 52 50 49 49
42 45 47 48 51 55 58 59 58 58 59 60 61 60 60 61 60 60 60 60 60 60 61 61 62 62 62 62 62 61 60 60 59 58 57 56 56 55 54 53 52 50 46
38 39 41 42 45 47 52 58 58 59 59 60 60 60 60 61 61 61 59 60 60 60 60 60 61 60 60 60 60 58 59 58 57 57 56 53 51 52 52 51 51 50 48
40 41 41 38 37 39 47 51 55 56 57 59 60 60 60 60 61 61 59 60 61 60 60 60 59 58 57 57 57 55 55 53 51 52 51 50 50 50 50 50 49 48 49
40 41 41 40 39 39 42 44 45 49 53 60 60 60 60 60 60 60 60 60 59 58 56 55 54 54 53 51 49 47 48 49 49 47 47 48 47 47 47 47 47 47 46
34 39 41 42 43 43 42 43 45 50 56 58 58 59 59 59 58 57 56 56 55 53 52 52 51 48 48 46 46 46 46 45 45 46 45 44 45 45 46 46 45 45 45
33 34 36 42 43 44 45 46 49 51 53 54 55 55 55 56 56 55 55 53 49 47 46 45 44 43 43 44 44 45 45 45 44 43 43 43 43 43 44 44 42 42 42
35 34 33 35 39 43 44 45 47 48 49 51 52 52 51 52 52 51 49 48 46 44 42 42 42 43 43 43 44 44 44 43 42 42 42 42 41 43 43 41 41 41 40
35 34 33 34 35 37 41 45 45 45 46 46 48 49 48 48 49 49 46 45 44 42 42 42 42 43 42 45 46 45 43 42 42 41 40 40 40 41 42 42 41 40 38
35 36 36 36 36 36 37 39 44 45 45 45 45 45 45 46 46 46 45 43 42 42 42 43 43 41 43 46 46 44 42 41 41 41 40 40 38 40 40 40 38 38 37
36 36 37 37 37 38 38 37 41 44 45 45 44 44 44 44 44 43 43 42 42 42 42 43 42 42 42 45 44 43 40 41 40 40 40 38 37 37 36 35 34 33 33
38 38 38 38 38 38 39 39 38 38 43 44 45 44 44 43 43 42 42 42 40 39 40 41 41 41 42 44 43 41 39 38 38 38 38 38 36 38 37 33 31 30 30
40 40 39 38 39 39 40 39 39 39 38 39 43 45 44 43 42 42 42 41 41 39 40 41 40 41 41 44 42 40 37 36 36 36 36 37 36 37 38 34 32 29 27
38 39 39 39 40 40 40 40 41 41 43 43 42 45 45 44 43 41 40 39 39 39 39 39 39 39 41 42 43 42 37 36 35 34 33 34 37 36 37 36 33 30 27
37 38 38 39 40 40 39 39 40 41 41 42 42 42 44 44 43 41 39 38 38 37 37 37 37 38 39 42 43 42 40 38 34 33 33 32 36 37 37 35 33 32 29
36 37 37 38 39 38 38 38 39 40 40 41 41 41 44 43 42 39 38 37 37 37 37 37 37 37 37 40 43 42 42 40 36 34 33 35 35 35 33 33 34 34 30
36 37 37 37 37 37 38 37 38 39 40 40 40 41 43 42 42 40 39 38 37 37 37 37 37 37 37 37 38 40 40 40 39 37 31 28 28 29 28 29 30 31 30
37 37 36 36 36 36 37 37 37 38 39 40 41 41 41 41 41 40 39 38 38 38 37 37 37 36 36 36 39 39 38 38 39 35 33 31 30 28 28 27 28 30 30
37 36 37 37 36 36 36 36 36 37 39 39 39 39 39 38 39 38 38 39 40 40 40 40 39 38 39 40 40 40 40 40 40 35 33 32 31 30 29 27 26 27 30

GFSMW_sfc_dewp_117.txt.gz
Dewpoint
58 58 58 58 59 59 59 59 61 62 64 61 60 58 57 58 57 56 57 57 57 58 60 60 59 59 59 58 58 58 57 57 60 60 59 59 60 59 59 60 59 57 58
56 57 58 59 59 58 59 60 61 63 63 63 62 59 59 60 60 59 60 59 60 60 61 62 61 60 60 60 60 60 58 58 61 59 58 55 54 56 59 57 56 56 58
55 57 58 58 59 60 60 61 60 63 63 64 63 63 63 64 63 63 62 62 61 62 62 64 64 63 63 62 62 61 59 60 61 60 57 53 51 54 57 57 55 55 56
55 57 58 59 59 60 61 60 62 62 63 63 63 61 60 60 62 62 64 64 63 64 64 64 64 64 64 63 62 63 62 61 59 60 60 59 57 53 53 55 55 55 54
56 56 58 59 59 59 59 60 61 62 62 61 62 61 60 61 62 63 63 63 64 64 64 64 64 64 63 63 62 62 62 62 61 60 59 59 58 58 54 52 53 54 54
55 55 57 58 59 59 59 59 59 60 61 61 60 58 59 62 61 61 60 61 61 63 63 63 63 63 63 63 62 62 62 61 61 61 60 59 57 57 56 53 53 52 52
55 55 57 57 56 57 58 59 58 59 61 61 60 60 60 60 60 61 61 60 59 60 61 62 62 62 62 62 62 62 62 61 61 60 61 60 59 58 54 53 51 49 51
52 54 55 57 57 56 57 58 57 58 60 61 60 60 60 60 60 59 60 59 59 60 60 62 62 61 62 61 61 62 62 62 62 62 61 60 59 57 55 53 51 49 49
42 48 52 55 57 57 57 59 58 57 59 59 60 60 60 60 60 60 59 59 59 59 59 60 60 60 61 60 61 61 61 62 62 61 60 58 56 56 55 54 52 49 44
41 41 41 44 51 55 57 59 59 58 57 59 59 60 60 61 61 60 59 59 59 59 59 59 60 61 61 60 61 60 60 60 59 58 58 56 55 54 53 53 51 50 48
41 41 40 39 38 42 52 57 59 58 58 59 60 60 60 60 61 60 59 59 60 60 60 60 60 59 59 59 59 59 59 58 56 56 56 53 52 51 51 50 50 49 48
40 41 42 43 42 40 44 49 54 58 59 59 59 59 60 60 60 61 61 60 59 60 59 59 59 58 58 58 58 57 57 55 54 52 51 50 49 48 48 48 47 47 46
33 39 42 43 44 46 44 46 49 53 57 59 59 59 59 59 59 59 60 59 58 57 56 57 56 55 55 54 51 51 50 50 48 48 48 47 47 46 46 46 45 45 45
33 34 36 41 43 45 46 48 49 52 54 56 57 56 56 57 57 57 56 55 54 54 53 53 52 51 49 48 47 47 47 46 46 47 46 45 45 44 44 44 44 43 42
34 34 34 35 36 41 44 45 46 48 51 52 53 53 53 53 53 53 52 49 48 48 46 45 45 44 45 45 45 45 45 44 44 44 43 42 43 44 44 42 41 41 40
36 36 36 36 36 36 39 44 45 45 47 48 49 49 51 52 50 49 47 46 45 43 43 43 44 44 43 47 46 45 44 43 42 41 41 41 42 43 44 43 42 41 39
36 37 37 37 37 37 38 39 43 45 45 45 45 46 47 48 48 46 45 44 43 42 42 43 43 42 44 46 46 45 43 42 42 40 40 39 39 41 40 42 41 40 40
37 37 38 37 38 39 39 39 39 43 45 44 44 44 45 45 45 45 44 43 42 42 42 43 42 42 44 46 46 44 42 41 41 41 40 38 38 39 38 36 34 33 33
39 39 39 38 39 39 40 40 39 39 40 44 44 44 44 44 43 43 42 41 40 39 42 43 42 41 43 45 45 42 40 39 39 40 40 38 37 39 39 34 32 32 30
38 39 39 39 39 40 40 40 41 41 42 42 41 45 44 43 43 42 41 41 41 39 40 41 41 42 42 44 44 40 38 37 37 37 38 40 36 40 38 33 32 29 28
37 38 38 39 39 39 39 39 40 40 41 41 42 42 44 43 42 41 40 39 40 39 39 39 39 40 41 42 43 42 37 37 36 35 34 35 39 39 39 37 33 31 29
37 37 37 38 39 38 38 38 37 39 40 41 41 41 42 43 42 40 39 38 38 38 37 37 37 38 40 43 44 43 39 38 35 34 33 33 39 38 38 37 36 34 30
37 37 37 37 37 38 37 36 37 38 39 40 40 40 41 41 40 39 37 37 37 36 36 37 37 37 38 40 44 43 41 40 35 34 35 35 37 38 37 37 36 34 28
37 37 37 36 36 36 37 36 37 38 38 39 39 39 41 43 42 40 39 37 36 36 37 37 37 37 37 39 42 42 41 40 37 37 35 36 34 33 31 31 32 31 30
38 36 36 36 35 36 36 35 36 37 38 39 39 40 41 42 42 41 40 39 38 38 37 38 38 37 37 37 40 41 40 40 38 35 31 29 28 27 27 27 29 30 30
36 36 37 37 37 36 35 35 35 36 37 37 38 39 39 39 40 39 39 40 40 41 40 41 39 38 39 41 41 41 41 41 40 34 33 31 31 29 28 27 27 27 31

GFSMW_sfc_dewp_120.txt.gz
Dewpoint
56 56 57 58 58 60 60 61 61 62 63 61 61 61 61 61 58 58 59 59 59 58 58 57 56 55 55 56 57 57 56 57 58 59 59 58 59 59 59 59 58 57 59
56 56 56 57 57 59 59 60 61 62 62 61 61 62 61 61 58 58 58 58 57 58 57 56 56 57 58 58 58 58 58 58 61 58 57 54 54 55 59 59 58 57 58
54 55 56 57 57 57 58 59 60 62 62 61 60 60 61 61 61 59 58 59 58 60 60 60 60 60 61 60 60 60 58 59 60 60 57 53 50 53 56 56 58 56 57
55 55 56 57 58 58 59 60 60 61 63 62 60 59 59 59 60 59 59 60 60 61 62 63 62 61 62 61 61 62 61 60 59 60 60 58 56 52 53 55 55 54 55
55 56 56 58 60 60 59 59 61 62 62 62 62 60 59 60 60 61 60 60 61 62 62 64 63 63 63 62 62 62 62 61 60 60 59 59 58 57 54 52 54 54 54
55 57 58 59 58 58 58 58 60 61 62 62 62 61 60 60 59 60 61 62 62 62 63 63 63 63 63 62 62 62 61 61 61 61 59 59 57 57 56 53 52 53 53
54 55 56 57 57 57 57 57 58 59 61 62 62 61 60 60 59 60 61 61 62 62 63 63 62 62 62 62 62 61 61 61 60 60 59 59 59 58 57 55 53 50 51
54 54 56 56 55 57 58 57 58 59 60 59 59 60 60 59 59 59 60 61 61 62 62 62 62 61 61 61 61 61 60 60 60 59 59 60 60 59 56 55 52 50 49
45 51 54 56 56 56 57 58 57 59 59 60 59 60 60 59 59 59 59 59 59 59 59 60 60 60 60 60 60 60 60 60 60 60 60 60 59 59 57 56 54 50 46
41 41 42 45 54 55 57 58 58 58 59 59 59 59 59 60 60 59 59 59 59 59 59 59 59 59 59 60 59 59 60 61 61 60 59 58 57 57 56 56 53 51 47
41 42 43 43 40 43 52 57 59 58 58 59 59 59 59 59 60 60 59 59 59 59 58 59 58 58 59 60 60 60 59 59 58 58 58 56 56 55 54 52 51 50 49
37 41 43 44 45 44 45 48 57 59 58 58 59 59 59 59 59 59 59 59 59 59 59 59 59 60 59 59 59 58 58 58 57 56 56 54 52 51 50 50 48 48 47
34 35 37 41 44 46 48 50 52 55 58 59 59 59 58 58 59 60 60 60 60 59 60 59 59 58 58 58 58 57 57 56 56 55 55 51 50 48 48 47 47 46 46
35 36 36 36 39 44 45 46 48 52 55 57 57 58 58 58 57 57 57 57 58 59 59 59 58 56 55 55 54 53 52 51 51 50 50 51 49 47 46 45 44 44 43
36 36 36 36 36 37 42 44 45 47 51 53 53 53 56 56 56 54 53 52 53 53 54 54 54 54 53 53 51 49 49 48 48 45 45 46 45 45 45 44 43 42 41
36 37 37 37 37 38 38 39 44 45 47 49 49 50 52 52 51 50 49 48 46 45 46 46 47 46 45 47 48 46 46 45 44 43 43 43 44 45 46 44 44 42 40
37 37 37 37 38 38 39 39 39 45 45 45 46 47 49 49 48 48 47 46 45 44 44 44 44 44 45 47 47 46 44 43 43 42 41 40 41 42 42 43 43 42 42
38 39 39 38 39 39 40 40 40 39 44 44 44 44 45 46 46 46 45 44 43 43 43 43 43 43 44 47 46 45 43 42 42 41 40 39 39 40 39 36 35 34 34
37 39 39 39 39 39 39 40 41 41 41 42 42 44 44 43 44 43 44 43 41 40 42 42 41 42 44 46 45 43 42 42 41 43 39 38 38 41 40 35 32 32 31
38 38 38 39 38 38 39 39 39 39 39 40 41 42 44 43 42 42 41 41 40 40 40 42 41 42 43 45 44 42 40 40 39 39 39 40 37 41 40 34 33 31 30
37 37 37 37 38 38 38 37 37 37 39 40 41 41 42 43 42 40 40 39 40 39 39 40 40 41 42 43 44 42 38 38 37 37 37 38 40 41 40 36 32 32 30
37 37 36 37 37 37 37 36 36 38 39 39 40 40 40 41 42 40 38 38 38 37 37 38 38 39 40 42 44 43 39 39 36 35 35 36 41 41 40 38 36 36 31
37 37 36 36 36 36 36 35 35 37 38 38 39 39 39 41 40 38 37 36 36 36 36 37 37 37 38 39 44 43 42 41 36 35 35 36 40 40 39 39 38 36 28
36 36 36 35 35 35 35 34 35 36 37 37 38 39 40 43 42 41 39 39 38 38 37 36 36 36 37 38 42 42 42 41 37 37 37 36 37 38 36 36 36 31 29
35 36 36 35 35 35 34 34 35 36 36 37 37 39 40 40 41 42 41 40 39 39 38 38 38 38 37 38 41 42 41 39 36 34 33 31 30 30 28 27 28 30 30
34 36 35 35 36 36 35 34 34 35 35 37 38 38 39 39 39 40 40 41 41 41 41 41 40 39 40 41 41 42 42 42 39 33 30 29 28 26 26 26 27 29 32

GFSMW_sfc_dewp_123.txt.gz
Dewpoint
52 52 53 56 57 58 59 60 61 61 66 65 64 64 63 63 62 61 62 62 62 62 61 61 60 59 59 58 55 56 56 57 57 58 58 58 59 59 59 59 58 58 60
51 52 52 57 56 57 58 60 61 62 63 64 64 64 63 62 62 61 61 62 62 62 61 60 59 58 57 55 55 57 57 58 59 57 57 54 55 55 59 58 58 58 59
50 53 54 55 57 57 58 59 60 61 63 62 63 63 63 62 61 60 60 61 61 61 60 59 58 58 57 57 57 58 57 57 59 59 57 53 51 53 56 56 57 56 57
54 55 54 54 56 57 58 59 60 61 62 62 61 61 61 59 59 60 60 60 60 60 59 59 58 58 58 58 58 59 59 59 59 59 59 57 54 52 52 55 55 55 55
55 55 56 56 57 58 58 60 59 60 61 62 60 61 60 60 61 61 61 60 60 60 60 60 59 59 60 60 60 60 60 60 59 58 58 58 58 56 53 52 53 54 54
55 56 57 59 58 59 58 58 60 60 61 62 60 60 60 60 60 60 60 61 61 61 61 62 61 61 61 61 61 61 61 60 60 59 59 58 57 56 56 54 53 54 53
55 55 56 56 57 57 57 57 58 58 61 62 61 60 60 60 59 59 60 60 60 61 60 62 62 62 62 61 61 61 61 61 60 60 59 59 58 58 57 55 54 53 52
48 50 53 56 56 57 58 56 57 58 60 61 61 61 60 60 60 60 60 60 60 60 61 62 63 62 62 61 61 61 61 61 60 59 59 59 59 59 57 55 53 51 51
45 46 47 48 55 55 56 58 57 58 59 60 61 61 60 59 59 59 59 59 61 60 61 61 60 60 61 60 60 60 60 60 59 59 59 59 58 58 58 56 55 54 50
44 46 46 46 45 51 57 57 58 58 59 60 59 59 59 59 59 59 58 58 59 58 59 59 60 60 60 59 59 59 59 60 59 59 59 59 58 58 57 57 56 54 52
37 43 45 46 47 48 52 56 58 58 58 59 59 59 59 60 59 59 59 59 58 58 58 58 58 58 59 59 59 59 59 60 60 59 59 59 58 57 56 56 55 53 51
35 37 40 42 45 47 50 53 55 58 58 58 58 58 58 59 59 59 59 59 58 58 58 58 58 57 58 59 59 59 59 59 58 58 57 57 55 55 54 54 53 51 49
36 36 36 36 39 43 45 47 51 55 58 58 58 58 57 58 58 58 59 59 59 59 58 58 58 58 58 59 59 59 58 58 58 57 57 56 54 53 52 52 51 49 47
36 36 37 37 37 38 41 44 46 50 54 57 58 57 58 57 57 57 57 57 58 59 58 59 58 58 58 58 57 57 57 57 57 56 56 55 54 52 50 50 48 46 45
37 37 37 37 38 38 38 39 44 46 50 52 54 54 56 57 56 55 54 54 54 54 55 56 57 58 57 56 56 55 55 54 51 50 51 51 50 50 50 48 46 44 42
38 38 37 37 38 38 39 39 40 45 46 47 49 52 53 53 52 51 51 51 50 50 51 51 52 51 51 52 52 52 51 50 49 48 48 47 47 47 49 46 45 44 41
38 38 38 38 38 38 39 39 39 42 44 44 45 46 49 50 49 48 48 47 46 45 46 46 47 48 47 48 49 48 47 47 46 44 44 43 44 44 44 45 44 43 43
36 37 38 38 38 38 39 40 41 41 41 41 42 44 44 45 46 45 45 44 44 45 44 44 44 44 45 47 48 46 45 45 44 42 41 41 43 42 41 39 37 36 36
37 37 37 38 38 38 38 39 39 39 39 40 40 41 42 43 42 43 43 43 41 40 42 43 43 43 43 46 46 44 43 42 41 41 40 40 40 43 42 37 34 33 33
37 37 37 38 37 37 37 37 37 37 38 39 40 41 41 42 41 41 40 40 40 40 40 42 42 43 43 45 45 43 41 41 40 41 41 42 41 43 41 35 34 32 31
37 36 36 36 36 37 37 36 36 37 38 39 39 40 40 40 41 40 39 38 39 39 39 40 41 41 42 44 45 44 40 40 39 40 40 41 41 43 41 37 34 33 31
35 35 35 36 36 36 36 35 35 36 38 38 39 39 39 40 41 39 38 37 37 37 37 37 38 39 40 43 45 44 41 40 38 38 39 40 42 42 42 38 37 37 33
34 36 35 35 35 35 35 34 35 36 37 37 37 38 39 39 39 38 37 37 37 36 36 36 37 37 38 39 43 44 43 41 37 37 38 39 42 42 41 39 38 37 29
30 35 35 34 34 34 34 33 34 35 36 36 36 37 39 41 42 42 41 40 39 39 39 38 38 37 36 37 39 42 42 42 39 38 38 38 40 40 38 39 38 32 28
31 35 35 34 34 34 34 33 34 34 35 36 36 37 39 39 39 40 39 40 40 40 39 39 39 38 38 38 40 41 42 40 38 36 35 35 35 35 34 33 33 32 31
31 34 35 34 35 34 34 33 35 35 34 34 35 36 38 39 39 38 38 40 41 42 41 41 41 39 41 41 41 42 43 42 40 34 34 34 34 34 33 32 31 31 32